[[{"header":{"parameterUnit":"m.s-1","parameterCategory":1,"la1":31.0,"la2":29.5877,"lo1":-88.7671,"lo2":-86.6584,"dy":0.0162,"dx":0.0185,"nx":115,"ny":88,"refTime":"2024-08-25T12:00:00:Z","depth":0,"parameterNumber":2,"parameterNumberName":"U-component_of_WINDS"},"data":[0.0,0.0,0.0,0.0,0.0,0.0,0.0,0.0,0.0,0.0,0.0,0.0,0.0,0.0,0.0,0.0,0.0,0.0,0.0,0.0,0.0,0.0,0.0,0.0,0.0,0.0,0.0,0.0,0.0,0.0,0.0,0.0,0.0,0.0,0.0,0.0,0.0,0.0,0.0,0.0,0.0,0.0,0.0,0.0,0.0,0.0,0.0,0.0,0.0,0.0,0.0,0.0,0.0,0.0,0.0,0.0,0.0,0.0,0.0,0.0,0.0,0.0,0.0,0.0,0.0,0.0,0.0,0.0,0.0,0.0,0.0,0.0,0.0,0.0,0.0,0.0,0.0,0.0,0.0,0.0,0.0,0.0,0.0,0.0,0.0,0.0,0.0,0.0,0.0,0.0,0.0,0.0,0.0,0.0,0.0,0.0,0.0,0.0,0.0,0.0,0.0,0.0,0.0,0.0,0.0,0.0,0.0,0.0,0.0,0.0,0.0,0.0,0.0,0.0,0.0,0.0,0.0,0.0,0.0,0.0,0.0,0.0,0.0,0.0,0.0,0.0,0.0,0.0,0.0,0.0,0.0,0.0,0.0,0.0,0.0,0.0,0.0,0.0,0.0,0.0,0.0,0.0,0.0,0.0,0.0,0.0,0.0,0.0,0.0,0.0,0.0,0.0,0.0,0.0,0.0,0.0,0.0,0.0,0.0,0.0,0.0,0.0,0.0,0.0,0.0,0.0,0.0,0.0,0.0,0.0,0.0,0.0,0.0,0.0,0.0,0.0,0.0,0.0,0.0,0.0,0.0,0.0,0.0,0.0,0.0,0.0,0.0,0.0,0.0,0.0,0.0,0.0,0.0,0.0,0.0,0.0,0.0,0.0,0.0,0.0,0.0,0.0,0.0,0.0,0.0,0.0,0.0,0.0,0.0,0.0,0.0,0.0,0.0,0.0,0.0,0.0,0.0,0.0,0.0,0.0,0.0,0.0,0.0,0.0,0.0,0.0,0.0,0.0,0.0,0.0,0.0,0.0,0.0,0.0,0.0,0.0,0.0,0.0,0.0,0.0,0.0,0.0,0.0,0.0,0.0,0.0,0.0,0.0,0.0,0.0,0.0,0.0,0.0,0.0,0.0,0.0,0.0,0.0,0.0,0.0,0.0,0.0,0.0,0.0,0.0,0.0,0.0,0.0,0.0,0.0,0.0,0.0,0.0,0.0,0.0,0.0,0.0,0.0,0.0,0.0,0.0,0.0,0.0,0.0,0.0,0.0,0.0,0.0,0.0,0.0,0.0,0.0,0.0,0.0,0.0,0.0,0.0,0.0,0.0,0.0,0.0,0.0,0.0,0.0,0.0,0.0,0.0,0.0,0.0,0.0,0.0,0.0,0.0,0.0,0.0,0.0,0.0,0.0,0.0,0.0,0.0,0.0,0.0,0.0,0.0,0.0,0.0,0.0,0.0,0.0,0.0,0.0,0.0,0.0,0.0,0.0,0.0,0.0,0.0,0.0,0.0,0.0,0.0,0.0,0.0,0.0,0.0,0.0,0.0,0.0,0.0,0.0,0.0,0.0,0.0,0.0,0.0,0.0,0.0,0.0,0.0,0.0,0.0,0.0,0.0,0.0,0.0,0.0,0.0,0.0,0.0,0.0,0.0,0.0,0.0,0.0,0.0,0.0,0.0,0.0,0.0,0.0,0.0,0.0,0.0,0.0,0.0,0.0,0.0,0.0,0.0,0.0,0.0,0.0,0.0,0.0,0.0,0.0,0.0,0.0,0.0,0.0,0.0,0.0,0.0,0.0,0.0,0.0,0.0,0.0,0.0,0.0,0.0,0.0,0.0,0.0,0.0,0.0,0.0,0.0,0.0,0.0,0.0,0.0,0.0,0.0,0.0,0.0,0.0,0.0,0.0,0.0,0.0,0.0,0.0,0.0,0.0,0.0,0.0,0.0,0.0,0.0,0.0,0.0,0.0,0.0,0.0,0.0,0.0,0.0,0.0,0.0,0.0,0.0,0.0,0.0,0.0,0.0,0.0,0.0,0.0,0.0,0.0,0.0,0.0,0.0,0.0,0.0,0.0,0.0,0.0,0.0,0.0,0.0,0.0,0.0,0.0,0.0,0.0,0.0,0.0,0.0,0.0,0.0,0.0,0.0,0.0,0.0,0.0,0.0,0.0,0.0,0.0,0.0,0.0,0.0,0.0,0.0,0.0,0.0,0.0,0.0,0.0,0.0,0.0,0.0,0.0,0.0,0.0,0.0,0.0,0.0,0.0,0.0,0.0,0.0,0.0,0.0,0.0,0.0,0.0,0.0,0.0,0.0,0.0,0.0,0.0,0.0,0.0,0.0,0.0,0.0,0.0,0.0,0.0,0.0,0.0,0.0,0.0,0.0,0.0,0.0,0.0,0.0,0.0,0.0,0.0,0.0,0.0,0.0,0.0,0.0,0.0,0.0,0.0,0.0,0.0,0.0,0.0,0.0,0.0,0.0,0.0,0.0,0.0,0.0,0.0,0.0,0.0,0.0,0.0,0.0,0.0,0.0,0.0,0.0,0.0,0.0,0.0,0.0,0.0,0.0,0.0,0.0,0.0,0.0,0.0,0.0,0.0,0.0,0.0,0.0,0.0,0.0,0.0,0.0,0.0,0.0,0.0,0.0,0.0,0.0,0.0,0.0,0.0,0.0,0.0,0.0,0.0,0.0,0.0,0.0,0.0,0.0,0.0,0.0,0.0,0.0,0.0,0.0,0.0,0.0,0.0,0.0,0.0,0.0,0.0,0.0,0.0,0.0,0.0,0.0,0.0,0.0,0.0,0.0,0.0,0.0,0.0,0.0,0.0,0.0,0.0,0.0,0.0,0.0,0.0,0.0,0.0,0.0,0.0,0.0,0.0,0.0,0.0,0.0,0.0,0.0,0.0,0.0,0.0,0.0,0.0,0.0,0.0,0.0,0.0,0.0,0.0,0.0,0.0,0.0,0.0,0.0,0.0,0.0,0.0,0.0,0.0,0.0,0.0,0.0,0.0,0.0,0.0,0.0,0.0,0.0,0.0,0.0,0.0,0.0,0.0,0.0,0.0,0.0,0.0,0.0,0.0,0.0,0.0,0.0,0.0,0.0,0.0,0.0,0.0,0.0,0.0,0.0,0.0,0.0,0.0,0.0,0.0,0.0,0.0,0.0,0.0,0.0,0.0,0.0,0.0,0.0,0.0,0.0,0.0,0.0,0.0,0.0,0.0,0.0,0.0,0.0,0.0,0.0,0.0,0.0,0.0,0.0,0.0,0.0,0.0,0.0,0.0,0.0,0.0,0.0,0.0,0.0,0.0,0.0,0.0,0.0,0.0,0.0,0.0,0.0,0.0,0.0,0.0,0.0,0.0,0.0,0.0,0.0,0.0,0.0,0.0,0.0,0.0,0.0,0.0,0.0,0.0,0.0,0.0,0.0,0.0,0.0,0.0,0.0,0.0,0.0,0.0,0.0,0.0,0.0,0.0,0.0,0.0,0.0,0.0,0.0,0.0,0.0,0.0,0.0,0.0,0.0,0.0,0.0,0.0,0.0,0.0,0.0,0.0,0.0,0.0,0.0,0.0,0.0,0.0,0.0,0.0,0.0,0.0,0.0,0.0,0.0,0.0,0.0,0.0,0.0,0.0,0.0,0.0,0.0,0.0,0.0,0.0,0.0,0.0,0.0,0.0,0.0,0.0,0.0,0.0,0.0,0.0,0.0,0.0,0.0,0.0,0.0,0.0,0.0,0.0,0.0,0.0,0.0,0.0,0.0,0.0,0.0,0.0,0.0,0.0,0.0,0.0,0.0,0.0,0.0,0.0,0.0,0.0,0.0,0.0,0.0,0.0,0.0,0.0,0.0,0.0,0.0,0.0,0.0,0.0,0.0,0.0,0.0,0.0,0.0,0.0,0.0,0.0,0.0,0.0,0.0,0.0,0.0,0.0,0.0,0.0,0.0,0.0,0.0,0.0,0.0,0.0,0.0,0.0,0.0,0.0,0.0,0.0,0.0,0.0,0.0,0.0,0.0,0.0,0.0,0.0,0.0,0.0,0.0,0.0,0.0,0.0,0.0,0.0,0.0,0.0,0.0,0.0,0.0,0.0,0.0,0.0,0.0,0.0,0.0,0.0,0.0,0.0,0.0,0.0,0.0,0.0,0.0,0.0,0.0,0.0,0.0,0.0,0.0,0.0,0.0,0.0,0.0,0.0,0.0,0.0,0.0,0.0,0.0,0.0,0.0,0.0,0.0,0.0,0.0,0.0,0.0,0.4581,0.0,0.0,0.0,0.0,0.0,0.0,0.0,0.0,0.0,0.0,0.0,0.0,0.0,0.0,0.0,0.0,0.0,0.0,0.0,0.0,0.0,0.0,0.0,0.0,0.0,0.0,0.0,0.0,0.0,0.0,0.0,0.0,0.0,0.0,0.0,0.0,0.0,0.0,0.0,0.0,0.0,0.0,0.0,0.0,0.0,0.0,0.0,0.0,0.0,0.0,0.0,0.0,0.0,0.0,0.0,0.0,0.0,0.0,0.0,0.0,0.0,0.0,0.0,0.0,0.0,0.0,0.0,0.0,0.0,0.0,0.0,0.0,0.0,0.0,0.0,0.0,0.0,0.0,0.0,0.0,0.0,0.0,0.0,0.0,0.0,0.0,0.0,0.0,0.0,0.0,0.0,0.0,0.0,0.0,0.0,0.0,0.0,0.0,0.0,0.0,0.0,0.0,0.0,0.0,0.0,0.0,0.0,0.0,0.0,0.0,0.9647,0.891,0.7874,0.6419,0.4465,0.0,0.0,0.0,0.0,0.0,0.0,0.0,0.0,0.0,0.0,0.0,0.0,0.0,0.0,0.0,0.0,0.0,0.0,0.0,0.0,0.0,0.0,0.0,0.0,0.0,0.0,0.0,0.0,0.0,0.0,0.0,0.0,0.0,0.0,0.0,0.0,0.0,0.0,0.0,0.0,0.0,0.0,0.0,0.0,0.0,0.0,0.0,0.0,0.0,0.0,0.0,0.0,0.0,0.0,0.0,0.0,0.0,0.0,0.0,0.0,0.0,0.0,0.0,0.0,0.0,0.0,0.0,0.0,0.0,0.0,0.0,0.0,0.0,0.0,0.0,0.0,0.0,0.0,0.0,0.0,0.0,0.0,0.0,0.0,0.0,0.0,0.0,0.0,0.0,0.0,0.0,0.0,0.0,0.0,0.0,0.0,0.0,0.0,0.0,0.0,0.0,0.0,0.0,0.0,0.0,0.0,0.0,0.0,0.0,0.0,0.0,0.0,0.7819,0.6245,0.4342,0.0,0.0,0.0,0.0,0.0,0.0,0.0,0.0,0.0,0.0,0.0,0.0,0.0,0.0,0.0,0.0,0.0,0.0,0.0,0.0,0.0,0.0,0.0,0.0,0.0,0.0,0.0,0.0,0.0,0.0,0.0,0.0,0.0,0.0,0.0,0.0,0.0,0.0,0.0,0.0,0.0,0.0,0.0,0.0,0.0,0.0,0.0,0.0,0.0,0.0,0.0,0.0,0.0,0.0,0.0,0.0,0.0,0.0,0.0,0.0,0.0,0.0,0.0,0.0,0.0,0.0,0.0,0.0,0.0,0.0,0.0,0.0,0.0,0.0,0.0,0.0,0.0,0.0,0.0,0.0,0.0,0.0,0.0,0.0,0.0,0.0,0.0,0.0,0.0,0.0,0.0,0.0,0.0,0.0,0.0,0.0,0.0,0.0,0.0,0.0,0.0,0.0,0.0,0.0,0.0,0.0,0.0,0.0,0.0,0.0,0.9745,0.9603,0.8154,0.0,0.3764,0.0,0.0,0.0,0.0,0.0,0.0,0.0,0.0,0.0,0.0,0.0,0.0,0.0,0.0,0.0,0.0,0.0,0.0,0.0,0.0,0.0,0.0,0.0,0.0,0.0,0.0,0.0,0.0,0.0,0.0,0.0,0.0,0.0,0.0,0.0,0.0,0.0,0.0,0.0,0.0,0.0,0.0,0.0,0.0,0.0,0.0,0.0,0.0,0.0,0.0,0.0,0.0,0.0,0.0,0.0,0.0,0.0,0.0,0.0,0.0,0.0,0.0,0.0,0.0,0.0,0.0,0.0,0.0,0.0,0.0,0.0,0.0,0.0,0.0,0.0,0.0,0.0,0.0,0.0,0.0,0.0,0.0,0.0,0.0,0.0,0.0,0.0,0.0,0.0,0.0,0.0,0.0,0.0,0.0,0.0,0.0,0.0,0.0,0.0,0.0,0.0,0.0,0.0,0.0,0.0,0.0,0.0,0.0,0.0,0.0,0.0,0.9411,0.7178,0.512,0.0,0.0,0.0,0.0,0.0,0.0,0.0,0.0,0.0,0.0,0.0,0.0,0.0,0.0,0.0,0.0,0.0,0.0,0.0,0.0,0.0,0.0,0.0,0.0,0.0,0.0,0.0,0.0,0.0,0.0,0.0,0.0,0.0,0.0,0.0,0.0,0.0,0.0,0.0,0.0,0.0,0.0,0.0,0.0,0.0,0.0,0.0,0.0,0.0,0.0,0.0,0.0,0.0,0.0,0.0,0.0,0.0,0.0,0.0,0.0,0.0,0.0,0.0,0.0,0.0,0.0,0.0,0.0,0.0,0.0,0.0,0.0,0.0,0.0,0.0,0.0,0.0,0.0,0.0,0.0,0.0,0.0,0.0,0.0,0.0,0.0,0.0,0.0,0.0,0.0,0.0,0.0,0.0,0.0,0.0,0.0,0.0,0.0,0.0,0.0,0.0,0.0,0.0,0.0,0.0,0.0,0.0,0.0,0.0,0.0,1.0776,0.0,0.8897,0.6629,0.4802,0.3602,0.0,0.0,0.0,0.0,0.0,0.0,0.0,0.0,0.0,0.0,0.0,0.0,0.0,0.0,0.0,0.0,0.0,0.0,0.0,0.0,0.0,0.0,0.0,0.0,0.0,0.0,0.0,0.0,0.0,0.0,0.0,0.0,0.0,0.0,0.0,0.0,0.0,0.0,0.0,0.0,0.0,0.0,0.0,0.0,0.0,0.0,0.0,0.0,0.0,0.0,0.0,0.0,0.0,0.0,0.0,0.0,0.0,0.0,0.0,0.0,0.0,0.0,0.0,0.0,0.0,0.0,0.0,0.0,0.0,0.0,0.0,0.0,0.0,0.0,0.0,0.0,0.0,0.0,0.0,0.0,0.0,0.0,0.0,0.0,0.0,0.0,0.0,0.0,0.0,0.0,0.0,0.0,0.0,0.0,0.0,0.0,0.0,0.0,0.0,0.0,0.0,0.0,0.0,0.0,0.0,0.0,0.0,0.0,0.0,1.0983,0.9583,0.8292,0.7019,0.5828,0.0,0.0,0.0,0.0,0.0,0.0,0.0,0.0,0.0,0.0,0.0,0.0,0.0,0.0,0.0,0.0,0.0,0.0,0.0,0.0,0.0,0.0,0.0,0.0,0.0,0.0,0.0,0.0,0.0,0.0,0.0,0.0,0.0,0.0,0.0,0.0,0.0,0.0,0.0,0.0,0.0,0.0,0.0,0.0,0.0,0.0,0.0,0.0,0.0,0.0,0.0,0.0,0.0,0.0,0.0,0.0,0.0,0.0,0.0,0.0,0.0,0.0,0.0,0.0,0.0,0.0,0.0,0.0,0.0,0.0,0.0,0.0,0.0,0.0,0.0,0.0,0.0,0.0,0.0,0.0,0.0,0.0,0.0,0.0,0.0,0.0,0.0,0.0,0.0,0.0,0.0,0.0,0.0,0.0,0.0,0.0,0.0,0.0,0.0,0.0,0.0,0.0,0.0,0.0,0.0,0.0,0.0,0.0,0.0,1.0798,0.9882,0.9079,0.8423,0.6751,0.5361,0.0,0.0,0.0,0.0,0.0,0.0,0.0,0.0,0.0,0.0,0.0,0.0,0.0,0.0,0.0,0.0,0.0,0.0,0.0,0.0,0.0,0.0,0.0,0.0,0.0,0.0,0.0,0.0,0.0,0.0,0.0,0.0,0.0,0.0,0.0,0.0,0.0,0.0,0.0,0.0,0.0,0.0,0.0,0.0,0.0,0.0,0.0,0.0,0.0,0.0,0.0,0.0,0.0,0.0,0.0,0.0,0.0,0.0,0.0,0.0,0.0,0.0,0.0,0.0,0.0,0.0,0.0,0.0,0.0,0.0,0.0,0.0,0.0,0.0,0.0,0.0,0.0,0.0,0.0,0.0,0.0,0.0,0.0,0.0,0.0,0.0,0.0,0.0,0.0,0.0,0.0,0.0,0.0,0.0,0.0,0.0,0.0,0.0,0.0,0.0,0.0,0.0,0.0,0.0,0.0,0.0,0.0,0.0,0.0,1.0304,0.0,0.9383,0.0,0.6792,0.5203,0.0,0.0,0.0,0.0,0.0,0.0,0.0,0.0,0.0,0.0,0.0,0.0,0.0,0.0,0.0,0.0,0.0,0.0,0.0,0.0,0.0,0.0,0.0,0.0,0.0,0.0,0.0,0.0,0.0,0.0,0.0,0.0,0.0,0.0,0.0,0.0,0.0,0.0,0.0,0.0,0.0,0.0,0.0,0.0,0.0,0.0,0.0,0.0,0.0,0.0,0.0,0.0,0.0,0.0,0.0,0.0,0.0,0.0,0.0,0.0,0.0,0.0,0.0,0.0,0.0,0.0,0.0,0.0,0.0,0.0,0.0,0.0,0.0,0.0,0.0,0.0,0.0,0.0,0.0,0.0,0.0,0.0,0.0,0.0,0.0,0.0,0.0,0.0,0.0,0.0,0.0,0.0,0.0,0.0,0.0,0.0,0.0,0.0,0.0,0.0,0.0,0.0,0.0,0.0,0.0,0.0,0.0,0.0,1.0384,1.1098,1.1179,1.0353,0.892,0.7102,0.5416,0.0,0.0,0.0,0.0,0.0,0.0,0.0,0.0,0.0,0.0,0.0,0.0,0.0,0.0,0.0,0.0,0.0,0.0,0.0,0.0,0.0,0.0,0.0,0.0,0.0,0.0,0.0,0.0,0.0,0.0,0.0,0.0,0.0,0.0,0.0,0.0,0.0,0.0,0.0,0.0,0.0,0.0,0.0,0.0,0.0,0.0,0.0,0.0,0.0,0.0,0.0,0.0,0.0,0.0,0.0,0.0,0.0,0.0,0.0,0.0,0.0,0.0,0.0,0.0,0.0,0.0,0.0,0.0,0.0,0.0,0.0,0.0,0.0,0.0,0.0,0.0,0.0,0.0,0.0,0.0,0.0,0.0,0.0,0.0,0.0,0.0,0.0,0.0,0.0,0.0,0.0,0.0,0.0,0.0,0.0,0.0,0.0,0.0,0.0,0.0,0.0,0.0,0.0,0.0,0.0,0.0,0.0,0.0,0.0,0.9484,0.875,0.8242,0.7942,0.5684,0.4408,0.0,0.0,0.0,0.0,0.0,0.0,0.0,0.0,0.0,0.0,0.0,0.0,0.0,0.0,0.0,0.0,0.0,0.0,0.0,0.0,0.0,0.0,0.0,0.0,0.0,0.0,0.0,0.0,0.0,0.0,0.0,0.0,0.0,0.0,0.0,0.0,0.0,0.0,0.0,0.0,0.0,0.0,0.0,0.0,0.0,0.0,0.0,0.0,0.0,0.0,0.0,0.0,0.0,0.0,0.0,0.0,0.0,0.0,0.0,0.0,0.0,0.0,0.0,0.0,0.0,0.0,0.0,0.0,0.0,0.0,0.0,0.0,0.0,0.0,0.0,0.0,0.0,0.0,0.0,0.0,0.0,0.0,0.0,0.0,0.0,0.0,0.0,0.0,0.0,0.0,0.0,0.0,0.0,0.0,0.0,0.0,0.0,0.0,0.0,0.0,0.0,0.0,0.0,0.0,0.0,0.0,0.0,0.0,0.0,0.8097,0.7741,0.7268,0.6616,0.4595,0.347,0.3356,0.0,0.0,0.0,0.0,0.0,0.0,0.0,0.0,0.0,0.0,0.0,0.0,0.0,0.0,0.0,0.0,0.0,0.0,0.0,0.0,0.0,0.0,0.0,0.0,0.0,0.0,0.0,0.0,0.0,0.0,0.0,0.0,0.0,0.0,0.0,0.0,0.0,0.0,0.0,0.0,0.0,0.0,0.0,0.0,0.0,0.0,0.0,0.0,0.0,0.0,0.0,0.0,0.0,0.0,0.0,0.0,0.0,0.0,0.0,0.0,0.0,0.0,0.0,0.0,0.0,0.0,0.0,0.0,0.0,0.0,0.0,0.0,0.0,0.0,0.0,0.0,0.0,0.0,0.0,0.0,0.0,0.0,0.0,0.0,0.0,0.0,0.0,0.0,0.0,0.0,0.0,0.0,0.0,0.0,0.0,0.0,0.0,0.0,0.0,0.0,0.0,0.0,0.0,0.0,0.0,0.0,0.0,0.0,0.677,0.7702,0.7074,0.488,0.375,0.2627,0.0,0.0,0.0,0.0,0.0,0.0,0.0,0.0,0.0,0.0,0.0,0.0,0.0,0.0,0.0,0.0,0.0,0.0,0.0,0.0,0.0,0.0,0.0,0.0,0.0,0.0,0.0,0.0,0.0,0.0,0.0,0.0,0.0,0.0,0.0,0.0,0.0,0.0,0.0,0.0,0.0,0.0,0.0,0.0,0.0,0.0,0.0,0.0,0.0,0.0,0.0,0.0,0.0,0.0,0.0,0.0,0.0,0.0,0.0,0.0,0.0,0.0,0.0,0.0,0.0,0.0,0.0,0.0,0.0,0.0,0.0,0.0,0.0,0.0,0.0,0.0,0.0,0.0,0.0,0.0,0.0,0.0,0.0,0.0,0.0,0.0,0.0,0.0,0.0,0.0,0.0,0.0,0.0,0.0,0.0,0.0,0.0,0.0,0.0,0.0,0.0,0.0,0.0,0.0,0.0,0.0,0.0,0.0,0.0,0.5002,0.394,0.3462,0.3455,0.1917,0.1294,0.0,0.0,0.0,0.0,0.0,0.0,0.0,0.0,0.0,0.0,0.0,0.0,0.0,0.0,0.0,0.0,0.0,0.0,0.0,0.0,0.0,0.0,0.0,0.0,0.0,0.0,0.0,0.0,0.0,0.0,0.0,0.0,0.0,0.0,0.0,0.0,0.0,0.0,0.0,0.0,0.0,0.0,0.0,0.0,0.0,0.0,0.0,0.0,0.0,0.0,0.0,0.0,0.0,0.0,0.0,0.0,0.0,0.0,0.0,0.0,0.0,0.0,0.0,0.0,0.0,0.0,0.0,0.0,0.0,0.0,0.0,0.0,0.0,0.0,0.0,0.0,0.0,0.0,0.0,0.0,0.0,0.0,0.0,0.0,0.0,0.0,0.0,0.0,0.0,0.0,0.0,0.0,0.0,0.0,0.0,0.0,0.0,0.0,0.0,0.0,0.0,0.0,0.0,0.0,0.0,0.0,0.0,0.0,0.6573,0.4031,0.1735,0.0383,-0.0039,-0.041,-0.0228,0.0,0.0,0.0,0.0,0.0,0.0,0.0,0.0,0.0,0.0,0.0,0.0,0.0,0.0,0.0,0.0,0.0,0.0,0.0,0.0,0.0,0.0,0.0,0.0,0.0,0.0,0.0,0.0,0.0,0.0,0.0,0.0,0.0,0.0,0.0,0.0,0.0,0.0,0.0,0.0,0.0,0.0,0.0,0.0,0.0,0.0,0.0,0.0,0.0,0.0,0.0,0.0,0.0,0.0,0.0,0.0,0.0,0.0,0.0,0.0,0.0,0.0,0.0,0.0,0.0,0.0,0.0,0.0,0.0,0.0,0.0,0.0,0.0,0.0,0.0,0.0,0.0,0.0,0.0,0.0,0.0,0.0,0.0,0.0,0.0,0.0,0.0,0.0,0.0,0.0,0.0,0.0,0.0,0.0,0.0,0.0,0.0,0.0,0.0,0.0,0.0,0.0,0.0,0.0,0.0,0.0,0.0,0.0,0.5747,0.3499,0.0421,-0.2243,-0.4314,-0.2802,-0.1642,0.0,0.0,0.0,0.0,0.0,0.0,0.0,0.0,0.0,0.0,0.0,0.0,0.0,0.0,0.0,0.0,0.0,0.0,0.0,0.0,0.0,0.0,0.0,0.0,0.0,0.0,0.0,0.0,0.0,0.0,0.0,0.0,0.0,0.0,0.0,0.0,0.0,0.0,0.0,0.0,0.0,0.0,0.0,0.0,0.0,0.0,0.0,0.0,0.0,0.0,0.0,0.0,0.0,0.0,0.0,0.0,0.0,0.0,0.0,0.0,0.0,0.0,0.0,0.0,0.0,0.0,0.0,0.0,0.0,0.0,0.0,0.0,0.0,0.0,0.0,0.0,0.0,0.0,0.0,0.0,0.0,0.0,0.0,0.0,0.0,0.0,0.0,0.0,0.0,0.0,0.0,0.0,0.0,0.0,0.0,0.0,0.0,0.0,0.0,0.0,0.0,0.0,0.0,0.0,0.0,0.0,0.0,0.0,0.5055,0.2092,-0.1231,-0.4055,-0.6318,-0.3857,-0.2062,0.0,0.0,0.0,0.0,0.0,0.0,0.0,0.0,0.0,0.0,0.0,0.0,0.0,0.0,0.0,0.0,0.0,0.0,0.0,0.0,0.0,0.0,0.0,0.0,0.0,0.0,0.0,0.0,0.0,0.0,0.0,0.0,0.0,0.0,0.0,0.0,0.0,0.0,0.0,0.0,0.0,0.0,0.0,0.0,0.0,0.0,0.0,0.0,1.0083,0.0,0.0,0.0,0.0,0.0,0.0,0.0,0.0,0.0,0.0,0.0,0.0,0.0,0.0,0.0,0.0,0.0,0.0,0.0,0.0,0.0,0.0,0.0,0.0,0.0,0.0,0.0,0.0,0.0,0.0,0.0,0.0,0.0,0.0,0.0,0.0,0.0,0.0,0.0,0.0,0.0,0.0,0.0,0.0,0.0,0.0,0.0,0.0,0.0,0.0,0.0,0.0,0.0,0.0,0.0,0.0,0.0,0.0,0.0,0.3796,0.0257,-0.2777,-0.5327,-0.7224,-0.4601,-0.26,0.0,0.0,0.0,0.0,0.0,0.0,0.0,0.0,0.0,0.0,0.0,0.0,0.0,0.0,0.0,0.0,0.0,0.0,0.0,0.0,0.0,0.0,0.0,0.0,0.0,0.0,0.0,0.0,0.0,0.0,0.0,0.0,0.0,0.0,0.0,0.0,0.0,0.0,0.0,0.0,0.0,0.0,0.0,0.0,0.0,0.0,0.0,0.0,0.0,0.0,0.0,0.0,0.0,0.0,0.0,0.0,0.0,0.0,0.0,0.0,0.0,0.0,0.0,0.0,0.0,0.0,0.0,0.0,0.0,0.0,0.0,0.0,0.0,0.0,0.0,0.0,0.0,0.0,0.0,0.0,0.0,0.0,0.0,0.0,0.0,0.0,0.0,0.0,0.0,0.0,0.0,0.0,0.0,0.0,0.0,0.0,0.0,0.0,0.0,0.0,0.0,0.0,0.0,0.0,0.0,0.0,0.0,0.5687,0.2558,-0.1238,-0.402,-0.6174,-0.7669,-0.4985,-0.3061,-0.2106,0.0,0.0,0.0,0.0,0.0,0.0,0.0,0.0,0.0,0.0,0.0,0.0,0.0,0.0,0.0,0.0,0.0,0.0,0.0,0.0,0.0,0.0,0.0,0.0,0.0,0.0,0.0,0.0,0.0,0.0,0.0,0.0,0.0,0.0,0.0,0.0,0.0,0.0,1.0749,1.2402,0.0,0.0,0.0,0.0,0.0,0.0,0.0,0.0,1.1814,0.0,0.0,0.0,0.0,0.0,0.0,0.0,0.0,0.0,0.0,0.0,0.0,0.0,0.0,0.0,0.0,0.0,0.0,0.0,0.0,0.0,0.0,0.0,0.0,0.0,0.0,0.0,0.0,0.0,0.0,0.0,0.0,0.0,0.0,0.0,0.0,0.0,0.0,0.0,0.0,0.0,0.0,0.0,0.0,0.0,0.0,0.0,0.0,0.0,0.0,0.0,0.0,0.0,0.0,0.0,0.0,0.8815,0.5392,0.2105,-0.0945,-0.4312,-0.6401,-0.707,-0.4774,-0.2996,-0.1812,0.0,0.0,0.0,0.0,0.0,0.0,0.0,0.0,0.0,0.0,0.0,0.0,0.0,0.0,0.0,0.0,0.0,0.0,0.0,0.0,0.0,0.0,0.0,0.0,0.0,0.0,0.0,0.0,0.0,0.0,0.0,0.0,0.0,0.0,0.0,0.0,0.0,0.0,0.0,1.3214,1.4165,0.0,0.0,0.0,0.0,0.0,0.0,0.0,0.0,1.003,0.0,0.0,0.0,0.0,0.0,0.0,0.0,0.0,0.0,0.0,0.0,0.0,0.0,0.0,0.0,0.0,0.0,0.0,0.0,0.0,0.0,0.0,0.0,0.0,0.0,0.0,0.0,0.0,0.0,0.0,0.0,0.0,0.0,0.0,0.0,0.0,0.0,0.0,0.0,0.0,0.0,0.0,0.0,0.0,0.0,0.0,0.0,0.0,0.0,0.0,0.0,0.0,0.0,0.0,0.0,0.6442,0.3811,0.0481,-0.3434,-0.584,-0.7335,-0.7792,-0.4892,-0.2763,0.0,0.0,0.0,0.0,0.0,0.0,0.0,0.0,0.0,0.0,0.0,0.0,0.0,0.0,0.0,0.0,0.0,0.0,0.0,0.0,0.0,0.0,0.0,0.0,0.0,0.0,0.0,0.0,0.0,0.0,0.0,0.0,0.0,0.0,0.0,0.0,0.0,0.0,0.0,0.0,1.444,1.5247,1.5295,0.0,0.0,0.0,0.0,0.0,0.0,1.0802,0.9454,0.0,0.0,0.0,0.0,0.0,0.0,0.0,0.0,0.0,0.0,0.0,0.0,0.0,0.0,0.0,0.0,0.0,0.0,0.0,0.0,0.0,0.0,0.0,0.0,0.0,0.0,0.0,0.0,0.0,0.0,0.0,0.0,0.0,0.0,0.0,0.0,0.0,0.0,0.0,0.0,0.0,0.0,0.0,0.0,0.0,0.0,0.0,0.0,0.0,0.0,0.0,0.0,0.0,0.0,0.0,0.4046,0.1984,-0.1268,-0.5679,-0.7072,-0.7925,-0.8285,-0.5087,-0.2696,0.0,0.0,0.0,0.0,0.0,0.0,0.0,0.0,0.0,0.0,0.0,0.0,0.0,0.0,0.0,0.0,0.0,0.0,0.0,0.0,0.0,0.0,0.0,0.0,0.0,0.0,0.0,0.0,0.0,0.0,0.0,0.0,0.0,0.0,0.0,0.0,0.0,0.0,0.0,0.0,0.0,1.6168,1.5851,1.5198,0.0,0.0,0.0,0.0,1.2634,1.0575,0.0,0.0,0.0,0.0,0.0,0.0,0.0,0.0,0.0,0.0,0.0,0.0,0.0,0.0,0.0,0.0,0.0,0.0,0.0,0.0,0.0,0.0,0.0,0.0,0.0,0.0,0.0,0.0,0.0,0.0,0.0,0.0,0.0,0.0,0.0,0.0,0.0,0.0,0.0,0.0,0.0,0.0,0.0,0.0,0.0,0.0,0.0,0.0,0.0,0.0,0.0,0.0,0.0,0.0,0.0,0.0,0.3367,0.0508,-0.2409,-0.5255,-0.6525,-0.7147,-0.7175,-0.517,-0.3096,0.0,0.0,0.0,0.0,0.0,0.0,0.0,0.0,0.0,0.0,0.0,0.0,0.0,0.0,0.0,0.0,0.0,0.0,0.0,0.0,0.0,0.0,0.0,0.0,0.0,0.0,0.0,0.0,0.0,0.0,0.0,0.0,0.0,0.0,0.0,0.0,0.0,0.0,0.0,0.0,0.0,1.6323,1.4726,1.395,1.3463,0.0,0.0,1.1108,1.1831,0.999,0.0,0.0,0.0,0.0,0.0,0.0,0.0,0.0,0.0,0.0,0.0,0.0,0.0,0.0,0.0,0.0,0.0,0.0,0.0,0.0,0.0,0.0,0.0,0.0,0.0,0.0,0.0,0.0,0.0,0.0,0.0,0.0,0.0,0.0,0.0,0.0,0.0,0.0,0.0,0.0,0.0,0.0,0.0,0.0,0.0,0.0,0.0,0.0,0.0,0.0,0.0,0.0,0.0,0.0,0.0,0.3778,0.2749,-0.0868,-0.3898,-0.6184,-0.7363,-0.7717,-0.7244,-0.5079,-0.2904,0.0,0.0,0.0,0.0,0.0,0.0,0.0,0.0,0.0,0.0,0.0,0.0,0.0,0.0,0.0,0.0,0.0,0.0,0.0,0.0,0.0,0.0,0.0,0.0,0.0,0.0,0.0,0.0,0.0,0.0,0.0,0.0,0.0,0.0,0.0,0.0,0.0,0.0,0.0,0.0,0.0,0.0,1.511,1.3606,0.0,0.0,0.0,0.9739,0.9614,0.0,0.0,0.0,0.0,0.0,0.0,0.0,0.0,0.0,0.0,0.0,0.0,0.0,0.0,0.0,0.0,0.0,0.0,0.0,0.0,0.0,0.0,0.0,0.0,0.0,0.0,0.0,0.0,0.0,0.0,0.0,0.0,0.0,0.0,0.0,0.0,0.0,0.0,0.0,0.0,0.0,0.0,0.0,0.0,0.0,0.0,0.0,0.0,0.0,0.0,0.0,0.0,0.0,0.0,0.0,0.0,0.0,0.1802,-0.2185,-0.5222,-0.7155,-0.7923,-0.7933,-0.7192,-0.5132,0.0,0.0,0.0,0.0,0.0,0.0,0.0,0.0,0.0,0.0,0.0,0.0,0.0,0.0,0.0,0.0,0.0,0.0,0.0,0.0,0.0,0.0,0.0,0.0,0.0,0.0,0.0,0.975,0.0,0.0,0.0,0.0,0.0,0.0,0.0,0.0,0.0,0.0,0.0,0.0,0.0,0.0,1.4047,1.4644,1.2539,1.0891,0.0,0.0,0.8348,0.7685,0.6824,0.6242,0.0,0.0,0.0,0.0,0.0,0.0,0.0,0.0,0.0,0.0,0.0,0.0,0.0,0.0,0.0,0.0,0.0,0.0,0.0,0.0,0.0,0.0,0.0,0.0,0.0,0.0,0.0,0.0,0.0,0.0,0.0,0.0,0.0,0.0,0.0,0.0,0.0,0.0,0.0,0.0,0.0,0.0,0.0,0.0,0.0,0.0,0.0,0.0,0.0,0.0,0.0,0.0,0.0,0.0,0.0,-0.0032,-0.3479,-0.6105,-0.775,-0.7356,-0.697,-0.6652,-0.5458,-0.3682,0.0,0.0,0.0,0.0,0.0,0.0,0.0,0.0,0.0,0.0,0.0,0.0,0.0,0.0,0.0,0.0,0.0,0.0,0.0,0.0,0.0,0.0,0.0,0.0,0.0,0.0,0.0,0.0,0.0,0.0,0.0,0.0,0.0,0.0,0.0,0.0,0.0,0.0,0.0,0.0,0.0,1.2896,1.2173,0.9896,0.8416,0.0,0.7891,0.7022,0.6739,0.6061,0.5418,0.5083,0.0,0.0,0.0,0.0,0.0,0.0,0.0,0.0,0.0,0.0,0.0,0.0,0.0,0.0,0.0,0.0,0.0,0.0,0.0,0.0,0.0,0.0,0.0,0.0,0.0,0.0,0.0,0.0,0.0,0.0,0.0,0.0,0.0,0.0,0.0,0.0,0.0,0.0,0.0,0.0,0.0,0.0,0.0,0.0,0.0,0.0,0.0,0.0,0.0,0.0,0.0,0.0,0.0,-0.0076,-0.0146,-0.4216,-0.6672,-0.7307,-0.7119,-0.6658,-0.592,-0.4901,-0.3379,0.0,0.0,0.0,0.0,0.0,0.0,0.0,0.0,0.0,0.0,0.0,0.0,0.0,0.0,0.0,0.0,0.0,0.0,0.0,0.0,0.0,0.0,0.0,0.0,0.0,0.0,0.0,0.0,0.8767,0.8784,0.8667,0.0,0.0,0.0,0.0,0.0,0.0,0.0,0.0,0.0,0.0,1.0285,0.9663,0.8179,0.0,0.0,0.6064,0.5877,0.5389,0.4903,0.4472,0.4134,0.4253,0.0,0.0,0.0,0.0,0.0,0.0,0.0,0.0,0.0,0.0,0.0,0.0,0.0,0.0,0.0,0.0,0.0,0.0,0.0,0.0,0.0,0.0,0.0,0.0,0.0,0.0,0.0,0.0,0.0,0.0,0.0,0.0,0.0,0.0,0.0,0.0,0.0,0.0,0.0,0.0,0.0,0.0,0.0,0.0,0.0,0.0,0.0,0.0,0.0,0.0,0.0,0.0,-0.0674,-0.1011,-0.4877,-0.7009,-0.7259,-0.6923,-0.6363,-0.5521,-0.4532,-0.316,0.0,0.0,0.0,0.0,0.0,0.0,0.0,0.0,0.0,0.0,0.0,0.0,0.0,0.0,0.0,0.0,0.0,0.0,0.0,0.0,0.0,0.0,0.0,0.0,0.0,0.0,0.0,0.0,0.8781,0.8642,0.8589,0.0,0.0,0.0,0.0,0.0,0.0,0.0,0.0,0.0,0.0,0.8069,0.7974,0.6633,0.5261,0.421,0.4518,0.4608,0.3929,0.3614,0.3414,0.3267,0.0,0.0,0.0,0.0,0.0,0.0,0.0,0.0,0.0,0.0,0.0,0.0,0.0,0.0,0.0,0.0,0.0,0.0,0.0,0.0,0.0,0.0,0.0,0.0,0.0,0.0,0.0,0.2795,0.0,0.0,0.4269,0.0,0.0,0.0,0.0,0.0,0.0,0.0,0.0,0.0,0.0,0.0,0.0,0.0,0.0,0.0,0.0,0.0,0.0,0.0,0.0,0.0,0.0,-0.1539,-0.3033,-0.5501,-0.7133,-0.7786,-0.6795,-0.5993,-0.5477,-0.4508,-0.3211,-0.1529,0.0,0.0,0.0,0.0,0.0,0.0,0.0,0.0,0.0,0.0,0.0,0.0,0.0,0.0,0.0,0.0,0.0,0.0,0.0,0.0,0.0,0.0,0.0,0.0,0.0,0.0,0.8966,0.8638,0.8365,0.0,0.0,0.0,0.0,0.0,0.0,0.0,0.0,0.0,0.0,0.7716,0.6539,0.7291,0.512,0.3398,0.3287,0.3372,0.3178,0.2425,0.2253,0.2282,0.0,0.0,0.0,0.0,0.0,0.0,0.0,0.0,0.0,0.0,0.0,0.0,0.0,0.0,0.0,0.0,0.0,0.0,0.0,0.0,0.0,0.0,0.0,0.0,0.0,0.0,0.0,0.108,0.1419,0.0,0.0,0.0,0.0,0.0,0.0,0.0,0.0,0.0,0.0,0.0,-0.5921,-0.6278,0.0,0.0,0.0,0.0,0.0,0.0,0.0,0.0,0.0,0.0,0.0,0.0,-0.2311,-0.3406,-0.5635,-0.6943,-0.7273,-0.6583,-0.585,-0.5126,-0.438,-0.3093,-0.1163,0.0,0.0,0.0,0.0,0.0,0.0,0.0,0.0,0.0,0.0,0.0,0.0,0.0,0.0,0.0,0.0,0.0,0.0,0.0,0.0,0.0,0.0,0.0,0.0,0.0,0.8382,0.0,0.0,0.0,0.0,0.0,0.0,0.0,0.0,0.0,0.0,0.0,0.7749,0.7706,0.5723,0.4193,0.4017,0.3157,0.2397,0.0,0.0,0.0,0.0,0.0,0.0,0.0,0.0,0.0,0.0,0.0,0.0,0.0,0.0,0.2165,0.3346,0.355,0.3622,0.3927,0.0,0.0,0.0,0.0,0.0,0.0,0.0,0.0,0.0,0.0,0.0,0.0,0.0,0.0,-0.175,-0.1411,-0.0491,0.0,0.0,0.0,0.0,0.0,0.0,0.0,0.0,-0.6327,-0.7666,-0.8683,-0.9068,-0.8901,0.0,-0.7665,-0.5738,0.0,0.0,0.0,0.0,0.0,0.0,0.0,0.0,-0.2882,-0.4134,-0.5845,-0.6729,-0.67,-0.6173,-0.5496,-0.468,-0.368,-0.2507,-0.1091,-0.0107,0.0759,0.0,0.0,0.0,0.0,0.0,0.0,0.0,0.0,0.0,0.0,0.0,0.0,0.0,0.0,0.0,0.0,0.0,0.0,0.0,0.0,0.0,0.0,0.0,0.7435,0.0,0.0,0.0,0.0,0.0,0.0,0.0,0.0,0.0,0.5574,0.5596,0.5446,0.5158,0.3629,0.2445,0.2239,0.0,0.0,0.0,0.0,0.0,0.0,0.0,0.0448,0.0056,-0.1024,-0.1827,-0.1958,-0.1146,-0.0473,-0.0468,0.0,0.0,0.1746,0.2219,0.2474,0.2778,0.3079,0.3032,0.2353,0.2249,0.215,0.0,0.0,0.0,0.0,0.0,0.0,0.0,0.0,-0.5554,-0.5499,0.0,-0.3889,0.0,0.0,0.0,0.0,-0.2474,-0.4514,0.0,0.0,-0.9102,-1.0307,-1.0935,-1.1379,-1.1166,-1.0403,-1.0631,-0.9547,-0.7188,-0.4547,0.0,0.0,0.0,0.0,0.0,0.0,-0.3291,-0.5275,-0.6154,-0.647,-0.6215,-0.5631,-0.499,-0.4205,-0.2536,-0.1541,-0.1289,-0.023,0.0395,0.0423,0.1632,0.0,0.0,0.0,0.0,0.0,0.0,0.0,0.0,0.0,0.0,0.0,0.0,0.0,0.0,0.0,0.0,0.0,0.0,0.0,0.0,0.6923,0.0,0.0,0.0,0.0,0.0,0.0,0.0,0.0,0.0,0.0,0.2843,0.321,0.323,0.2359,0.0,0.0,0.0,0.0,0.1059,0.1058,0.1056,0.0831,0.0092,-0.0062,-0.0092,-0.0123,0.0,0.0,-0.2676,-0.1273,-0.0153,-0.0089,-0.0152,0.0154,0.0704,0.0891,0.1178,0.1907,0.149,0.0983,0.1009,0.0648,0.0341,-0.9518,0.0,0.0,0.0,0.0,-0.7709,-0.8065,-0.871,-0.8407,-0.8099,-0.7695,-0.7023,0.0,0.0,0.0,0.0,0.0,0.0,-0.8396,-0.9504,-1.0581,-1.1354,-1.1833,-1.196,-1.1905,-1.1666,-1.1474,-1.0679,-0.9421,-0.8611,-0.6293,-0.2633,0.0,0.0,0.0,0.0,-0.4677,-0.5892,-0.6361,-0.647,-0.6194,-0.605,-0.5376,-0.4234,-0.252,-0.1574,-0.151,-0.0482,0.0195,0.0411,0.1514,0.0,0.0,0.0,0.0,0.0,0.0,0.0,0.0,0.0,0.0,0.0,0.0,0.0,0.0,0.0,0.0,0.0,0.0,0.0,0.6076,0.5465,0.4972,0.0,0.0,0.0,0.0,0.0,0.0,0.0,0.0,0.0,0.1652,0.2195,0.2506,0.0,0.0,0.0567,0.1323,0.0779,0.0304,0.0335,0.0307,0.0,-0.0801,-0.1416,-0.1784,-0.1784,-0.2162,-0.2681,-0.3496,-0.2673,-0.1924,-0.1906,-0.1367,-0.0851,-0.0684,-0.0157,0.0,0.0554,0.0405,0.0254,0.0261,0.0134,0.0,-1.1618,-1.0259,-0.9775,-0.9753,-1.0084,-1.0031,-1.0322,-1.0808,-1.062,-1.048,-1.025,-0.9666,-0.8944,-0.8201,-0.7866,0.0,0.0,0.0,-1.0473,-1.1066,-1.1795,-1.2227,-1.2457,-1.249,-1.249,-1.2471,-1.224,-1.1644,-1.0723,-1.0723,-0.8919,-0.5435,0.0,0.0,-0.4995,-0.5305,-0.5829,-0.6506,-0.6673,-0.647,-0.5846,-0.5399,-0.4739,-0.386,-0.2449,-0.1649,-0.1581,-0.0569,0.0063,0.0246,0.1139,0.173,0.0,0.0,0.0,0.0,0.0,0.0,0.0,0.0,0.0,0.0,0.0,0.6344,0.523,0.0,0.0,0.0,0.4345,0.3722,0.4162,0.3507,0.0,0.0,0.0,0.0,0.0,0.0,0.0,0.245,0.1368,0.0583,0.0715,0.106,0.1326,0.1331,0.0545,0.0154,0.058,0.0,-0.0502,-0.0534,-0.0824,-0.1243,-0.1783,-0.2261,-0.2513,-0.2258,-0.2096,-0.2266,-0.2945,-0.2316,-0.1677,-0.1576,-0.1174,-0.0809,-0.0784,-0.0366,0.0,0.0,0.0,0.0,0.0,0.0,0.0,-1.3164,-1.3105,-1.2318,-1.1883,-1.1753,-1.2086,-1.2262,-1.2262,-1.2239,-1.251,-1.2808,-1.1797,-1.1278,-1.1122,-1.0705,0.0,-1.0556,-1.1724,-1.2229,-1.2272,-1.2695,-1.2915,-1.2915,-1.2905,-1.2915,-1.2905,-1.2915,-1.244,-1.1536,-1.1518,-1.0493,-0.8532,-0.8139,-0.7704,-0.7207,-0.6798,-0.6762,-0.706,-0.7046,-0.6462,-0.5308,-0.4228,-0.355,-0.3309,-0.2342,-0.1738,-0.159,-0.0571,0.0,0.0,0.063,0.0934,0.0871,0.0,0.0,0.0,0.0,0.0,0.0,0.0,0.0,0.0,0.0,0.0,0.0,0.0,0.0,0.0,0.2302,0.0,0.1907,0.134,0.0,0.0,0.0,0.0348,0.0622,0.0251,0.0294,0.1007,0.0,0.0,-0.0229,-0.0246,-0.0258,-0.0224,-0.0157,-0.0126,-0.0225,-0.0903,-0.1388,-0.1422,-0.2141,-0.2709,-0.2762,-0.283,-0.2729,-0.2262,-0.1606,-0.1473,-0.1677,-0.0874,-0.0135,0.0,0.0,0.0,0.0,0.0,0.0,0.0,0.0,0.0,0.0,0.0,0.0,-1.5504,-1.5421,-1.5301,-1.4235,-1.2626,-1.2709,-1.2749,-1.2725,-1.2734,-1.2783,-1.2895,-1.2609,-1.2488,-1.244,-1.2333,-1.2295,-1.2304,-1.2579,-1.2725,-1.2734,-1.2856,-1.2915,-1.2915,-1.2915,-1.2915,-1.2915,-1.2915,-1.2774,-1.2546,-1.2537,-1.2297,-1.1771,-1.1331,-0.9753,-0.7155,-0.7396,-0.7614,-0.7692,-0.7482,-0.6718,-0.5334,-0.4587,-0.3989,-0.3546,-0.2404,-0.1804,-0.1744,-0.0634,0.0,0.0,0.1018,0.1164,0.0293,0.2081,0.0,0.0,0.0,0.0,0.0,0.0,0.0,0.0,0.0,0.59,0.4114,0.0,0.6511,0.0,0.0589,-0.1011,0.0039,0.0205,0.0,0.0,0.0466,0.0471,0.0195,0.0085,0.0087,0.0267,-0.0682,-0.1532,-0.1983,-0.2452,-0.2555,-0.2117,-0.145,-0.1242,-0.1934,-0.2193,-0.2387,-0.2387,-0.2599,-0.2945,-0.358,-0.368,-0.3649,-0.3485,-0.2278,-0.1342,-0.1414,-0.064,0.0,0.0,0.0,0.0,0.0,0.0,0.0,0.0,0.0,0.0,0.0,0.0,0.0,-1.635,-1.6263,-1.5974,-1.5113,-1.3912,-1.3912,-1.3947,-1.3937,-1.3417,-1.3189,-1.3169,-1.2983,-1.2915,-1.2915,-1.2915,-1.2915,-1.2915,-1.2915,-1.2915,-1.2915,-1.2915,-1.2915,-1.2915,-1.2915,-1.2915,-1.2915,-1.2915,-1.2915,-1.2915,-1.2915,-1.2569,-1.1974,-1.1698,-1.0323,-0.793,-0.8386,-0.8516,-0.8123,-0.7173,-0.6299,-0.5494,-0.4525,-0.3778,-0.3193,-0.2298,-0.1775,-0.1704,-0.061,-0.0034,-0.0065,0.0716,0.1162,0.1173,0.1948,0.2327,0.0,0.0,0.0,0.0,0.0,0.0,0.0,0.0,0.0,0.0,0.0,0.3885,0.0827,-0.1751,-0.2685,-0.1363,-0.1081,-0.0945,-0.0877,-0.0405,-0.0212,-0.0451,-0.0517,-0.043,-0.0031,-0.1535,-0.2931,-0.3761,-0.3713,-0.3516,-0.3309,-0.2809,-0.253,-0.2692,-0.2986,-0.3282,-0.3278,-0.3647,-0.4051,-0.4553,-0.4622,-0.4489,-0.3992,-0.2848,-0.1811,-0.1349,-0.0573,0.0,0.0,0.0,0.0,0.0,0.0,0.0,0.0,0.0,0.0,0.0,0.0,0.0,-1.6745,-1.6506,-1.5909,-1.5598,-1.5494,-1.5416,-1.5274,-1.5081,-1.4025,-1.3594,-1.3564,-1.3203,-1.3047,-1.3037,-1.2988,-1.2983,-1.2983,-1.29,-1.2915,-1.2915,-1.2915,-1.2915,-1.2915,-1.2915,-1.2915,-1.2915,-1.2915,-1.2915,-1.2915,-1.2915,-1.2255,-1.1124,-1.0973,-1.0287,-0.9138,-0.9505,-0.9272,-0.8414,-0.674,-0.5846,-0.5723,-0.4443,-0.3453,-0.2862,-0.222,-0.1837,-0.1695,-0.0747,-0.0261,-0.0363,0.0047,0.0925,0.2261,0.1638,0.0875,0.0,0.0434,0.0,0.0,0.0,0.0,0.0,0.0,0.0,0.0,0.1407,0.0089,-0.2795,-0.3944,-0.3947,-0.2615,-0.2441,-0.2365,-0.2337,-0.1736,-0.1282,-0.133,-0.1399,-0.1218,-0.0532,-0.2343,-0.4087,-0.5126,-0.4459,-0.3918,-0.414,-0.4146,-0.3877,-0.3311,-0.3751,-0.4189,-0.4184,-0.4855,-0.5226,-0.5292,-0.5359,-0.5027,-0.4159,-0.3384,-0.2547,-0.1683,-0.0808,0.0,0.0,0.0,0.0,0.0,0.0,0.0,0.0,0.0,0.0,0.0,0.0,0.0,-1.8455,-1.7445,-1.7851,-1.7703,-1.7098,-1.6516,-1.5529,-1.4307,-1.4079,-1.3987,-1.3987,-1.3909,-1.387,-1.3841,-1.3535,-1.3389,-1.3369,-1.3037,-1.2915,-1.2915,-1.2915,-1.2915,-1.2915,-1.2915,-1.2915,-1.2915,-1.2915,-1.2915,-1.2915,-1.2915,-1.2749,-1.2495,-1.1907,-1.1216,-1.0432,0.0,0.0,0.0,-0.7473,-0.6671,-0.5938,-0.5003,-0.4218,-0.3609,-0.2811,0.0,-0.2312,-0.1671,-0.1313,-0.1307,-0.069,0.0,0.0,0.0,0.0,0.0,0.0,0.0,0.0,0.0,0.0,0.0,-0.2329,-0.1839,-0.0398,-0.0971,-0.1959,-0.3122,-0.4009,-0.4385,-0.4087,-0.3625,-0.3341,-0.3319,-0.2761,-0.2406,-0.2397,-0.2414,-0.252,-0.2909,-0.3529,-0.4287,-0.519,-0.5193,-0.5057,-0.5087,-0.5123,-0.5057,-0.4888,-0.4957,-0.5093,-0.516,-0.5296,-0.5395,-0.5395,-0.5395,-0.509,-0.422,-0.3918,-0.338,-0.2514,-0.1678,-0.1084,-0.1035,0.0,0.0,0.0,0.0,0.0,0.0,0.0,0.0,0.0,0.0,0.0,-1.9803,-1.9095,-1.8418,-1.7922,0.0,-1.6425,-1.5509,-1.4718,-1.4513,-1.4299,-1.4114,-1.4114,-1.4114,-1.4094,-1.388,-1.3701,-1.3496,-1.3281,-1.3101,-1.2915,-1.2915,-1.2915,-1.2915,-1.2915,-1.2915,-1.2915,-1.2915,-1.2915,-1.2915,-1.2915,-1.2725,-1.2369,-1.1649,-1.099,-1.0295,-0.964,-0.9056,-0.8584,-0.7796,-0.6994,-0.6207,-0.5286,-0.4349,-0.34,-0.2856,0.0,0.0,0.0,0.0,0.0,0.0,0.0,0.0,0.0,0.0,-0.2443,-0.1997,-0.1818,-0.2125,-0.2658,-0.3089,-0.3315,-0.3685,-0.3477,-0.2492,-0.2842,-0.3315,-0.3833,-0.4267,-0.4519,-0.4581,-0.4009,-0.3626,-0.3643,-0.3086,-0.2683,-0.2721,-0.3086,-0.3416,-0.362,-0.4256,-0.4888,-0.5326,-0.5395,-0.5395,-0.5395,-0.5395,-0.5395,-0.5395,-0.5395,-0.5395,-0.5395,-0.5395,-0.5395,-0.5395,-0.5395,-0.509,-0.4251,-0.4013,-0.3647,-0.2845,-0.237,-0.2095,-0.2059,-0.1749,-0.1544,-0.15,-0.1145,-0.0773,-0.0743,-0.0353,0.0,0.0,0.0,0.0,-2.0749,-2.0481,-1.8783,-1.7946,-1.7656,-1.6311,-1.5624,-1.5391,-1.5039,0.0,0.0,-1.4338,-1.4328,-1.4328,-1.425,-1.4036,-1.374,-1.3652,-1.3398,-1.3023,-1.3023,-1.2974,-1.2915,-1.2915,-1.2915,-1.2915,-1.2915,-1.2915,-1.2881,-1.2749,-1.2403,-1.1774,-1.1007,-1.0295,-0.964,-0.908,-0.8778,-0.8765,-0.7958,-0.7241,-0.6612,-0.5551,-0.4459,-0.3338,-0.3021,-0.2807,-0.2677,-0.2306,-0.2141,-0.2225,-0.1908,-0.1844,-0.2142,-0.1901,-0.2253,-0.3352,-0.3211,-0.3236,-0.3487,-0.3839,-0.3991,-0.3938,-0.4115,-0.426,-0.4257,-0.4146,-0.4195,-0.4467,-0.4539,-0.4619,-0.4682,-0.4227,-0.3904,-0.3997,-0.3521,-0.3197,-0.3232,-0.3782,-0.4187,-0.4054,-0.4791,-0.5395,-0.5395,-0.5395,-0.5395,-0.5395,-0.5395,-0.5395,-0.5395,-0.5395,-0.5395,-0.5395,-0.5395,-0.5395,-0.5395,-0.5395,-0.5066,-0.4523,-0.4356,-0.4017,-0.347,-0.3218,-0.3196,-0.3193,-0.3196,-0.3008,-0.2999,-0.2354,-0.1878,-0.1841,-0.1019,-0.0275,-0.0275,0.0,0.0,-2.102,-2.0418,-2.0118,-1.9367,-1.8311,-1.7466,-1.6459,-1.541,-1.5342,-1.5254,-1.5206,-1.5225,-1.5234,-1.5176,-1.4863,-1.4658,-1.458,-1.4182,-1.3792,-1.3428,-1.3418,-1.3232,-1.2915,-1.2915,-1.2915,-1.2915,-1.2915,-1.2915,-1.2832,-1.227,-1.1888,-1.1665,-1.0568,-0.9614,-0.8982,-0.8857,-0.8778,-0.8778,-0.8059,-0.7611,-0.7499,-0.6034,-0.5161,-0.4938,-0.3981,-0.3473,-0.343,-0.3264,-0.3162,-0.3127,-0.324,-0.3363,-0.3592,-0.3478,-0.3635,-0.4034,-0.3936,-0.3871,-0.3903,-0.406,-0.4233,-0.4385,-0.4436,-0.446,-0.4457,-0.444,-0.4447,-0.4498,-0.4691,-0.4799,-0.4726,-0.4776,-0.4844,-0.4899,-0.4948,-0.5005,-0.4921,-0.5024,-0.5126,-0.5093,-0.5263,-0.5395,-0.5395,-0.5395,-0.5395,-0.5395,-0.5395,-0.5395,-0.5395,-0.5395,-0.5395,-0.5395,-0.5395,-0.5395,-0.5395,-0.5399,-0.5353,-0.5398,-0.5308,-0.524,-0.515,-0.466,-0.4316,-0.4259,-0.3788,-0.3345,-0.3245,-0.3037,-0.2891,-0.2852,-0.2074,-0.1411,-0.1332,-0.0745,0.0,-2.172,-2.1354,-2.0687,-2.0062,-1.9437,-1.8246,-1.6989,-1.5841,-1.5771,-1.5635,-1.542,-1.542,-1.542,-1.54,-1.5215,-1.5,-1.4775,-1.458,-1.4258,-1.3831,-1.3812,-1.3623,-1.3252,-1.3238,-1.3096,-1.2925,-1.2915,-1.2915,-1.2881,-1.2559,-1.2212,-1.174,-1.0466,-0.9465,-0.8857,-0.8778,-0.8778,-0.8778,-0.8448,-0.8103,-0.7717,-0.6921,-0.6124,-0.5323,-0.4686,-0.4212,-0.3819,-0.3774,-0.3714,-0.3691,-0.3755,-0.3863,-0.3948,-0.3907,-0.3914,-0.407,-0.4094,-0.4111,-0.4115,-0.4284,-0.4392,-0.4484,-0.4491,-0.4491,-0.4491,-0.4491,-0.4525,-0.4614,-0.4792,-0.4914,-0.4897,-0.5036,-0.5165,-0.525,-0.5354,-0.5392,-0.5395,-0.5395,-0.5395,-0.5395,-0.5395,-0.5395,-0.5395,-0.5395,-0.5395,-0.5395,-0.5395,-0.5395,-0.5395,-0.5395,-0.5395,-0.5395,-0.5395,-0.5395,-0.5402,-0.5494,-0.5569,-0.5593,-0.5654,-0.5725,-0.5803,-0.5452,-0.535,-0.5299,-0.4984,-0.486,-0.48,-0.4334,-0.4059,-0.3865,-0.3125,-0.2503,-0.2306,-0.1605,-0.0745,-2.2456,-2.2389,-2.143,-2.0739,-2.017,-1.8657,-1.7339,-1.6272,-1.6134,-1.5909,-1.5576,-1.5459,-1.542,-1.542,-1.542,-1.5234,-1.4951,-1.4922,-1.4687,-1.428,-1.425,-1.4062,-1.3656,-1.3627,-1.3428,-1.3066,-1.3052,-1.2978,-1.2891,-1.2603,-1.1965,-1.1116,-1.0097,-0.9309,-0.8804,-0.8778,-0.8778,-0.8778,-0.8778,-0.8533,-0.7957,-0.7699,-0.6975,-0.5923,-0.5381,-0.4861,-0.4343,-0.4111,-0.3994,-0.3994,-0.3994,-0.4011,-0.4041,-0.3992,-0.402,-0.4111,-0.4214,-0.4272,-0.4271,-0.4426,-0.4491,-0.4491,-0.4491,-0.4491,-0.4491,-0.4491,-0.4552,-0.4713,-0.4894,-0.5043,-0.5074,-0.5142,-0.5233,-0.5378,-0.5395,-0.5395,-0.5395,-0.5395,-0.5395,-0.5395,-0.5395,-0.5395,-0.5395,-0.5395,-0.5395,-0.5395,-0.5395,-0.5395,-0.5395,-0.5395,-0.5395,-0.5395,-0.5395,-0.5395,-0.5405,-0.5562,-0.5668,-0.5633,-0.5759,-0.5861,-0.5925,-0.602,-0.6037,-0.6026,-0.6138,-0.6083,-0.6177,-0.5667,-0.5157,-0.4999,-0.4217,-0.3398,-0.3007,-0.2229,-0.1411,-2.3032,-2.302,-2.2855,-2.1723,-1.9904,-1.8576,-1.7513,-1.6652,-1.625,-1.6075,-1.5977,-1.5586,-1.542,-1.542,-1.542,-1.5381,-1.5332,-1.5352,-1.5117,-1.4756,-1.4727,-1.4502,-1.4075,-1.4055,-1.3821,-1.3477,-1.3428,-1.3223,-1.2832,-1.1658,-1.0397,-0.9211,-0.8936,-0.8883,-0.8811,-0.8778,-0.8778,-0.8778,-0.8778,-0.8778,-0.8672,-0.8051,-0.7608,-0.7469,-0.6029,-0.525,-0.5121,-0.4415,-0.3998,-0.3994,-0.4004,-0.4062,-0.4147,-0.4168,-0.4245,-0.4426,-0.4453,-0.4467,-0.4467,-0.4484,-0.4491,-0.4491,-0.4491,-0.4491,-0.4491,-0.4491,-0.4556,-0.4747,-0.5102,-0.5237,-0.5152,-0.5247,-0.5365,-0.5385,-0.5395,-0.5395,-0.5395,-0.5395,-0.5395,-0.5395,-0.5395,-0.5395,-0.5395,-0.5395,-0.5395,-0.5395,-0.5395,-0.5395,-0.5395,-0.5395,-0.5395,-0.5395,-0.5395,-0.5395,-0.5416,-0.5562,-0.5689,-0.5752,-0.5865,-0.6006,-0.6095,-0.6201,-0.6269,-0.6159,-0.6252,-0.6272,-0.6296,-0.618,-0.6093,-0.5825,-0.5157,-0.4295,-0.332,-0.2503,-0.1841,-2.364,-2.3615,-2.3258,-2.2024,-2.0297,-1.9201,-1.8126,-1.7132,-1.6956,-1.6594,-1.6095,-1.5899,-1.5664,-1.542,-1.542,-1.542,-1.542,-1.542,-1.5322,-1.5156,-1.5156,-1.4941,-1.4551,-1.4531,-1.417,-1.3555,-1.348,-1.3301,-1.2719,-1.1459,-1.0312,-0.9439,-0.9015,-0.8778,-0.8778,-0.8778,-0.8778,-0.8778,-0.8778,-0.8778,-0.8752,-0.8507,-0.8129,-0.7631,-0.6631,-0.5837,-0.5401,-0.4703,-0.4284,-0.4307,-0.4307,-0.4311,-0.4368,-0.4378,-0.4402,-0.4484,-0.4491,-0.4491,-0.4491,-0.4491,-0.4491,-0.4491,-0.4491,-0.4491,-0.4491,-0.4491,-0.4566,-0.4807,-0.5178,-0.5365,-0.5313,-0.5325,-0.5395,-0.5395,-0.5395,-0.5395,-0.5395,-0.5395,-0.5395,-0.5395,-0.5395,-0.5395,-0.5395,-0.5395,-0.5395,-0.5395,-0.5395,-0.5395,-0.5395,-0.5395,-0.5395,-0.5395,-0.5395,-0.5395,-0.5409,-0.5539,-0.5655,-0.5705,-0.5841,-0.6013,-0.6006,-0.6207,-0.6269,-0.6146,-0.6129,-0.6166,-0.6289,-0.6176,-0.6139,-0.6081,-0.6141,-0.547,-0.504,-0.4142,-0.3556,-2.3991,-2.3548,-2.2769,-2.1573,-2.0236,-1.9595,-1.8637,-1.7625,-1.7474,-1.7012,-1.6467,-1.6212,-1.5919,-1.5596,-1.5469,-1.542,-1.542,-1.542,-1.542,-1.542,-1.542,-1.5244,-1.4971,-1.4961,-1.4502,-1.3789,-1.3656,-1.3307,-1.2527,-1.1208,-1.0269,-0.9762,-0.9133,-0.8778,-0.8778,-0.8778,-0.8778,-0.8778,-0.8778,-0.8778,-0.8778,-0.8778,-0.8533,-0.7963,-0.7101,-0.634,-0.5814,-0.4976,-0.4491,-0.4487,-0.4491,-0.4491,-0.4491,-0.4491,-0.4491,-0.4491,-0.4491,-0.4491,-0.4491,-0.4491,-0.4491,-0.4491,-0.4491,-0.4491,-0.4491,-0.4491,-0.4625,-0.4862,-0.5209,-0.5392,-0.5395,-0.5395,-0.5395,-0.5395,-0.5395,-0.5395,-0.5395,-0.5395,-0.5395,-0.5395,-0.5395,-0.5395,-0.5395,-0.5395,-0.5395,-0.5395,-0.5395,-0.5395,-0.5395,-0.5395,-0.5395,-0.5395,-0.5395,-0.5395,-0.5405,-0.5528,-0.5572,-0.5637,-0.5806,-0.5911,-0.582,-0.6023,-0.6156,-0.5976,-0.5932,-0.5942,-0.604,-0.601,-0.6017,-0.6139,-0.6158,-0.6136,-0.6015,-0.5154,-0.4686,-2.3964,-2.2647,-2.1307,-2.0279,-1.9365,-1.9266,-1.8767,-1.791,-1.7568,-1.7386,-1.7191,-1.6496,-1.6095,-1.6007,-1.5615,-1.542,-1.542,-1.542,-1.542,-1.542,-1.542,-1.54,-1.5362,-1.5342,-1.4903,-1.4133,-1.4075,-1.3318,-1.1872,-1.0558,-0.984,-0.9736,-0.9106,-0.8778,-0.8778,-0.8778,-0.8778,-0.8778,-0.8778,-0.8778,-0.8778,-0.8778,-0.8778,-0.856,-0.7375,-0.6615,-0.6426,-0.5226,-0.4543,-0.4515,-0.4598,-0.4543,-0.4519,-0.4519,-0.4491,-0.4491,-0.4491,-0.4491,-0.4491,-0.4491,-0.4491,-0.4491,-0.4491,-0.4494,-0.4511,-0.4498,-0.4624,-0.4884,-0.5211,-0.5395,-0.5395,-0.5395,-0.5395,-0.5395,-0.5395,-0.5395,-0.5458,-0.5458,-0.5395,-0.5458,-0.5428,-0.5395,-0.5395,-0.5395,-0.5395,-0.5395,-0.5395,-0.5395,-0.5395,-0.5395,-0.5395,-0.5395,-0.5395,-0.5395,-0.5405,-0.5487,-0.5549,-0.5596,-0.5667,-0.5796,-0.5806,-0.5813,-0.582,-0.582,-0.5817,-0.5817,-0.582,-0.585,-0.5905,-0.5949,-0.5867,-0.5872,-0.5835,-0.4361,-0.4062,-2.4304,-2.2618,-2.1565,-2.0435,-1.9276,-1.8721,-1.8269,-1.7988,-1.7852,-1.7627,-1.7396,-1.7041,-1.6623,-1.6085,-1.5928,-1.5674,-1.543,-1.542,-1.542,-1.542,-1.542,-1.542,-1.542,-1.541,-1.5098,-1.4629,-1.4541,-1.352,-1.1705,-1.0817,-0.9987,-0.923,-0.8936,-0.8778,-0.8778,-0.8778,-0.8778,-0.8778,-0.8778,-0.8778,-0.8778,-0.8778,-0.8778,-0.8752,-0.7836,-0.7295,-0.7316,-0.634,-0.5855,-0.5855,-0.585,-0.5632,-0.5164,-0.4732,-0.4491,-0.4491,-0.4491,-0.4491,-0.4491,-0.4491,-0.4491,-0.4491,-0.4491,-0.456,-0.4593,-0.4559,-0.4649,-0.4988,-0.5253,-0.5382,-0.5395,-0.5395,-0.5395,-0.5395,-0.5428,-0.5653,-0.5976,-0.5785,-0.5591,-0.5976,-0.5785,-0.5395,-0.5395,-0.5395,-0.5395,-0.5395,-0.5395,-0.5395,-0.5395,-0.5395,-0.5395,-0.5395,-0.5395,-0.5395,-0.5395,-0.5426,-0.5481,-0.5518,-0.5538,-0.5566,-0.5583,-0.5715,-0.5759,-0.5677,-0.5664,-0.5694,-0.5711,-0.5752,-0.5803,-0.5775,-0.5692,-0.5424,-0.5103,-0.4081,-0.4155,-2.4229,-2.2719,-2.1464,-2.0241,-1.9059,-1.8319,-1.8008,-1.8008,-1.8008,-1.7852,-1.7598,-1.7451,-1.7073,-1.6525,-1.6232,-1.5948,-1.5625,-1.5488,-1.542,-1.542,-1.542,-1.542,-1.542,-1.542,-1.5186,-1.4777,-1.4398,-1.3468,-1.2211,-1.1404,-1.0482,-0.9517,-0.923,-0.9015,-0.8831,-0.8778,-0.8778,-0.8778,-0.8778,-0.8778,-0.8778,-0.8778,-0.8778,-0.8725,-0.8315,-0.7803,-0.7369,-0.6858,-0.6448,-0.6308,-0.6453,-0.6177,-0.5246,-0.4759,-0.4491,-0.4491,-0.4491,-0.4491,-0.4491,-0.4491,-0.4598,-0.4787,-0.4818,-0.4884,-0.5002,-0.4808,-0.4797,-0.505,-0.526,-0.5395,-0.5462,-0.5653,-0.5686,-0.5524,-0.5653,-0.6042,-0.6556,-0.617,-0.6009,-0.6042,-0.5719,-0.5425,-0.5395,-0.5395,-0.5395,-0.5395,-0.5395,-0.5395,-0.5395,-0.5395,-0.5395,-0.5395,-0.5395,-0.5395,-0.5395,-0.5412,-0.5426,-0.5453,-0.547,-0.546,-0.5484,-0.5596,-0.564,-0.559,-0.5576,-0.5614,-0.5616,-0.5654,-0.5691,-0.5693,-0.5522,-0.5288,-0.477,-0.4156,-0.4304,-2.3804,-2.2712,-2.0935,-1.9724,-1.871,-1.8223,-1.8027,-1.8018,-1.8008,-1.7978,-1.7881,-1.7588,-1.7383,-1.7191,-1.6564,-1.6144,-1.5977,-1.5644,-1.5459,-1.542,-1.542,-1.542,-1.542,-1.542,-1.5234,-1.4834,-1.3736,-1.3327,-1.3287,-1.2114,-1.1175,-1.0699,-0.9936,-0.9325,-0.8785,-0.8778,-0.8778,-0.8778,-0.8778,-0.8778,-0.8778,-0.8778,-0.8778,-0.8778,-0.8725,-0.8103,-0.6804,-0.675,-0.6529,-0.5977,-0.6416,-0.5964,-0.5011,-0.4708,-0.4598,-0.468,-0.4598,-0.457,-0.4543,-0.4625,-0.5003,-0.53,-0.546,-0.5603,-0.5756,-0.5251,-0.5023,-0.5457,-0.5718,-0.569,-0.5657,-0.6207,-0.6396,-0.5686,-0.6141,-0.6588,-0.6752,-0.6719,-0.6363,-0.5719,-0.5425,-0.5395,-0.5395,-0.5395,-0.5395,-0.5395,-0.5395,-0.5395,-0.5395,-0.5395,-0.5395,-0.5395,-0.5395,-0.5395,-0.5395,-0.5395,-0.5395,-0.5402,-0.5409,-0.5412,-0.5416,-0.5508,-0.5521,-0.5463,-0.5467,-0.5501,-0.5504,-0.5539,-0.5521,-0.5524,-0.5338,-0.5059,-0.4514,-0.4057,-0.4204,-2.468,-2.2928,-2.2308,-2.0699,-1.8733,-1.8451,-1.8256,-1.8018,-1.8008,-1.8008,-1.7978,-1.7871,-1.7666,-1.7383,-1.7093,-1.6672,-1.6114,-1.5928,-1.5713,-1.5469,-1.542,-1.542,-1.542,-1.542,-1.5342,-1.5137,-1.458,-1.4061,-1.3516,-1.2432,-1.1385,-1.0612,-0.9809,-0.92,-0.8858,-0.8778,-0.8778,-0.8778,-0.8778,-0.8778,-0.8778,-0.8778,-0.8778,-0.8778,-0.8778,-0.8315,-0.7456,-0.783,-0.799,-0.7717,-0.7996,-0.745,-0.6258,-0.5937,-0.5964,-0.5932,-0.5932,-0.5687,-0.5332,-0.5632,-0.5737,-0.5706,-0.5955,-0.6407,-0.6604,-0.5715,-0.5697,-0.6926,-0.8136,-0.8221,-0.6239,-0.6761,-0.7079,-0.6396,-0.6527,-0.6981,-0.7274,-0.7009,-0.633,-0.5587,-0.5395,-0.5395,-0.5395,-0.5395,-0.5395,-0.5395,-0.5395,-0.5395,-0.5395,-0.5395,-0.5395,-0.5395,-0.5395,-0.5395,-0.5395,-0.5395,-0.5395,-0.5395,-0.5395,-0.5395,-0.5395,-0.5395,-0.5395,-0.5395,-0.5395,-0.5395,-0.5395,-0.5409,-0.5443,-0.5238,-0.5005,-0.4627,-0.4202,-0.4169,-0.4355,-2.4837,-2.3127,-2.2554,-2.1113,-1.9108,-1.8763,-1.8451,-1.8198,-1.8076,-1.8008,-1.8008,-1.8008,-1.7871,-1.7617,-1.7461,-1.7112,-1.6594,-1.6396,-1.6105,-1.5664,-1.5459,-1.542,-1.542,-1.542,-1.542,-1.5371,-1.5137,-1.4724,-1.4138,-1.3356,-1.2308,-1.1103,-1.0451,-0.9763,-0.9045,-0.8931,-0.8904,-0.8805,-0.8778,-0.8778,-0.8778,-0.8778,-0.8778,-0.8778,-0.8778,-0.8566,-0.8189,-0.856,-0.8646,-0.846,-0.8401,-0.8023,-0.7429,-0.6939,-0.6831,-0.7235,-0.6885,-0.6367,-0.6036,-0.6285,-0.6583,-0.6416,-0.6745,-0.7223,-0.747,-0.6848,-0.7349,-0.7999,-0.8839,-0.8737,-0.7018,-0.692,-0.7242,-0.6785,-0.7013,-0.7246,-0.747,-0.7046,-0.633,-0.5653,-0.5395,-0.5395,-0.5395,-0.5395,-0.5395,-0.5395,-0.5395,-0.5395,-0.5395,-0.5395,-0.5395,-0.5395,-0.5395,-0.5395,-0.5395,-0.5395,-0.5395,-0.5395,-0.5395,-0.5395,-0.5395,-0.5395,-0.5395,-0.5395,-0.5395,-0.5395,-0.5395,-0.5395,-0.5382,-0.5044,-0.4836,-0.462,-0.441,-0.4458,-0.4572,-2.4337,-2.3275,-2.2017,-2.0872,-1.9793,-1.9056,-1.8685,-1.852,-1.8208,-1.8057,-1.8027,-1.8008,-1.7998,-1.791,-1.7627,-1.7425,-1.7285,-1.6943,-1.6523,-1.6103,-1.5771,-1.5547,-1.5439,-1.542,-1.542,-1.541,-1.5381,-1.5167,-1.478,-1.4515,-1.3821,-1.2016,-1.1612,-1.0951,-0.9549,-0.9224,-0.9064,-0.8878,-0.8805,-0.8778,-0.8778,-0.8778,-0.8778,-0.8778,-0.8778,-0.8752,-0.8725,-0.8752,-0.848,-0.791,-0.7937,-0.8182,-0.8374,-0.745,-0.745,-0.8487,-0.745,-0.6912,-0.6723,-0.6885,-0.7047,-0.745,-0.7634,-0.7962,-0.8404,-0.8652,-0.8491,-0.7928,-0.8021,-0.7929,-0.747,-0.7307,-0.6915,-0.6817,-0.7209,-0.7344,-0.6752,-0.6556,-0.6137,-0.5587,-0.5395,-0.5395,-0.5395,-0.5395,-0.5395,-0.5395,-0.5395,-0.5395,-0.5395,-0.5395,-0.5395,-0.5395,-0.5395,-0.5395,-0.5395,-0.5395,-0.5395,-0.5395,-0.5395,-0.5395,-0.5259,-0.5193,-0.4855,-0.4888,-0.5123,-0.5226,-0.5292,-0.5226,-0.5326,-0.5279,-0.5075,-0.4833,-0.4804,-0.4855,-0.4853,-2.3305,-2.2392,-2.1976,-2.1073,-1.9987,-1.9611,-1.9163,-1.8637,-1.85,-1.8247,-1.8076,-1.8008,-1.8008,-1.7988,-1.7891,-1.7686,-1.7432,-1.7275,-1.6973,-1.6602,-1.6424,-1.5946,-1.5527,-1.542,-1.542,-1.542,-1.541,-1.5352,-1.5186,-1.4647,-1.368,-1.2447,-1.175,-1.0871,-0.9701,-0.9344,-0.9184,-0.9078,-0.8905,-0.8831,-0.8805,-0.8798,-0.8778,-0.8778,-0.8804,-0.8778,-0.8778,-0.8778,-0.8725,-0.856,-0.8507,-0.856,-0.8725,-0.8374,-0.8321,-0.856,-0.8454,-0.7937,-0.7616,-0.7857,-0.8049,-0.7777,-0.8207,-0.8752,-0.9266,-0.8848,-0.8256,-0.7535,-0.7326,-0.6985,-0.6498,-0.6985,-0.7177,-0.6817,-0.6883,-0.6724,-0.6009,-0.5719,-0.5624,-0.5428,-0.5395,-0.5395,-0.5395,-0.5395,-0.5395,-0.5395,-0.5395,-0.5395,-0.5395,-0.5395,-0.5395,-0.5395,-0.5395,-0.5395,-0.5395,-0.5395,-0.5395,-0.5395,-0.5395,-0.5392,-0.509,-0.4788,-0.4118,-0.3549,-0.4151,-0.435,-0.4655,-0.4821,-0.5024,-0.5292,-0.5309,-0.5102,-0.5192,-0.5225,-0.5272,-2.2515,-2.1952,-2.1593,-2.0928,-2.0214,-1.999,-1.9629,-1.9114,-1.8744,-1.8481,-1.8237,-1.8086,-1.8008,-1.8008,-1.7998,-1.7881,-1.7666,-1.7646,-1.7402,-1.7021,-1.6755,-1.6328,-1.5791,-1.5547,-1.542,-1.542,-1.542,-1.5167,-1.4864,-1.4392,-1.3536,-1.24,-1.1752,-1.0965,-0.9932,-0.9684,-0.9511,-0.9426,-0.9252,-0.9172,-0.9172,-0.9018,-0.8964,-0.8931,-0.8884,-0.8778,-0.8778,-0.8778,-0.8778,-0.8778,-0.8778,-0.8778,-0.8778,-0.8778,-0.8778,-0.8778,-0.8778,-0.856,-0.8348,-0.8593,-0.8586,-0.8347,-0.8698,-0.9157,-0.9369,-0.8771,-0.7881,-0.7242,-0.6739,-0.6108,-0.5752,-0.6338,-0.6597,-0.6207,-0.6137,-0.5947,-0.5428,-0.5425,-0.5395,-0.5395,-0.5395,-0.5395,-0.5395,-0.5395,-0.5395,-0.5395,-0.5395,-0.5395,-0.5395,-0.5395,-0.5395,-0.5395,-0.5395,-0.5395,-0.5395,-0.5395,-0.5395,-0.5395,-0.5395,-0.5392,-0.4927,-0.4453,-0.368,-0.3147,-0.3347,-0.3616,-0.4018,-0.4453,-0.4788,-0.5057,-0.5259,-0.5395,-0.5395,-0.5395,-0.5474,-2.1876,-2.1783,-2.0934,-2.0615,-2.0527,-2.0156,-1.9941,-1.9746,-1.9114,-1.8715,-1.852,-1.8232,-1.8086,-1.8008,-1.8008,-1.7998,-1.7978,-1.7939,-1.7764,-1.7402,-1.7051,-1.6611,-1.633,-1.5889,-1.5664,-1.5566,-1.5488,-1.5117,-1.4686,-1.4353,-1.3408,-1.2357,-1.1912,-1.1223,-1.0356,-1.007,-0.9967,-0.976,-0.9633,-0.9579,-0.9546,-0.9364,-0.9271,-0.9231,-0.9105,-0.8998,-0.8978,-0.8951,-0.8951,-0.8911,-0.8844,-0.8785,-0.8778,-0.8778,-0.8778,-0.8778,-0.8785,-0.8791,-0.8811,-0.8824,-0.8891,-0.8904,-0.9096,-0.9384,-0.9473,-0.8818,-0.8021,-0.7645,-0.628,-0.5899,-0.5701,-0.5631,-0.5557,-0.5557,-0.5491,-0.5428,-0.5395,-0.5395,-0.5395,-0.5395,-0.5395,-0.5395,-0.5395,-0.5395,-0.5395,-0.5395,-0.5395,-0.5395,-0.5395,-0.5395,-0.5395,-0.5395,-0.5395,-0.5395,-0.5395,-0.5395,-0.5395,-0.5395,-0.5395,-0.5296,-0.4731,-0.4159,-0.3416,-0.2978,-0.2644,-0.2945,-0.358,-0.4018,-0.442,-0.499,-0.5359,-0.5395,-0.5395,-0.5395,-0.544,-2.0895,-2.0857,-2.0673,-2.0615,-2.0595,-2.0498,-2.0234,-1.9902,-1.9727,-1.9192,-1.8715,-1.851,-1.833,-1.8047,-1.8066,-1.8008,-1.8037,-1.8027,-1.7939,-1.7852,-1.7441,-1.7227,-1.7012,-1.6609,-1.6269,-1.6056,-1.5958,-1.5623,-1.5135,-1.4378,-1.3696,-1.2757,-1.1888,-1.1346,-1.0566,-1.0234,-1.01,-0.9993,-0.9826,-0.9769,-0.9769,-0.9653,-0.9579,-0.9559,-0.9492,-0.9486,-0.9521,-0.9499,-0.9499,-0.9392,-0.9098,-0.8871,-0.8791,-0.8811,-0.8838,-0.8871,-0.8851,-0.8918,-0.9078,-0.9136,-0.9207,-0.9432,-0.9526,-0.9713,-0.9884,-0.889,-0.8505,-0.8404,-0.7602,-0.6688,-0.6312,-0.5767,-0.5462,-0.5395,-0.5395,-0.5395,-0.5395,-0.5395,-0.5395,-0.5395,-0.5395,-0.5395,-0.5395,-0.5395,-0.5395,-0.5395,-0.5395,-0.5395,-0.5395,-0.5395,-0.5395,-0.5395,-0.5395,-0.5395,-0.5395,-0.5395,-0.5395,-0.5395,-0.5395,-0.5362,-0.4831,-0.3992,-0.3282,-0.2444,-0.1641,-0.221,-0.308,-0.348,-0.3849,-0.4652,-0.5259,-0.5226,-0.516,-0.5259,-0.544,-2.0615,-2.0615,-2.0615,-2.0615,-2.0615,-2.0605,-2.0468,-2.0205,-1.999,-1.9668,-1.9231,-1.9017,-1.8809,-1.8603,-1.8408,-1.8311,-1.8242,-1.8086,-1.8008,-1.7959,-1.7754,-1.7686,-1.7656,-1.7402,-1.7031,-1.6484,-1.6377,-1.597,-1.5179,-1.4335,-1.3389,-1.2458,-1.1655,-1.1045,-1.0649,-1.0401,-1.0341,-1.0307,-1.0218,-1.0124,-1.0117,-0.9947,-0.9793,-0.9713,-0.9715,-0.9715,-0.9702,-0.9708,-0.9708,-0.9635,-0.942,-0.9078,-0.8925,-0.9065,-0.9198,-0.9212,-0.9214,-0.926,-0.9412,-0.9444,-0.9501,-0.9693,-0.98,-0.9947,-0.984,-0.9081,-0.8717,-0.8816,-0.8338,-0.7639,-0.6791,-0.5899,-0.5495,-0.5395,-0.5395,-0.5395,-0.5395,-0.5395,-0.5395,-0.5395,-0.5395,-0.5395,-0.5395,-0.5594,-0.5495,-0.5528,-0.5458,-0.5458,-0.5395,-0.5395,-0.5395,-0.5395,-0.5395,-0.5395,-0.5395,-0.5395,-0.5395,-0.5395,-0.5395,-0.5395,-0.5199,-0.4187,-0.3147,-0.2377,-0.1742,-0.1876,-0.2611,-0.2945,-0.318,-0.3649,-0.4087,-0.4522,-0.4858,-0.499,-0.5262,-2.0674,-2.0615,-2.0615,-2.0615,-2.0615,-2.0615,-2.0595,-2.0527,-2.0185,-1.9971,-1.9816,-1.9521,-1.9316,-1.9189,-1.8887,-1.8685,-1.8481,-1.8203,-1.8008,-1.7988,-1.7969,-1.793,-1.792,-1.7832,-1.7598,-1.6931,-1.6855,-1.6227,-1.5333,-1.4247,-1.3511,-1.2227,-1.1233,-1.0902,-1.0681,-1.0586,-1.0553,-1.0533,-1.0512,-1.0499,-1.0499,-1.0281,-1.0087,-0.9947,-0.9936,-0.9936,-0.9943,-0.9923,-0.986,-0.9849,-0.9849,-0.9546,-0.9332,-0.9365,-0.9796,-0.9796,-0.9707,-0.966,-0.9726,-0.9751,-0.9764,-0.9797,-1.0033,-1.0167,-1.0001,-0.965,-0.933,-0.918,-0.8996,-0.8576,-0.7265,-0.628,-0.5796,-0.5627,-0.5557,-0.5395,-0.5425,-0.5458,-0.5653,-0.5428,-0.569,-0.5885,-0.5958,-0.6094,-0.583,-0.5627,-0.5591,-0.5491,-0.5425,-0.5395,-0.5395,-0.5395,-0.5395,-0.5395,-0.5395,-0.5412,-0.5409,-0.5409,-0.5405,-0.5409,-0.5409,-0.4791,-0.3816,-0.2711,-0.221,-0.2182,-0.1983,-0.2051,-0.2285,-0.2618,-0.3149,-0.3782,-0.4251,-0.4688,-0.5063,-2.0908,-2.0615,-2.0615,-2.0615,-2.0615,-2.0615,-2.0615,-2.0595,-2.0507,-2.0234,-1.9941,-1.9844,-1.9619,-1.9375,-1.9248,-1.8994,-1.8637,-1.8291,-1.8066,-1.8047,-1.8027,-1.8008,-1.8008,-1.7998,-1.7891,-1.7754,-1.7451,-1.6902,-1.6192,-1.5249,-1.3952,-1.3162,-1.2046,-1.129,-1.078,-1.0593,-1.0633,-1.0633,-1.0606,-1.0586,-1.0566,-1.0519,-1.0452,-1.0358,-1.0338,-1.0358,-1.0392,-1.0419,-1.0445,-1.0452,-1.0445,-1.0358,-1.0151,-0.9909,-0.9997,-1.0184,-0.9999,-0.9879,-0.9997,-1.0032,-1.0194,-1.039,-1.0459,-1.0492,-1.045,-1.035,-1.0098,-1.0136,-1.0079,-0.9792,-0.8964,-0.7311,-0.6564,-0.6317,-0.594,-0.5538,-0.5627,-0.6043,-0.6189,-0.5793,-0.6115,-0.6544,-0.6688,-0.6721,-0.6613,-0.6375,-0.6178,-0.5785,-0.5428,-0.5395,-0.5395,-0.5395,-0.5395,-0.5395,-0.5395,-0.5419,-0.5433,-0.5403,-0.5403,-0.544,-0.5429,-0.5369,-0.4622,-0.343,-0.2381,-0.187,-0.1665,-0.1497,-0.1704,-0.2226,-0.268,-0.3184,-0.3882,-0.4553,-0.4891,-2.1073,-2.0898,-2.0703,-2.0615,-2.0615,-2.0615,-2.0615,-2.0615,-2.0605,-2.0488,-2.0303,-2.0244,-2.0156,-1.9932,-1.9678,-1.9365,-1.8955,-1.849,-1.8315,-1.8276,-1.8135,-1.8008,-1.8008,-1.8008,-1.8008,-1.7949,-1.7773,-1.7438,-1.6854,-1.4917,-1.4179,-1.3583,-1.2405,-1.139,-1.1093,-1.0901,-1.0834,-1.0794,-1.0687,-1.06,-1.0593,-1.0593,-1.0586,-1.0586,-1.0586,-1.0586,-1.0586,-1.0586,-1.0586,-1.0579,-1.0579,-1.0586,-1.0506,-1.0399,-1.0278,-1.0472,-1.0311,-1.0198,-1.0314,-1.0355,-1.0458,-1.0541,-1.0586,-1.0586,-1.0586,-1.0555,-1.0593,-1.06,-1.0561,-1.0244,-0.928,-0.7764,-0.6887,-0.6659,-0.6417,-0.6273,-0.636,-0.7142,-0.7007,-0.6556,-0.6988,-0.7386,-0.7484,-0.748,-0.7396,-0.7158,-0.6806,-0.6197,-0.5526,-0.5436,-0.5457,-0.5463,-0.5487,-0.5539,-0.5542,-0.5552,-0.5484,-0.543,-0.5471,-0.5508,-0.5508,-0.5474,-0.498,-0.4069,-0.3041,-0.2155,-0.172,-0.1698,-0.1759,-0.1919,-0.2451,-0.3073,-0.3806,-0.4384,-0.4758,-2.1395,-2.1278,-2.0879,-2.0742,-2.0723,-2.0635,-2.0615,-2.0615,-2.0615,-2.0595,-2.0615,-2.0595,-2.0586,-2.0478,-2.0107,-1.9707,-1.9375,-1.8965,-1.8695,-1.851,-1.832,-1.8125,-1.8018,-1.8008,-1.8008,-1.7964,-1.7609,-1.7663,-1.7154,-1.5298,-1.4293,-1.3755,-1.2514,-1.1526,-1.137,-1.1162,-1.1096,-1.1009,-1.0914,-1.076,-1.0687,-1.062,-1.0586,-1.0586,-1.0586,-1.0586,-1.0586,-1.0586,-1.0586,-1.0586,-1.0586,-1.0586,-1.0586,-1.0586,-1.0586,-1.0586,-1.0586,-1.0586,-1.0586,-1.0579,-1.0555,-1.0586,-1.0586,-1.0586,-1.0586,-1.06,-1.0626,-1.0648,-1.0755,-1.0413,-0.9518,-0.8254,-0.7494,-0.7205,-0.7355,-0.745,-0.7568,-0.7967,-0.837,-0.8201,-0.8273,-0.82,-0.8196,-0.8474,-0.8405,-0.7637,-0.7275,-0.6397,-0.5799,-0.5573,-0.5545,-0.5576,-0.5576,-0.5667,-0.5698,-0.5711,-0.5615,-0.55,-0.5558,-0.5613,-0.5648,-0.5648,-0.5092,-0.4731,-0.3896,-0.3056,-0.2472,-0.2006,-0.2168,-0.2357,-0.2538,-0.3035,-0.3954,-0.4425,-0.4712,-2.2148,-2.1777,-2.1298,-2.1122,-2.1054,-2.0801,-2.0625,-2.0635,-2.0625,-2.0615,-2.0615,-2.0615,-2.0615,-2.0507,-2.0146,-1.9912,-1.9736,-1.9414,-1.9062,-1.8783,-1.8598,-1.8334,-1.8076,-1.8008,-1.8027,-1.7915,-1.7276,-1.731,-1.7252,-1.6152,-1.518,-1.4519,-1.3444,-1.2303,-1.1978,-1.1867,-1.1342,-1.1397,-1.1391,-1.1276,-1.1047,-1.085,-1.0762,-1.064,-1.0646,-1.0673,-1.07,-1.0707,-1.0687,-1.066,-1.0626,-1.0606,-1.0586,-1.0586,-1.0586,-1.0586,-1.0586,-1.0586,-1.06,-1.0586,-1.0626,-1.0633,-1.0626,-1.06,-1.064,-1.0633,-1.0688,-1.1029,-1.1182,-1.0794,-1.0038,-0.9695,-0.9173,-0.8701,-0.8399,-0.8519,-0.8677,-0.9372,-0.9701,-0.9421,-0.9349,-0.8992,-0.8814,-0.9187,-0.9395,-0.8498,-0.7593,-0.6706,-0.6057,-0.5811,-0.5705,-0.5715,-0.5732,-0.5813,-0.5898,-0.5908,-0.5803,-0.5627,-0.5898,-0.5926,-0.5789,-0.5838,-0.5933,-0.5439,-0.4698,-0.4119,-0.3624,-0.3246,-0.292,-0.2881,-0.3126,-0.3623,-0.4239,-0.4557,-0.4834,-2.2617,-2.2197,-2.1787,-2.1602,-2.1553,-2.1133,-2.0947,-2.0889,-2.0674,-2.0615,-2.0615,-2.0615,-2.0615,-2.0546,-2.038,-2.0293,-2.0185,-1.9834,-1.957,-1.926,-1.9092,-1.8744,-1.8432,-1.8305,-1.8247,-1.7983,-1.7681,-1.7638,-1.7459,-1.6553,-1.5437,-1.5601,-1.4671,-1.4041,-1.3152,-1.3282,-1.3325,-1.3282,-1.3118,-1.2725,-1.2225,-1.1904,-1.1596,-1.1075,-1.1069,-1.1029,-1.1022,-1.1049,-1.1056,-1.1049,-1.1049,-1.0901,-1.0787,-1.0842,-1.1056,-1.1056,-1.1056,-1.0909,-1.066,-1.0613,-1.0693,-1.0807,-1.0841,-1.0874,-1.0822,-1.0754,-1.0873,-1.1411,-1.1732,-1.1237,-1.0242,-1.0055,-0.9469,-0.913,-0.942,-0.9599,-0.9913,-1.0832,-1.1228,-1.0835,-1.0225,-0.9385,-0.8655,-0.8592,-0.8582,-0.8024,-0.7347,-0.6722,-0.6144,-0.5827,-0.582,-0.5911,-0.5935,-0.5973,-0.6057,-0.6108,-0.6022,-0.6002,-0.6708,-0.6603,-0.6129,-0.6057,-0.6271,-0.6269,-0.5695,-0.5176,-0.4765,-0.409,-0.3447,-0.354,-0.3769,-0.4282,-0.4808,-0.4967,-0.5205,-2.2916,-2.2637,-2.2217,-2.2041,-2.1992,-2.1582,-2.1288,-2.1142,-2.0889,-2.0674,-2.0625,-2.0615,-2.0615,-2.0605,-2.0595,-2.0556,-2.0556,-2.0225,-2.0029,-1.9834,-1.958,-1.9199,-1.8916,-1.8769,-1.8652,-1.833,-1.8377,-1.828,-1.7754,-1.7,-1.6491,-1.6532,-1.5029,-1.4672,-1.4569,-1.4022,-1.3575,-1.3587,-1.3408,-1.3025,-1.2565,-1.2417,-1.1968,-1.1601,-1.1423,-1.143,-1.143,-1.1369,-1.1362,-1.1355,-1.1335,-1.1169,-1.0969,-1.1149,-1.147,-1.1503,-1.1496,-1.1202,-1.0962,-1.0901,-1.0935,-1.1015,-1.1102,-1.1129,-1.1142,-1.0922,-1.0784,-1.1246,-1.1951,-1.1283,-1.0367,-1.02,-1.0259,-1.0198,-1.0315,-1.0527,-1.0813,-1.1486,-1.184,-1.1403,-1.0392,-0.865,-0.8029,-0.774,-0.7535,-0.7368,-0.6987,-0.6605,-0.6262,-0.5931,-0.5962,-0.6071,-0.6084,-0.6105,-0.6156,-0.6221,-0.6129,-0.6404,-0.7093,-0.7265,-0.676,-0.6691,-0.6889,-0.6767,-0.637,-0.6047,-0.5502,-0.4732,-0.4069,-0.4455,-0.4823,-0.5024,-0.5316,-0.5443,-0.547,-2.3081,-2.3013,-2.2604,-2.2471,-2.2441,-2.2021,-2.1611,-2.1317,-2.1171,-2.0918,-2.0625,-2.0615,-2.0615,-2.0615,-2.0615,-2.0615,-2.0605,-2.0566,-2.0321,-2.0039,-1.9844,-1.9609,-1.9365,-1.9228,-1.9199,-1.9102,-1.8994,-1.8818,-1.8592,-1.8206,-1.7411,-1.6586,-1.5542,-1.4386,-1.4076,-1.4257,-1.3654,-1.3538,-1.3244,-1.2747,-1.2319,-1.2026,-1.1716,-1.1552,-1.1456,-1.143,-1.1436,-1.151,-1.1543,-1.1543,-1.1557,-1.155,-1.1443,-1.1496,-1.1757,-1.1931,-1.1722,-1.1489,-1.139,-1.1283,-1.1336,-1.1342,-1.1389,-1.147,-1.1496,-1.1436,-1.119,-1.0712,-1.1065,-1.0728,-1.0315,-1.0661,-1.0863,-1.0651,-1.0711,-1.1449,-1.1636,-1.1803,-1.2061,-1.184,-1.0579,-0.8718,-0.7357,-0.707,-0.7151,-0.701,-0.676,-0.6419,-0.6376,-0.6122,-0.619,-0.621,-0.6255,-0.6265,-0.6269,-0.627,-0.6349,-0.6761,-0.7401,-0.7508,-0.7329,-0.7405,-0.7377,-0.6758,-0.63,-0.63,-0.6257,-0.558,-0.526,-0.5635,-0.5818,-0.566,-0.5561,-0.5611,-0.5599,-2.3101,-2.3081,-2.2916,-2.2857,-2.2861,-2.2451,-2.2178,-2.1943,-2.1424,-2.0986,-2.0615,-2.0615,-2.0615,-2.0615,-2.0615,-2.0615,-2.0615,-2.0605,-2.0468,-2.0381,-2.0264,-2.0049,-1.9814,-1.9629,-1.9551,-1.9375,-1.9297,-1.9284,-1.9053,-1.8857,-1.8463,-1.7537,-1.6598,-1.6568,-1.6149,-1.5473,-1.5155,-1.4732,-1.4529,-1.4273,-1.3071,-1.2871,-1.2529,-1.1964,-1.1964,-1.1964,-1.1941,-1.1971,-1.1964,-1.1951,-1.1895,-1.1917,-1.1904,-1.1917,-1.2044,-1.2265,-1.1975,-1.1908,-1.1795,-1.1635,-1.1475,-1.173,-1.1844,-1.1937,-1.1904,-1.1944,-1.1463,-1.0788,-0.9418,-0.8689,-0.8995,-1.0046,-1.0947,-1.064,-1.1027,-1.1977,-1.2305,-1.2305,-1.204,-1.1681,-1.0291,-0.8575,-0.7399,-0.6398,-0.6584,-0.6707,-0.6447,-0.63,-0.63,-0.63,-0.63,-0.63,-0.63,-0.63,-0.63,-0.6423,-0.6614,-0.7129,-0.7673,-0.7634,-0.7603,-0.7664,-0.7498,-0.6791,-0.63,-0.63,-0.63,-0.63,-0.62,-0.6098,-0.5973,-0.5885,-0.5834,-0.5666,-0.5503,-2.3101,-2.3101,-2.3101,-2.3101,-2.3052,-2.2822,-2.2627,-2.2422,-2.1853,-2.1279,-2.0762,-2.0693,-2.0615,-2.0615,-2.0615,-2.0615,-2.0615,-2.0615,-2.0615,-2.0586,-2.0527,-2.041,-2.0195,-2.0068,-1.999,-1.9697,-1.9648,-1.9705,-1.9463,-1.9124,-1.8913,-1.8699,-1.8393,-1.7927,-1.7285,-1.7226,-1.6724,-1.5974,-1.5579,-1.5005,-1.3411,-1.3142,-1.299,-1.2295,-1.2245,-1.2245,-1.2231,-1.2218,-1.2238,-1.2245,-1.2251,-1.2278,-1.2291,-1.2305,-1.2305,-1.2305,-1.2305,-1.2305,-1.2178,-1.2011,-1.1784,-1.1991,-1.2131,-1.2245,-1.2305,-1.2268,-1.1686,-1.0185,-0.8042,-0.6824,-0.8003,-0.9926,-1.1106,-1.1052,-1.1526,-1.2305,-1.2305,-1.2268,-1.1855,-1.1434,-0.997,-0.8689,-0.774,-0.6714,-0.6374,-0.6528,-0.6412,-0.63,-0.63,-0.63,-0.63,-0.63,-0.63,-0.63,-0.6296,-0.6391,-0.657,-0.731,-0.7706,-0.7723,-0.7702,-0.7732,-0.7403,-0.6641,-0.63,-0.63,-0.63,-0.63,-0.6265,-0.6176,-0.587,-0.5368,-0.4986,-0.4759,-0.4893,-2.3101,-2.3101,-2.3101,-2.3101,-2.3101,-2.3081,-2.2891,-2.2588,-2.2422,-2.1943,-2.1171,-2.083,-2.0664,-2.0664,-2.0664,-2.0615,-2.0615,-2.0615,-2.0615,-2.0615,-2.0605,-2.0566,-2.0546,-2.0488,-2.041,-2.0556,-2.041,-2.0165,-1.9912,-1.9717,-1.9541,-1.9165,-1.8624,-1.7935,-1.6691,-1.5799,-1.4843,-1.4034,-1.4171,-1.3593,-1.2952,-1.2659,-1.2415,-1.2342,-1.2305,-1.2305,-1.2305,-1.2305,-1.2305,-1.2305,-1.2305,-1.2305,-1.2305,-1.2305,-1.2305,-1.2305,-1.2305,-1.2305,-1.2291,-1.2265,-1.2231,-1.2211,-1.2285,-1.2298,-1.2305,-1.215,-1.1508,-0.9836,-0.7595,-0.7373,-0.8651,-0.9976,-1.0628,-1.1428,-1.1859,-1.2194,-1.2194,-1.2268,-1.1892,-1.1211,-1.0083,-0.8955,-0.808,-0.7207,-0.6525,-0.6335,-0.63,-0.63,-0.63,-0.63,-0.63,-0.63,-0.63,-0.63,-0.63,-0.63,-0.6606,-0.735,-0.7688,-0.754,-0.7528,-0.7514,-0.7061,-0.6412,-0.63,-0.63,-0.63,-0.63,-0.6108,-0.5794,-0.5041,-0.4499,-0.4128,-0.3949,-0.4176,-2.3101,-2.3101,-2.3101,-2.3101,-2.3101,-2.3101,-2.3003,-2.2857,-2.2627,-2.2187,-2.166,-2.1201,-2.1006,-2.0937,-2.0713,-2.0635,-2.0625,-2.0615,-2.0615,-2.0615,-2.0615,-2.0605,-2.0615,-2.0615,-2.0615,-2.0615,-2.0586,-2.0556,-2.038,-2.0127,-1.9912,-1.9545,-1.8781,-1.7917,-1.7587,-1.7079,-1.662,-1.5685,-1.5084,-1.4271,-1.3273,-1.2629,-1.2305,-1.2305,-1.2305,-1.2305,-1.2305,-1.2305,-1.2305,-1.2305,-1.2305,-1.2305,-1.2305,-1.2305,-1.2305,-1.2305,-1.2305,-1.2305,-1.2305,-1.2291,-1.2298,-1.2305,-1.2305,-1.2305,-1.2305,-1.2305,-1.1174,-0.948,-0.7518,-0.7403,-0.81,-0.8494,-0.9233,-1.0687,-1.1329,-1.1755,-1.1922,-1.215,-1.2003,-1.1019,-0.9927,-0.8461,-0.7365,-0.7019,-0.6486,-0.63,-0.63,-0.63,-0.63,-0.63,-0.63,-0.63,-0.63,-0.63,-0.63,-0.63,-0.6402,-0.6973,-0.7173,-0.7053,-0.7092,-0.7099,-0.6872,-0.6296,-0.63,-0.6296,-0.6103,-0.5941,-0.5693,-0.5281,-0.4397,-0.4035,-0.3931,-0.3747,-0.3724,-2.3101,-2.3101,-2.3101,-2.3101,-2.3101,-2.3101,-2.3101,-2.3023,-2.2652,-2.2344,-2.2051,-2.166,-2.1455,-2.1328,-2.1025,-2.0791,-2.0781,-2.0664,-2.0615,-2.0615,-2.0615,-2.0615,-2.0615,-2.0615,-2.0615,-2.0615,-2.0615,-2.0595,-2.0556,-2.0283,-2.0068,-1.9666,-1.8911,-1.8376,-1.7924,-1.7283,-1.6457,-1.5452,-1.4656,-1.3991,-1.3164,-1.2629,-1.2305,-1.2305,-1.2305,-1.2305,-1.2305,-1.2305,-1.2305,-1.2305,-1.2305,-1.2305,-1.2305,-1.2305,-1.2305,-1.2305,-1.2305,-1.2305,-1.2305,-1.2305,-1.2305,-1.2305,-1.2305,-1.2305,-1.2305,-1.2305,-1.1434,-0.9814,-0.7663,-0.777,-0.8324,-0.8418,-0.9006,-1.0502,-1.1335,-1.1798,-1.1996,-1.2231,-1.215,-1.113,-0.989,-0.8309,-0.6795,-0.6606,-0.6296,-0.63,-0.63,-0.63,-0.63,-0.63,-0.63,-0.63,-0.63,-0.63,-0.63,-0.63,-0.6437,-0.6681,-0.6535,-0.6356,-0.6321,-0.6244,-0.6212,-0.6257,-0.618,-0.6064,-0.5747,-0.5509,-0.5029,-0.4404,-0.3571,-0.3455,-0.3636,-0.3232,-0.275,-2.3101,-2.3101,-2.3101,-2.3101,-2.3101,-2.3101,-2.3101,-2.3052,-2.2682,-2.2549,-2.25,-2.209,-2.1904,-2.1816,-2.1445,-2.126,-2.1162,-2.083,-2.0713,-2.0654,-2.0654,-2.0635,-2.0615,-2.0615,-2.0615,-2.0615,-2.0615,-2.0605,-2.0595,-2.0517,-2.0273,-1.9945,-1.9316,-1.8553,-1.7587,-1.635,-1.5519,-1.4983,-1.4481,-1.3844,-1.3221,-1.2638,-1.2452,-1.2432,-1.2398,-1.2358,-1.2331,-1.2305,-1.2305,-1.2305,-1.2305,-1.2305,-1.2305,-1.2305,-1.2305,-1.2305,-1.2305,-1.2305,-1.2305,-1.2305,-1.2305,-1.2305,-1.2305,-1.2305,-1.2305,-1.2231,-1.1471,-1.0153,-0.8342,-0.9016,-0.9578,-0.9583,-0.9626,-1.0734,-1.1712,-1.2027,-1.2187,-1.2231,-1.2194,-1.1397,-1.0164,-0.8618,-0.6868,-0.63,-0.63,-0.63,-0.63,-0.63,-0.63,-0.63,-0.63,-0.63,-0.63,-0.63,-0.6257,-0.606,-0.578,-0.5758,-0.5571,-0.5425,-0.5428,-0.5309,-0.5196,-0.5315,-0.5828,-0.5709,-0.496,-0.4491,-0.4139,-0.3439,-0.2698,-0.2542,-0.2621,-0.1566,-0.1171,-2.3101,-2.3101,-2.3101,-2.3101,-2.3101,-2.3101,-2.3101,-2.3071,-2.2945,-2.2916,-2.2886,-2.2519,-2.2334,-2.2295,-2.1885,-2.1738,-2.1533,-2.1299,-2.1073,-2.0967,-2.0762,-2.0674,-2.0615,-2.0625,-2.0615,-2.0566,-2.0566,-2.045,-2.0566,-2.0566,-2.0508,-2.0323,-1.9075,-1.8075,-1.6928,-1.5336,-1.5109,-1.4866,-1.4448,-1.3986,-1.3543,-1.3129,-1.2894,-1.2672,-1.2663,-1.2552,-1.2425,-1.2378,-1.2365,-1.2325,-1.2318,-1.2311,-1.2305,-1.2305,-1.2305,-1.2305,-1.2305,-1.2305,-1.2305,-1.2305,-1.2305,-1.2305,-1.2305,-1.2305,-1.2305,-1.2114,-1.1545,-1.0142,-0.8756,-0.8908,-0.9205,-0.9362,-0.9916,-1.0989,-1.1705,-1.1842,-1.1885,-1.1737,-1.1663,-1.1062,-0.9825,-0.8585,-0.6872,-0.63,-0.63,-0.63,-0.63,-0.63,-0.63,-0.63,-0.63,-0.63,-0.63,-0.63,-0.5825,-0.5589,-0.5118,-0.4761,-0.4608,-0.4336,-0.4025,-0.3947,-0.4023,-0.4256,-0.4611,-0.4334,-0.3707,-0.3357,-0.3205,-0.2543,-0.188,-0.1723,-0.1411,-0.0628,-0.0627,-2.3101,-2.3101,-2.3101,-2.3101,-2.3101,-2.3101,-2.3101,-2.3101,-2.3101,-2.3101,-2.3062,-2.2828,-2.2711,-2.2652,-2.2344,-2.2119,-2.209,-2.1709,-2.1494,-2.1387,-2.1025,-2.0928,-2.082,-2.0703,-2.0615,-2.0527,-2.0206,-1.9844,-1.9962,-1.9962,-1.9913,-1.9777,-1.8359,-1.7827,-1.696,-1.5741,-1.4925,-1.4725,-1.4464,-1.4159,-1.3838,-1.3543,-1.319,-1.2986,-1.2971,-1.2799,-1.2672,-1.2632,-1.2599,-1.2545,-1.2583,-1.2512,-1.2418,-1.2305,-1.2305,-1.2305,-1.2305,-1.2305,-1.2305,-1.2305,-1.2305,-1.2305,-1.2305,-1.2305,-1.2305,-1.2194,-1.1372,-1.0258,-0.9049,-0.8232,-0.8499,-0.8908,-1.005,-1.1224,-1.136,-1.1496,-1.1316,-1.1087,-1.0757,-1.0308,-0.9372,-0.8246,-0.7296,-0.6683,-0.63,-0.63,-0.63,-0.63,-0.63,-0.63,-0.63,-0.63,-0.63,-0.6257,-0.5747,-0.5196,-0.4569,-0.4137,-0.3787,-0.3437,-0.2856,-0.2893,-0.332,-0.3359,-0.3318,-0.2968,-0.2618,-0.2462,-0.2229,0.0,0.0,0.0,0.0,-0.0431,-0.0979,-2.3101,-2.3101,-2.3101,-2.3101,-2.3101,-2.3101,-2.3101,-2.3101,-2.3101,-2.3101,-2.3091,-2.3091,-2.3052,-2.2935,-2.2695,-2.2568,-2.2441,-2.2129,-2.1924,-2.1946,-2.1484,-2.1299,-2.1152,-2.0879,-2.0781,-2.0351,-1.9736,-1.9195,-1.8917,-1.8877,-1.8838,-1.8886,-1.843,-1.7738,-1.6748,-1.5666,-1.4842,-1.4317,-1.4007,-1.3654,-1.3534,-1.3353,-1.3267,-1.3253,-1.324,-1.32,-1.318,-1.314,-1.3086,-1.3025,-1.2951,-1.2852,-1.2498,-1.2452,-1.2445,-1.2458,-1.2518,-1.2452,-1.2438,-1.2418,-1.2345,-1.2331,-1.2305,-1.2305,-1.2305,-1.2305,-1.1557,-1.0487,-0.9271,-0.8851,-0.9008,-0.948,-1.0392,-1.1242,-1.1625,-1.1681,-1.1576,-1.0975,-1.004,-0.955,-0.8761,-0.7706,-0.6953,-0.63,-0.63,-0.63,-0.63,-0.63,-0.63,-0.63,-0.63,-0.63,-0.63,-0.6219,-0.5867,-0.5198,-0.4139,-0.3554,-0.3046,-0.2345,-0.1644,-0.2034,-0.2734,-0.2384,-0.1956,-0.1917,-0.1683,0.0,0.0,0.0,0.0,0.0,0.0,0.0,-0.1096,-2.3101,-2.3101,-2.3101,-2.3101,-2.3101,-2.3101,-2.3101,-2.3101,-2.3101,-2.3101,-2.3101,-2.3101,-2.3101,-2.3052,-2.2974,-2.2886,-2.2808,-2.2559,-2.2393,-2.2227,-2.1924,-2.1738,-2.1641,-2.1299,-2.1094,-2.059,-1.9792,-1.847,-1.7859,-1.7698,-1.7658,-1.7577,-1.7204,-1.6519,-1.6232,-1.5179,-1.444,-1.4062,-1.3935,-1.3774,-1.3781,-1.3808,-1.3808,-1.3641,-1.3493,-1.3387,-1.336,-1.324,-1.3193,-1.314,-1.316,-1.2872,-1.2365,-1.2759,-1.2959,-1.2993,-1.2953,-1.2806,-1.2692,-1.2663,-1.2552,-1.2385,-1.2325,-1.2311,-1.2305,-1.2305,-1.1768,-1.0659,-0.9991,-0.9722,-0.962,-1.0121,-1.0634,-1.1298,-1.1853,-1.1829,-1.1805,-1.0565,-0.9399,-0.8642,-0.7957,-0.7357,-0.6602,-0.63,-0.63,-0.63,-0.63,-0.63,-0.63,-0.63,-0.63,-0.63,-0.63,-0.618,-0.5789,-0.4924,-0.375,-0.2657,-0.1955,-0.1214,0.0,0.0,0.0,0.0,-0.0549,0.0,0.0,0.0,0.0,0.0,0.0,0.0,0.0,0.0,0.0,-2.3101,-2.3101,-2.3101,-2.3101,-2.3101,-2.3101,-2.3101,-2.3101,-2.3101,-2.3101,-2.3101,-2.3101,-2.3101,-2.3101,-2.3101,-2.3101,-2.3062,-2.2867,-2.2769,-2.2666,-2.2402,-2.2217,-2.1982,-2.1728,-2.1356,-2.0861,-1.9044,-1.7698,-1.6846,-1.6601,-1.656,-1.6478,-1.5861,-1.5621,-1.5496,-1.4692,-1.4088,-1.4088,-1.4088,-1.4088,-1.4088,-1.4055,-1.4035,-1.3861,-1.3801,-1.3707,-1.3694,-1.3587,-1.3514,-1.3387,-1.3253,-1.338,-1.3106,-1.3173,-1.3347,-1.342,-1.336,-1.314,-1.3013,-1.2951,-1.2844,-1.265,-1.2536,-1.2583,-1.2311,-1.2261,-1.181,-1.0896,-1.1187,-1.1037,-1.0398,-1.0562,-1.1106,-1.1712,-1.1835,-1.1805,-1.0832,-0.9442,-0.8309,-0.7361,-0.713,-0.7357,-0.6718,-0.63,-0.63,-0.63,-0.63,-0.63,-0.63,-0.63,-0.63,-0.63,-0.63,-0.5825,-0.5237,-0.4297,-0.3164,-0.2072,-0.1175,0.0,0.0,0.0,0.0,0.0,0.0,0.0,0.0,0.0,0.0,0.0,0.0,0.0,0.0,0.0,0.0,-2.3101,-2.3101,-2.3101,-2.3101,-2.3101,-2.3101,-2.3101,-2.3101,-2.3101,-2.3101,-2.3101,-2.3101,-2.3101,-2.3101,-2.3101,-2.3101,-2.3071,-2.3013,-2.3033,-2.2955,-2.2744,-2.2627,-2.2441,-2.2168,-2.1554,-2.0483,-1.8922,-1.7261,-1.5944,-1.5902,-1.5861,-1.5621,-1.5496,-1.5462,-1.5213,-1.4734,-1.4088,-1.4088,-1.4088,-1.4088,-1.4088,-1.4088,-1.4068,-1.4075,-1.4088,-1.4088,-1.4082,-1.4035,-1.3908,-1.3761,-1.354,-1.3634,-1.3674,-1.3607,-1.3694,-1.3774,-1.3647,-1.3427,-1.328,-1.3253,-1.3073,-1.2938,-1.2871,-1.2737,-1.2492,-1.2146,-1.1731,-1.1813,-1.2112,-1.1981,-1.1341,-1.1186,-1.1707,-1.1893,-1.1869,-1.1496,-1.0019,-0.8585,-0.7522,-0.6454,-0.6602,-0.7019,-0.6791,-0.6374,-0.63,-0.63,-0.63,-0.63,-0.63,-0.63,-0.63,-0.63,-0.63,-0.5705,-0.5118,-0.3943,-0.2851,-0.215,0.0,0.0,0.0,0.0,0.0,0.0,0.0,0.0,0.0,0.0,0.0,0.0,0.0,0.0,0.0,0.0,0.0,-2.3101,-2.3101,-2.3101,-2.3101,-2.3101,-2.3101,-2.3101,-2.3101,-2.3101,-2.3101,-2.3101,-2.3101,-2.3101,-2.3101,-2.3101,-2.3101,-2.3101,-2.3101,-2.3101,-2.3033,-2.2945,-2.2945,-2.2799,-2.2409,-2.1345,-2.031,-1.9285,-1.7952,-1.6757,-1.6084,-1.5269,-1.4727,-1.4573,-1.4531,-1.4412,-1.4088,-1.4088,-1.4088,-1.4088,-1.4088,-1.4088,-1.4088,-1.4088,-1.4088,-1.4088,-1.4088,-1.4088,-1.4088,-1.4055,-1.3995,-1.3921,-1.3961,-1.3955,-1.3935,-1.3975,-1.3975,-1.3848,-1.3741,-1.3621,-1.3567,-1.3394,-1.3166,-1.3106,-1.308,-1.2826,-1.2538,-1.2339,-1.2464,-1.2636,-1.2576,-1.2202,-1.2221,-1.2551,-1.2207,-1.203,-1.0924,-0.9613,-0.8502,-0.747,-0.6771,-0.6374,-0.6563,-0.6525,-0.63,-0.63,-0.63,-0.63,-0.63,-0.63,-0.63,-0.63,-0.63,-0.63,-0.6257,-0.5944,-0.4059,-0.289,-0.2189,0.0,0.0,0.0,0.0,0.0,0.0,0.0,0.0,0.0,0.0,0.0,0.0,0.0,0.0,0.0,0.0,0.0]},{"header":{"parameterUnit":"m.s-1","parameterCategory":1,"la1":31.0,"la2":29.5877,"lo1":-88.7671,"lo2":-86.6584,"dy":0.0162,"dx":0.0185,"nx":115,"ny":88,"refTime":"2024-08-25T12:00:00:Z","depth":0,"parameterNumber":3,"parameterNumberName":"V-component_of_WINDS"},"data":[0.0,0.0,0.0,0.0,0.0,0.0,0.0,0.0,0.0,0.0,0.0,0.0,0.0,0.0,0.0,0.0,0.0,0.0,0.0,0.0,0.0,0.0,0.0,0.0,0.0,0.0,0.0,0.0,0.0,0.0,0.0,0.0,0.0,0.0,0.0,0.0,0.0,0.0,0.0,0.0,0.0,0.0,0.0,0.0,0.0,0.0,0.0,0.0,0.0,0.0,0.0,0.0,0.0,0.0,0.0,0.0,0.0,0.0,0.0,0.0,0.0,0.0,0.0,0.0,0.0,0.0,0.0,0.0,0.0,0.0,0.0,0.0,0.0,0.0,0.0,0.0,0.0,0.0,0.0,0.0,0.0,0.0,0.0,0.0,0.0,0.0,0.0,0.0,0.0,0.0,0.0,0.0,0.0,0.0,0.0,0.0,0.0,0.0,0.0,0.0,0.0,0.0,0.0,0.0,0.0,0.0,0.0,0.0,0.0,0.0,0.0,0.0,0.0,0.0,0.0,0.0,0.0,0.0,0.0,0.0,0.0,0.0,0.0,0.0,0.0,0.0,0.0,0.0,0.0,0.0,0.0,0.0,0.0,0.0,0.0,0.0,0.0,0.0,0.0,0.0,0.0,0.0,0.0,0.0,0.0,0.0,0.0,0.0,0.0,0.0,0.0,0.0,0.0,0.0,0.0,0.0,0.0,0.0,0.0,0.0,0.0,0.0,0.0,0.0,0.0,0.0,0.0,0.0,0.0,0.0,0.0,0.0,0.0,0.0,0.0,0.0,0.0,0.0,0.0,0.0,0.0,0.0,0.0,0.0,0.0,0.0,0.0,0.0,0.0,0.0,0.0,0.0,0.0,0.0,0.0,0.0,0.0,0.0,0.0,0.0,0.0,0.0,0.0,0.0,0.0,0.0,0.0,0.0,0.0,0.0,0.0,0.0,0.0,0.0,0.0,0.0,0.0,0.0,0.0,0.0,0.0,0.0,0.0,0.0,0.0,0.0,0.0,0.0,0.0,0.0,0.0,0.0,0.0,0.0,0.0,0.0,0.0,0.0,0.0,0.0,0.0,0.0,0.0,0.0,0.0,0.0,0.0,0.0,0.0,0.0,0.0,0.0,0.0,0.0,0.0,0.0,0.0,0.0,0.0,0.0,0.0,0.0,0.0,0.0,0.0,0.0,0.0,0.0,0.0,0.0,0.0,0.0,0.0,0.0,0.0,0.0,0.0,0.0,0.0,0.0,0.0,0.0,0.0,0.0,0.0,0.0,0.0,0.0,0.0,0.0,0.0,0.0,0.0,0.0,0.0,0.0,0.0,0.0,0.0,0.0,0.0,0.0,0.0,0.0,0.0,0.0,0.0,0.0,0.0,0.0,0.0,0.0,0.0,0.0,0.0,0.0,0.0,0.0,0.0,0.0,0.0,0.0,0.0,0.0,0.0,0.0,0.0,0.0,0.0,0.0,0.0,0.0,0.0,0.0,0.0,0.0,0.0,0.0,0.0,0.0,0.0,0.0,0.0,0.0,0.0,0.0,0.0,0.0,0.0,0.0,0.0,0.0,0.0,0.0,0.0,0.0,0.0,0.0,0.0,0.0,0.0,0.0,0.0,0.0,0.0,0.0,0.0,0.0,0.0,0.0,0.0,0.0,0.0,0.0,0.0,0.0,0.0,0.0,0.0,0.0,0.0,0.0,0.0,0.0,0.0,0.0,0.0,0.0,0.0,0.0,0.0,0.0,0.0,0.0,0.0,0.0,0.0,0.0,0.0,0.0,0.0,0.0,0.0,0.0,0.0,0.0,0.0,0.0,0.0,0.0,0.0,0.0,0.0,0.0,0.0,0.0,0.0,0.0,0.0,0.0,0.0,0.0,0.0,0.0,0.0,0.0,0.0,0.0,0.0,0.0,0.0,0.0,0.0,0.0,0.0,0.0,0.0,0.0,0.0,0.0,0.0,0.0,0.0,0.0,0.0,0.0,0.0,0.0,0.0,0.0,0.0,0.0,0.0,0.0,0.0,0.0,0.0,0.0,0.0,0.0,0.0,0.0,0.0,0.0,0.0,0.0,0.0,0.0,0.0,0.0,0.0,0.0,0.0,0.0,0.0,0.0,0.0,0.0,0.0,0.0,0.0,0.0,0.0,0.0,0.0,0.0,0.0,0.0,0.0,0.0,0.0,0.0,0.0,0.0,0.0,0.0,0.0,0.0,0.0,0.0,0.0,0.0,0.0,0.0,0.0,0.0,0.0,0.0,0.0,0.0,0.0,0.0,0.0,0.0,0.0,0.0,0.0,0.0,0.0,0.0,0.0,0.0,0.0,0.0,0.0,0.0,0.0,0.0,0.0,0.0,0.0,0.0,0.0,0.0,0.0,0.0,0.0,0.0,0.0,0.0,0.0,0.0,0.0,0.0,0.0,0.0,0.0,0.0,0.0,0.0,0.0,0.0,0.0,0.0,0.0,0.0,0.0,0.0,0.0,0.0,0.0,0.0,0.0,0.0,0.0,0.0,0.0,0.0,0.0,0.0,0.0,0.0,0.0,0.0,0.0,0.0,0.0,0.0,0.0,0.0,0.0,0.0,0.0,0.0,0.0,0.0,0.0,0.0,0.0,0.0,0.0,0.0,0.0,0.0,0.0,0.0,0.0,0.0,0.0,0.0,0.0,0.0,0.0,0.0,0.0,0.0,0.0,0.0,0.0,0.0,0.0,0.0,0.0,0.0,0.0,0.0,0.0,0.0,0.0,0.0,0.0,0.0,0.0,0.0,0.0,0.0,0.0,0.0,0.0,0.0,0.0,0.0,0.0,0.0,0.0,0.0,0.0,0.0,0.0,0.0,0.0,0.0,0.0,0.0,0.0,0.0,0.0,0.0,0.0,0.0,0.0,0.0,0.0,0.0,0.0,0.0,0.0,0.0,0.0,0.0,0.0,0.0,0.0,0.0,0.0,0.0,0.0,0.0,0.0,0.0,0.0,0.0,0.0,0.0,0.0,0.0,0.0,0.0,0.0,0.0,0.0,0.0,0.0,0.0,0.0,0.0,0.0,0.0,0.0,0.0,0.0,0.0,0.0,0.0,0.0,0.0,0.0,0.0,0.0,0.0,0.0,0.0,0.0,0.0,0.0,0.0,0.0,0.0,0.0,0.0,0.0,0.0,0.0,0.0,0.0,0.0,0.0,0.0,0.0,0.0,0.0,0.0,0.0,0.0,0.0,0.0,0.0,0.0,0.0,0.0,0.0,0.0,0.0,0.0,0.0,0.0,0.0,0.0,0.0,0.0,0.0,0.0,0.0,0.0,0.0,0.0,0.0,0.0,0.0,0.0,0.0,0.0,0.0,0.0,0.0,0.0,0.0,0.0,0.0,0.0,0.0,0.0,0.0,0.0,0.0,0.0,0.0,0.0,0.0,0.0,0.0,0.0,0.0,0.0,0.0,0.0,0.0,0.0,0.0,0.0,0.0,0.0,0.0,0.0,0.0,0.0,0.0,0.0,0.0,0.0,0.0,0.0,0.0,0.0,0.0,0.0,0.0,0.0,0.0,0.0,0.0,0.0,0.0,0.0,0.0,0.0,0.0,0.0,0.0,0.0,0.0,0.0,0.0,0.0,0.0,0.0,0.0,0.0,0.0,0.0,0.0,0.0,0.0,0.0,0.0,0.0,0.0,0.0,0.0,0.0,0.0,0.0,0.0,0.0,0.0,0.0,0.0,0.0,0.0,0.0,0.0,0.0,0.0,0.0,0.0,0.0,0.0,0.0,0.0,0.0,0.0,0.0,0.0,0.0,0.0,0.0,0.0,0.0,0.0,0.0,0.0,0.0,0.0,0.0,0.0,0.0,0.0,0.0,0.0,0.0,0.0,0.0,0.0,0.0,0.0,0.0,0.0,0.0,0.0,0.0,0.0,0.0,0.0,0.0,0.0,0.0,0.0,0.0,0.0,0.0,0.0,0.0,0.0,0.0,0.0,0.0,0.0,0.0,0.0,0.0,0.0,0.0,0.0,0.0,0.0,0.0,0.0,0.0,0.0,0.0,0.0,0.0,0.0,0.0,0.0,0.0,0.0,0.0,0.0,0.0,0.0,0.0,0.0,0.0,0.0,0.0,0.0,0.0,0.0,0.0,0.0,0.0,0.0,0.0,0.0,0.0,0.0,0.0,0.0,0.0,0.0,0.0,0.0,0.0,0.0,0.0,0.0,0.0,0.0,0.0,0.0,0.0,0.0,0.0,0.0,0.0,0.0,0.0,0.0,0.0,0.0,0.0,0.0,0.0,0.0,0.0,0.8202,0.0,0.0,0.0,0.0,0.0,0.0,0.0,0.0,0.0,0.0,0.0,0.0,0.0,0.0,0.0,0.0,0.0,0.0,0.0,0.0,0.0,0.0,0.0,0.0,0.0,0.0,0.0,0.0,0.0,0.0,0.0,0.0,0.0,0.0,0.0,0.0,0.0,0.0,0.0,0.0,0.0,0.0,0.0,0.0,0.0,0.0,0.0,0.0,0.0,0.0,0.0,0.0,0.0,0.0,0.0,0.0,0.0,0.0,0.0,0.0,0.0,0.0,0.0,0.0,0.0,0.0,0.0,0.0,0.0,0.0,0.0,0.0,0.0,0.0,0.0,0.0,0.0,0.0,0.0,0.0,0.0,0.0,0.0,0.0,0.0,0.0,0.0,0.0,0.0,0.0,0.0,0.0,0.0,0.0,0.0,0.0,0.0,0.0,0.0,0.0,0.0,0.0,0.0,0.0,0.0,0.0,0.0,0.0,0.0,0.0,0.1238,0.3702,0.5016,0.6589,0.8465,0.0,0.0,0.0,0.0,0.0,0.0,0.0,0.0,0.0,0.0,0.0,0.0,0.0,0.0,0.0,0.0,0.0,0.0,0.0,0.0,0.0,0.0,0.0,0.0,0.0,0.0,0.0,0.0,0.0,0.0,0.0,0.0,0.0,0.0,0.0,0.0,0.0,0.0,0.0,0.0,0.0,0.0,0.0,0.0,0.0,0.0,0.0,0.0,0.0,0.0,0.0,0.0,0.0,0.0,0.0,0.0,0.0,0.0,0.0,0.0,0.0,0.0,0.0,0.0,0.0,0.0,0.0,0.0,0.0,0.0,0.0,0.0,0.0,0.0,0.0,0.0,0.0,0.0,0.0,0.0,0.0,0.0,0.0,0.0,0.0,0.0,0.0,0.0,0.0,0.0,0.0,0.0,0.0,0.0,0.0,0.0,0.0,0.0,0.0,0.0,0.0,0.0,0.0,0.0,0.0,0.0,0.0,0.0,0.0,0.0,0.0,0.0,0.6109,0.7559,0.9418,0.0,0.0,0.0,0.0,0.0,0.0,0.0,0.0,0.0,0.0,0.0,0.0,0.0,0.0,0.0,0.0,0.0,0.0,0.0,0.0,0.0,0.0,0.0,0.0,0.0,0.0,0.0,0.0,0.0,0.0,0.0,0.0,0.0,0.0,0.0,0.0,0.0,0.0,0.0,0.0,0.0,0.0,0.0,0.0,0.0,0.0,0.0,0.0,0.0,0.0,0.0,0.0,0.0,0.0,0.0,0.0,0.0,0.0,0.0,0.0,0.0,0.0,0.0,0.0,0.0,0.0,0.0,0.0,0.0,0.0,0.0,0.0,0.0,0.0,0.0,0.0,0.0,0.0,0.0,0.0,0.0,0.0,0.0,0.0,0.0,0.0,0.0,0.0,0.0,0.0,0.0,0.0,0.0,0.0,0.0,0.0,0.0,0.0,0.0,0.0,0.0,0.0,0.0,0.0,0.0,0.0,0.0,0.0,0.0,0.0,0.2328,0.5516,0.7637,0.0,1.1715,0.0,0.0,0.0,0.0,0.0,0.0,0.0,0.0,0.0,0.0,0.0,0.0,0.0,0.0,0.0,0.0,0.0,0.0,0.0,0.0,0.0,0.0,0.0,0.0,0.0,0.0,0.0,0.0,0.0,0.0,0.0,0.0,0.0,0.0,0.0,0.0,0.0,0.0,0.0,0.0,0.0,0.0,0.0,0.0,0.0,0.0,0.0,0.0,0.0,0.0,0.0,0.0,0.0,0.0,0.0,0.0,0.0,0.0,0.0,0.0,0.0,0.0,0.0,0.0,0.0,0.0,0.0,0.0,0.0,0.0,0.0,0.0,0.0,0.0,0.0,0.0,0.0,0.0,0.0,0.0,0.0,0.0,0.0,0.0,0.0,0.0,0.0,0.0,0.0,0.0,0.0,0.0,0.0,0.0,0.0,0.0,0.0,0.0,0.0,0.0,0.0,0.0,0.0,0.0,0.0,0.0,0.0,0.0,0.0,0.0,0.0,0.6514,0.8535,1.0214,0.0,0.0,0.0,0.0,0.0,0.0,0.0,0.0,0.0,0.0,0.0,0.0,0.0,0.0,0.0,0.0,0.0,0.0,0.0,0.0,0.0,0.0,0.0,0.0,0.0,0.0,0.0,0.0,0.0,0.0,0.0,0.0,0.0,0.0,0.0,0.0,0.0,0.0,0.0,0.0,0.0,0.0,0.0,0.0,0.0,0.0,0.0,0.0,0.0,0.0,0.0,0.0,0.0,0.0,0.0,0.0,0.0,0.0,0.0,0.0,0.0,0.0,0.0,0.0,0.0,0.0,0.0,0.0,0.0,0.0,0.0,0.0,0.0,0.0,0.0,0.0,0.0,0.0,0.0,0.0,0.0,0.0,0.0,0.0,0.0,0.0,0.0,0.0,0.0,0.0,0.0,0.0,0.0,0.0,0.0,0.0,0.0,0.0,0.0,0.0,0.0,0.0,0.0,0.0,0.0,0.0,0.0,0.0,0.0,0.0,0.1755,0.0,0.8011,0.9805,1.0882,1.1295,0.0,0.0,0.0,0.0,0.0,0.0,0.0,0.0,0.0,0.0,0.0,0.0,0.0,0.0,0.0,0.0,0.0,0.0,0.0,0.0,0.0,0.0,0.0,0.0,0.0,0.0,0.0,0.0,0.0,0.0,0.0,0.0,0.0,0.0,0.0,0.0,0.0,0.0,0.0,0.0,0.0,0.0,0.0,0.0,0.0,0.0,0.0,0.0,0.0,0.0,0.0,0.0,0.0,0.0,0.0,0.0,0.0,0.0,0.0,0.0,0.0,0.0,0.0,0.0,0.0,0.0,0.0,0.0,0.0,0.0,0.0,0.0,0.0,0.0,0.0,0.0,0.0,0.0,0.0,0.0,0.0,0.0,0.0,0.0,0.0,0.0,0.0,0.0,0.0,0.0,0.0,0.0,0.0,0.0,0.0,0.0,0.0,0.0,0.0,0.0,0.0,0.0,0.0,0.0,0.0,0.0,0.0,0.0,0.0,0.2853,0.593,1.0425,1.171,1.2151,0.0,0.0,0.0,0.0,0.0,0.0,0.0,0.0,0.0,0.0,0.0,0.0,0.0,0.0,0.0,0.0,0.0,0.0,0.0,0.0,0.0,0.0,0.0,0.0,0.0,0.0,0.0,0.0,0.0,0.0,0.0,0.0,0.0,0.0,0.0,0.0,0.0,0.0,0.0,0.0,0.0,0.0,0.0,0.0,0.0,0.0,0.0,0.0,0.0,0.0,0.0,0.0,0.0,0.0,0.0,0.0,0.0,0.0,0.0,0.0,0.0,0.0,0.0,0.0,0.0,0.0,0.0,0.0,0.0,0.0,0.0,0.0,0.0,0.0,0.0,0.0,0.0,0.0,0.0,0.0,0.0,0.0,0.0,0.0,0.0,0.0,0.0,0.0,0.0,0.0,0.0,0.0,0.0,0.0,0.0,0.0,0.0,0.0,0.0,0.0,0.0,0.0,0.0,0.0,0.0,0.0,0.0,0.0,0.0,0.2369,0.4503,0.7254,1.0495,1.0752,1.0901,0.0,0.0,0.0,0.0,0.0,0.0,0.0,0.0,0.0,0.0,0.0,0.0,0.0,0.0,0.0,0.0,0.0,0.0,0.0,0.0,0.0,0.0,0.0,0.0,0.0,0.0,0.0,0.0,0.0,0.0,0.0,0.0,0.0,0.0,0.0,0.0,0.0,0.0,0.0,0.0,0.0,0.0,0.0,0.0,0.0,0.0,0.0,0.0,0.0,0.0,0.0,0.0,0.0,0.0,0.0,0.0,0.0,0.0,0.0,0.0,0.0,0.0,0.0,0.0,0.0,0.0,0.0,0.0,0.0,0.0,0.0,0.0,0.0,0.0,0.0,0.0,0.0,0.0,0.0,0.0,0.0,0.0,0.0,0.0,0.0,0.0,0.0,0.0,0.0,0.0,0.0,0.0,0.0,0.0,0.0,0.0,0.0,0.0,0.0,0.0,0.0,0.0,0.0,0.0,0.0,0.0,0.0,0.0,0.0,0.384,0.0,0.7961,0.0,1.019,1.0129,0.0,0.0,0.0,0.0,0.0,0.0,0.0,0.0,0.0,0.0,0.0,0.0,0.0,0.0,0.0,0.0,0.0,0.0,0.0,0.0,0.0,0.0,0.0,0.0,0.0,0.0,0.0,0.0,0.0,0.0,0.0,0.0,0.0,0.0,0.0,0.0,0.0,0.0,0.0,0.0,0.0,0.0,0.0,0.0,0.0,0.0,0.0,0.0,0.0,0.0,0.0,0.0,0.0,0.0,0.0,0.0,0.0,0.0,0.0,0.0,0.0,0.0,0.0,0.0,0.0,0.0,0.0,0.0,0.0,0.0,0.0,0.0,0.0,0.0,0.0,0.0,0.0,0.0,0.0,0.0,0.0,0.0,0.0,0.0,0.0,0.0,0.0,0.0,0.0,0.0,0.0,0.0,0.0,0.0,0.0,0.0,0.0,0.0,0.0,0.0,0.0,0.0,0.0,0.0,0.0,0.0,0.0,0.0,0.3374,0.5624,0.6952,0.8162,0.8979,1.031,1.0105,0.0,0.0,0.0,0.0,0.0,0.0,0.0,0.0,0.0,0.0,0.0,0.0,0.0,0.0,0.0,0.0,0.0,0.0,0.0,0.0,0.0,0.0,0.0,0.0,0.0,0.0,0.0,0.0,0.0,0.0,0.0,0.0,0.0,0.0,0.0,0.0,0.0,0.0,0.0,0.0,0.0,0.0,0.0,0.0,0.0,0.0,0.0,0.0,0.0,0.0,0.0,0.0,0.0,0.0,0.0,0.0,0.0,0.0,0.0,0.0,0.0,0.0,0.0,0.0,0.0,0.0,0.0,0.0,0.0,0.0,0.0,0.0,0.0,0.0,0.0,0.0,0.0,0.0,0.0,0.0,0.0,0.0,0.0,0.0,0.0,0.0,0.0,0.0,0.0,0.0,0.0,0.0,0.0,0.0,0.0,0.0,0.0,0.0,0.0,0.0,0.0,0.0,0.0,0.0,0.0,0.0,0.0,0.0,0.0,0.6442,0.8286,1.0088,1.1747,1.1155,1.0774,0.0,0.0,0.0,0.0,0.0,0.0,0.0,0.0,0.0,0.0,0.0,0.0,0.0,0.0,0.0,0.0,0.0,0.0,0.0,0.0,0.0,0.0,0.0,0.0,0.0,0.0,0.0,0.0,0.0,0.0,0.0,0.0,0.0,0.0,0.0,0.0,0.0,0.0,0.0,0.0,0.0,0.0,0.0,0.0,0.0,0.0,0.0,0.0,0.0,0.0,0.0,0.0,0.0,0.0,0.0,0.0,0.0,0.0,0.0,0.0,0.0,0.0,0.0,0.0,0.0,0.0,0.0,0.0,0.0,0.0,0.0,0.0,0.0,0.0,0.0,0.0,0.0,0.0,0.0,0.0,0.0,0.0,0.0,0.0,0.0,0.0,0.0,0.0,0.0,0.0,0.0,0.0,0.0,0.0,0.0,0.0,0.0,0.0,0.0,0.0,0.0,0.0,0.0,0.0,0.0,0.0,0.0,0.0,0.0,0.7922,0.9864,1.1603,1.3091,1.2128,1.1438,1.1106,0.0,0.0,0.0,0.0,0.0,0.0,0.0,0.0,0.0,0.0,0.0,0.0,0.0,0.0,0.0,0.0,0.0,0.0,0.0,0.0,0.0,0.0,0.0,0.0,0.0,0.0,0.0,0.0,0.0,0.0,0.0,0.0,0.0,0.0,0.0,0.0,0.0,0.0,0.0,0.0,0.0,0.0,0.0,0.0,0.0,0.0,0.0,0.0,0.0,0.0,0.0,0.0,0.0,0.0,0.0,0.0,0.0,0.0,0.0,0.0,0.0,0.0,0.0,0.0,0.0,0.0,0.0,0.0,0.0,0.0,0.0,0.0,0.0,0.0,0.0,0.0,0.0,0.0,0.0,0.0,0.0,0.0,0.0,0.0,0.0,0.0,0.0,0.0,0.0,0.0,0.0,0.0,0.0,0.0,0.0,0.0,0.0,0.0,0.0,0.0,0.0,0.0,0.0,0.0,0.0,0.0,0.0,0.0,0.9827,1.1719,1.2894,1.3272,1.3188,1.2161,0.0,0.0,0.0,0.0,0.0,0.0,0.0,0.0,0.0,0.0,0.0,0.0,0.0,0.0,0.0,0.0,0.0,0.0,0.0,0.0,0.0,0.0,0.0,0.0,0.0,0.0,0.0,0.0,0.0,0.0,0.0,0.0,0.0,0.0,0.0,0.0,0.0,0.0,0.0,0.0,0.0,0.0,0.0,0.0,0.0,0.0,0.0,0.0,0.0,0.0,0.0,0.0,0.0,0.0,0.0,0.0,0.0,0.0,0.0,0.0,0.0,0.0,0.0,0.0,0.0,0.0,0.0,0.0,0.0,0.0,0.0,0.0,0.0,0.0,0.0,0.0,0.0,0.0,0.0,0.0,0.0,0.0,0.0,0.0,0.0,0.0,0.0,0.0,0.0,0.0,0.0,0.0,0.0,0.0,0.0,0.0,0.0,0.0,0.0,0.0,0.0,0.0,0.0,0.0,0.0,0.0,0.0,0.0,0.0,1.0576,1.4453,1.6376,1.5998,1.4562,1.3434,0.0,0.0,0.0,0.0,0.0,0.0,0.0,0.0,0.0,0.0,0.0,0.0,0.0,0.0,0.0,0.0,0.0,0.0,0.0,0.0,0.0,0.0,0.0,0.0,0.0,0.0,0.0,0.0,0.0,0.0,0.0,0.0,0.0,0.0,0.0,0.0,0.0,0.0,0.0,0.0,0.0,0.0,0.0,0.0,0.0,0.0,0.0,0.0,0.0,0.0,0.0,0.0,0.0,0.0,0.0,0.0,0.0,0.0,0.0,0.0,0.0,0.0,0.0,0.0,0.0,0.0,0.0,0.0,0.0,0.0,0.0,0.0,0.0,0.0,0.0,0.0,0.0,0.0,0.0,0.0,0.0,0.0,0.0,0.0,0.0,0.0,0.0,0.0,0.0,0.0,0.0,0.0,0.0,0.0,0.0,0.0,0.0,0.0,0.0,0.0,0.0,0.0,0.0,0.0,0.0,0.0,0.0,0.0,1.0494,1.1708,1.6334,1.8453,1.7734,1.6323,1.4959,0.0,0.0,0.0,0.0,0.0,0.0,0.0,0.0,0.0,0.0,0.0,0.0,0.0,0.0,0.0,0.0,0.0,0.0,0.0,0.0,0.0,0.0,0.0,0.0,0.0,0.0,0.0,0.0,0.0,0.0,0.0,0.0,0.0,0.0,0.0,0.0,0.0,0.0,0.0,0.0,0.0,0.0,0.0,0.0,0.0,0.0,0.0,0.0,0.0,0.0,0.0,0.0,0.0,0.0,0.0,0.0,0.0,0.0,0.0,0.0,0.0,0.0,0.0,0.0,0.0,0.0,0.0,0.0,0.0,0.0,0.0,0.0,0.0,0.0,0.0,0.0,0.0,0.0,0.0,0.0,0.0,0.0,0.0,0.0,0.0,0.0,0.0,0.0,0.0,0.0,0.0,0.0,0.0,0.0,0.0,0.0,0.0,0.0,0.0,0.0,0.0,0.0,0.0,0.0,0.0,0.0,0.0,0.0,1.2984,1.3115,1.7534,1.95,1.8688,1.7947,1.6304,0.0,0.0,0.0,0.0,0.0,0.0,0.0,0.0,0.0,0.0,0.0,0.0,0.0,0.0,0.0,0.0,0.0,0.0,0.0,0.0,0.0,0.0,0.0,0.0,0.0,0.0,0.0,0.0,0.0,0.0,0.0,0.0,0.0,0.0,0.0,0.0,0.0,0.0,0.0,0.0,0.0,0.0,0.0,0.0,0.0,0.0,0.0,0.0,0.0,0.0,0.0,0.0,0.0,0.0,0.0,0.0,0.0,0.0,0.0,0.0,0.0,0.0,0.0,0.0,0.0,0.0,0.0,0.0,0.0,0.0,0.0,0.0,0.0,0.0,0.0,0.0,0.0,0.0,0.0,0.0,0.0,0.0,0.0,0.0,0.0,0.0,0.0,0.0,0.0,0.0,0.0,0.0,0.0,0.0,0.0,0.0,0.0,0.0,0.0,0.0,0.0,0.0,0.0,0.0,0.0,0.0,0.0,0.0,1.4475,1.4321,1.7887,1.9604,1.9161,1.749,1.5666,0.0,0.0,0.0,0.0,0.0,0.0,0.0,0.0,0.0,0.0,0.0,0.0,0.0,0.0,0.0,0.0,0.0,0.0,0.0,0.0,0.0,0.0,0.0,0.0,0.0,0.0,0.0,0.0,0.0,0.0,0.0,0.0,0.0,0.0,0.0,0.0,0.0,0.0,0.0,0.0,0.0,0.0,0.0,0.0,0.0,0.0,0.0,0.0,0.6347,0.0,0.0,0.0,0.0,0.0,0.0,0.0,0.0,0.0,0.0,0.0,0.0,0.0,0.0,0.0,0.0,0.0,0.0,0.0,0.0,0.0,0.0,0.0,0.0,0.0,0.0,0.0,0.0,0.0,0.0,0.0,0.0,0.0,0.0,0.0,0.0,0.0,0.0,0.0,0.0,0.0,0.0,0.0,0.0,0.0,0.0,0.0,0.0,0.0,0.0,0.0,0.0,0.0,0.0,0.0,0.0,0.0,0.0,0.0,1.4229,1.5701,1.8306,1.9541,1.9131,1.7632,1.5962,0.0,0.0,0.0,0.0,0.0,0.0,0.0,0.0,0.0,0.0,0.0,0.0,0.0,0.0,0.0,0.0,0.0,0.0,0.0,0.0,0.0,0.0,0.0,0.0,0.0,0.0,0.0,0.0,0.0,0.0,0.0,0.0,0.0,0.0,0.0,0.0,0.0,0.0,0.0,0.0,0.0,0.0,0.0,0.0,0.0,0.0,0.0,0.0,0.0,0.0,0.0,0.0,0.0,0.0,0.0,0.0,0.0,0.0,0.0,0.0,0.0,0.0,0.0,0.0,0.0,0.0,0.0,0.0,0.0,0.0,0.0,0.0,0.0,0.0,0.0,0.0,0.0,0.0,0.0,0.0,0.0,0.0,0.0,0.0,0.0,0.0,0.0,0.0,0.0,0.0,0.0,0.0,0.0,0.0,0.0,0.0,0.0,0.0,0.0,0.0,0.0,0.0,0.0,0.0,0.0,0.0,0.0,1.0668,1.3887,1.7162,1.8813,1.9433,1.9041,1.7974,1.6516,1.4634,0.0,0.0,0.0,0.0,0.0,0.0,0.0,0.0,0.0,0.0,0.0,0.0,0.0,0.0,0.0,0.0,0.0,0.0,0.0,0.0,0.0,0.0,0.0,0.0,0.0,0.0,0.0,0.0,0.0,0.0,0.0,0.0,0.0,0.0,0.0,0.0,0.0,0.0,0.5272,0.7034,0.0,0.0,0.0,0.0,0.0,0.0,0.0,0.0,0.8923,0.0,0.0,0.0,0.0,0.0,0.0,0.0,0.0,0.0,0.0,0.0,0.0,0.0,0.0,0.0,0.0,0.0,0.0,0.0,0.0,0.0,0.0,0.0,0.0,0.0,0.0,0.0,0.0,0.0,0.0,0.0,0.0,0.0,0.0,0.0,0.0,0.0,0.0,0.0,0.0,0.0,0.0,0.0,0.0,0.0,0.0,0.0,0.0,0.0,0.0,0.0,0.0,0.0,0.0,0.0,0.0,1.1231,1.3346,1.5857,1.8824,1.935,1.9483,1.923,1.8051,1.6468,1.4497,0.0,0.0,0.0,0.0,0.0,0.0,0.0,0.0,0.0,0.0,0.0,0.0,0.0,0.0,0.0,0.0,0.0,0.0,0.0,0.0,0.0,0.0,0.0,0.0,0.0,0.0,0.0,0.0,0.0,0.0,0.0,0.0,0.0,0.0,0.0,0.0,0.0,0.0,0.0,0.8338,0.9735,0.0,0.0,0.0,0.0,0.0,0.0,0.0,0.0,1.0969,0.0,0.0,0.0,0.0,0.0,0.0,0.0,0.0,0.0,0.0,0.0,0.0,0.0,0.0,0.0,0.0,0.0,0.0,0.0,0.0,0.0,0.0,0.0,0.0,0.0,0.0,0.0,0.0,0.0,0.0,0.0,0.0,0.0,0.0,0.0,0.0,0.0,0.0,0.0,0.0,0.0,0.0,0.0,0.0,0.0,0.0,0.0,0.0,0.0,0.0,0.0,0.0,0.0,0.0,0.0,1.0161,1.3861,1.6966,1.9108,1.9251,1.9172,1.8928,1.7493,1.5974,0.0,0.0,0.0,0.0,0.0,0.0,0.0,0.0,0.0,0.0,0.0,0.0,0.0,0.0,0.0,0.0,0.0,0.0,0.0,0.0,0.0,0.0,0.0,0.0,0.0,0.0,0.0,0.0,0.0,0.0,0.0,0.0,0.0,0.0,0.0,0.0,0.0,0.0,0.0,0.0,0.8957,1.0332,1.1113,0.0,0.0,0.0,0.0,0.0,0.0,1.2426,1.2489,0.0,0.0,0.0,0.0,0.0,0.0,0.0,0.0,0.0,0.0,0.0,0.0,0.0,0.0,0.0,0.0,0.0,0.0,0.0,0.0,0.0,0.0,0.0,0.0,0.0,0.0,0.0,0.0,0.0,0.0,0.0,0.0,0.0,0.0,0.0,0.0,0.0,0.0,0.0,0.0,0.0,0.0,0.0,0.0,0.0,0.0,0.0,0.0,0.0,0.0,0.0,0.0,0.0,0.0,0.0,0.8652,1.3685,1.7317,1.9095,1.9104,1.8957,1.8717,1.7173,1.5688,0.0,0.0,0.0,0.0,0.0,0.0,0.0,0.0,0.0,0.0,0.0,0.0,0.0,0.0,0.0,0.0,0.0,0.0,0.0,0.0,0.0,0.0,0.0,0.0,0.0,0.0,0.0,0.0,0.0,0.0,0.0,0.0,0.0,0.0,0.0,0.0,0.0,0.0,0.0,0.0,0.0,1.1268,1.2356,1.3329,0.0,0.0,0.0,0.0,1.4534,1.4792,0.0,0.0,0.0,0.0,0.0,0.0,0.0,0.0,0.0,0.0,0.0,0.0,0.0,0.0,0.0,0.0,0.0,0.0,0.0,0.0,0.0,0.0,0.0,0.0,0.0,0.0,0.0,0.0,0.0,0.0,0.0,0.0,0.0,0.0,0.0,0.0,0.0,0.0,0.0,0.0,0.0,0.0,0.0,0.0,0.0,0.0,0.0,0.0,0.0,0.0,0.0,0.0,0.0,0.0,0.0,0.0,1.0098,1.3311,1.6485,1.9358,1.936,1.9243,1.9191,1.7881,1.6211,0.0,0.0,0.0,0.0,0.0,0.0,0.0,0.0,0.0,0.0,0.0,0.0,0.0,0.0,0.0,0.0,0.0,0.0,0.0,0.0,0.0,0.0,0.0,0.0,0.0,0.0,0.0,0.0,0.0,0.0,0.0,0.0,0.0,0.0,0.0,0.0,0.0,0.0,0.0,0.0,0.0,1.3606,1.3763,1.5324,1.6441,0.0,0.0,1.6983,1.8003,1.8689,0.0,0.0,0.0,0.0,0.0,0.0,0.0,0.0,0.0,0.0,0.0,0.0,0.0,0.0,0.0,0.0,0.0,0.0,0.0,0.0,0.0,0.0,0.0,0.0,0.0,0.0,0.0,0.0,0.0,0.0,0.0,0.0,0.0,0.0,0.0,0.0,0.0,0.0,0.0,0.0,0.0,0.0,0.0,0.0,0.0,0.0,0.0,0.0,0.0,0.0,0.0,0.0,0.0,0.0,0.0,0.9972,1.2274,1.4447,1.68,1.9246,1.9057,1.8747,1.839,1.7216,1.5571,0.0,0.0,0.0,0.0,0.0,0.0,0.0,0.0,0.0,0.0,0.0,0.0,0.0,0.0,0.0,0.0,0.0,0.0,0.0,0.0,0.0,0.0,0.0,0.0,0.0,0.0,0.0,0.0,0.0,0.0,0.0,0.0,0.0,0.0,0.0,0.0,0.0,0.0,0.0,0.0,0.0,0.0,1.5818,1.7772,0.0,0.0,0.0,2.0023,1.9931,0.0,0.0,0.0,0.0,0.0,0.0,0.0,0.0,0.0,0.0,0.0,0.0,0.0,0.0,0.0,0.0,0.0,0.0,0.0,0.0,0.0,0.0,0.0,0.0,0.0,0.0,0.0,0.0,0.0,0.0,0.0,0.0,0.0,0.0,0.0,0.0,0.0,0.0,0.0,0.0,0.0,0.0,0.0,0.0,0.0,0.0,0.0,0.0,0.0,0.0,0.0,0.0,0.0,0.0,0.0,0.0,0.0,1.4045,1.555,1.7214,1.9073,1.8894,1.8466,1.7801,1.6853,0.0,0.0,0.0,0.0,0.0,0.0,0.0,0.0,0.0,0.0,0.0,0.0,0.0,0.0,0.0,0.0,0.0,0.0,0.0,0.0,0.0,0.0,0.0,0.0,0.0,0.0,0.0,0.2911,0.0,0.0,0.0,0.0,0.0,0.0,0.0,0.0,0.0,0.0,0.0,0.0,0.0,0.0,1.4483,1.7568,1.9825,2.1259,0.0,0.0,2.2401,2.1852,2.1727,2.0904,0.0,0.0,0.0,0.0,0.0,0.0,0.0,0.0,0.0,0.0,0.0,0.0,0.0,0.0,0.0,0.0,0.0,0.0,0.0,0.0,0.0,0.0,0.0,0.0,0.0,0.0,0.0,0.0,0.0,0.0,0.0,0.0,0.0,0.0,0.0,0.0,0.0,0.0,0.0,0.0,0.0,0.0,0.0,0.0,0.0,0.0,0.0,0.0,0.0,0.0,0.0,0.0,0.0,0.0,0.0,1.4785,1.6193,1.7542,1.8945,1.9164,1.8892,1.8093,1.7509,1.5948,0.0,0.0,0.0,0.0,0.0,0.0,0.0,0.0,0.0,0.0,0.0,0.0,0.0,0.0,0.0,0.0,0.0,0.0,0.0,0.0,0.0,0.0,0.0,0.0,0.0,0.0,0.0,0.0,0.0,0.0,0.0,0.0,0.0,0.0,0.0,0.0,0.0,0.0,0.0,0.0,0.0,1.6693,1.848,2.0922,2.2813,0.0,2.333,2.3423,2.4196,2.4536,2.3585,2.0291,0.0,0.0,0.0,0.0,0.0,0.0,0.0,0.0,0.0,0.0,0.0,0.0,0.0,0.0,0.0,0.0,0.0,0.0,0.0,0.0,0.0,0.0,0.0,0.0,0.0,0.0,0.0,0.0,0.0,0.0,0.0,0.0,0.0,0.0,0.0,0.0,0.0,0.0,0.0,0.0,0.0,0.0,0.0,0.0,0.0,0.0,0.0,0.0,0.0,0.0,0.0,0.0,0.0,0.9941,1.3417,1.5532,1.7439,1.9099,1.9232,1.8673,1.7502,1.745,1.5895,0.0,0.0,0.0,0.0,0.0,0.0,0.0,0.0,0.0,0.0,0.0,0.0,0.0,0.0,0.0,0.0,0.0,0.0,0.0,0.0,0.0,0.0,0.0,0.0,0.0,0.0,0.0,0.0,0.4347,0.5059,0.5442,0.0,0.0,0.0,0.0,0.0,0.0,0.0,0.0,0.0,0.0,2.0406,2.1203,2.2858,0.0,0.0,2.4435,2.448,2.4952,2.4235,2.3007,2.1143,1.9283,0.0,0.0,0.0,0.0,0.0,0.0,0.0,0.0,0.0,0.0,0.0,0.0,0.0,0.0,0.0,0.0,0.0,0.0,0.0,0.0,0.0,0.0,0.0,0.0,0.0,0.0,0.0,0.0,0.0,0.0,0.0,0.0,0.0,0.0,0.0,0.0,0.0,0.0,0.0,0.0,0.0,0.0,0.0,0.0,0.0,0.0,0.0,0.0,0.0,0.0,0.0,0.0,1.0114,1.2851,1.5235,1.7348,1.9159,1.9283,1.861,1.7182,1.7368,1.5979,0.0,0.0,0.0,0.0,0.0,0.0,0.0,0.0,0.0,0.0,0.0,0.0,0.0,0.0,0.0,0.0,0.0,0.0,0.0,0.0,0.0,0.0,0.0,0.0,0.0,0.0,0.0,0.0,0.462,0.5335,0.5565,0.0,0.0,0.0,0.0,0.0,0.0,0.0,0.0,0.0,0.0,2.3352,2.324,2.4225,2.5019,2.5158,2.5144,2.5168,2.5342,2.4362,2.3188,2.2025,0.0,0.0,0.0,0.0,0.0,0.0,0.0,0.0,0.0,0.0,0.0,0.0,0.0,0.0,0.0,0.0,0.0,0.0,0.0,0.0,0.0,0.0,0.0,0.0,0.0,0.0,0.0,0.6854,0.0,0.0,0.6496,0.0,0.0,0.0,0.0,0.0,0.0,0.0,0.0,0.0,0.0,0.0,0.0,0.0,0.0,0.0,0.0,0.0,0.0,0.0,0.0,0.0,0.0,1.0947,1.3752,1.5643,1.7382,1.8972,1.9391,1.8794,1.7175,1.7354,1.6328,1.3822,0.0,0.0,0.0,0.0,0.0,0.0,0.0,0.0,0.0,0.0,0.0,0.0,0.0,0.0,0.0,0.0,0.0,0.0,0.0,0.0,0.0,0.0,0.0,0.0,0.0,0.0,0.4157,0.5,0.5656,0.0,0.0,0.0,0.0,0.0,0.0,0.0,0.0,0.0,0.0,2.2895,2.5059,2.4036,2.4749,2.5379,2.5394,2.5402,2.5427,2.5471,2.5428,2.4837,0.0,0.0,0.0,0.0,0.0,0.0,0.0,0.0,0.0,0.0,0.0,0.0,0.0,0.0,0.0,0.0,0.0,0.0,0.0,0.0,0.0,0.0,0.0,0.0,0.0,0.0,0.0,1.0727,1.0017,0.0,0.0,0.0,0.0,0.0,0.0,0.0,0.0,0.0,0.0,0.0,1.4164,1.4925,0.0,0.0,0.0,0.0,0.0,0.0,0.0,0.0,0.0,0.0,0.0,0.0,1.1489,1.4187,1.5803,1.7459,1.9133,1.9464,1.8839,1.7304,1.7406,1.639,1.3995,0.0,0.0,0.0,0.0,0.0,0.0,0.0,0.0,0.0,0.0,0.0,0.0,0.0,0.0,0.0,0.0,0.0,0.0,0.0,0.0,0.0,0.0,0.0,0.0,0.0,0.5162,0.0,0.0,0.0,0.0,0.0,0.0,0.0,0.0,0.0,0.0,0.0,1.865,2.1389,2.3955,2.5398,2.5011,2.5253,2.5473,0.0,0.0,0.0,0.0,0.0,0.0,0.0,0.0,0.0,0.0,0.0,0.0,0.0,0.0,2.3278,1.9599,1.859,1.8417,1.8674,0.0,0.0,0.0,0.0,0.0,0.0,0.0,0.0,0.0,0.0,0.0,0.0,0.0,0.0,1.3402,1.3147,1.2842,0.0,0.0,0.0,0.0,0.0,0.0,0.0,0.0,1.596,1.6725,1.6331,1.71,1.7099,0.0,1.6252,1.4659,0.0,0.0,0.0,0.0,0.0,0.0,0.0,0.0,1.2544,1.4906,1.6391,1.7877,1.932,1.9577,1.9088,1.7854,1.7408,1.6174,1.4059,1.2285,1.1205,0.0,0.0,0.0,0.0,0.0,0.0,0.0,0.0,0.0,0.0,0.0,0.0,0.0,0.0,0.0,0.0,0.0,0.0,0.0,0.0,0.0,0.0,0.0,0.6088,0.0,0.0,0.0,0.0,0.0,0.0,0.0,0.0,0.0,2.0101,2.0095,2.0964,2.3883,2.5031,2.5685,2.5919,0.0,0.0,0.0,0.0,0.0,0.0,0.0,2.5641,2.5625,2.6074,2.6128,2.5237,2.6244,2.7086,2.6812,0.0,0.0,2.349,2.2528,2.2364,2.2623,2.3195,2.3831,2.4438,2.5389,2.6221,0.0,0.0,0.0,0.0,0.0,0.0,0.0,0.0,1.5313,1.5582,0.0,1.5597,0.0,0.0,0.0,0.0,1.3188,1.5874,0.0,0.0,1.9137,2.0066,1.9036,1.9659,1.9736,1.931,1.9941,1.8941,1.6383,1.3493,0.0,0.0,0.0,0.0,0.0,0.0,1.4114,1.5823,1.7318,1.8594,1.9564,1.9719,1.9468,1.8773,1.7355,1.5824,1.4199,1.4061,1.2924,1.048,0.9886,0.0,0.0,0.0,0.0,0.0,0.0,0.0,0.0,0.0,0.0,0.0,0.0,0.0,0.0,0.0,0.0,0.0,0.0,0.0,0.0,0.6058,0.0,0.0,0.0,0.0,0.0,0.0,0.0,0.0,0.0,0.0,2.3363,2.2842,2.3352,2.6301,0.0,0.0,0.0,0.0,2.6952,2.6932,2.7656,2.8191,2.8262,2.8262,2.8242,2.8242,0.0,0.0,2.7173,2.7764,2.8125,2.7285,2.789,2.832,2.8058,2.7212,2.6986,2.7708,2.7284,2.7287,2.8029,2.8274,2.8455,1.8187,0.0,0.0,0.0,0.0,1.677,1.7595,1.9168,1.8555,1.8137,1.7803,1.7659,0.0,0.0,0.0,0.0,0.0,0.0,1.7505,1.8305,1.959,2.0325,2.0547,2.0767,2.0776,2.062,2.028,1.9515,1.8391,1.7509,1.5193,1.1579,0.0,0.0,0.0,0.0,1.5603,1.6582,1.7596,1.8594,1.957,1.9636,1.9385,1.8807,1.7377,1.635,1.5866,1.4719,1.3749,1.3001,1.1404,0.0,0.0,0.0,0.0,0.0,0.0,0.0,0.0,0.0,0.0,0.0,0.0,0.0,0.0,0.0,0.0,0.0,0.0,0.0,0.9538,0.8375,0.8878,0.0,0.0,0.0,0.0,0.0,0.0,0.0,0.0,0.0,2.3262,2.4472,2.5443,0.0,0.0,2.7357,2.694,2.745,2.7889,2.7908,2.8104,0.0,2.8231,2.8187,2.8166,2.8166,2.8669,2.9174,2.954,2.9802,2.986,2.9567,2.9812,2.9988,2.9875,2.8808,2.8066,2.8217,2.8532,2.91,2.9921,3.0625,3.123,2.0692,1.9143,1.805,1.8151,1.9015,1.8866,1.9618,2.0929,2.0454,2.0131,2.0008,1.9819,1.9017,1.779,1.7514,0.0,0.0,0.0,1.9138,2.0016,2.0637,2.1177,2.163,2.1634,2.1634,2.16,2.1147,2.0633,2.0113,2.0113,1.8337,1.4982,0.0,0.0,1.4454,1.5628,1.6749,1.7814,1.8335,1.8924,1.9657,1.9804,1.9551,1.8867,1.7703,1.6932,1.6605,1.5321,1.4453,1.4099,1.286,1.1492,0.0,0.0,0.0,0.0,0.0,0.0,0.0,0.0,0.0,0.0,0.0,0.411,0.38,0.0,0.0,0.0,0.9589,1.3034,1.2715,1.0874,0.0,0.0,0.0,0.0,0.0,0.0,0.0,2.0322,2.3632,2.5462,2.4286,2.6248,2.7605,2.7096,2.7768,2.8222,2.8002,0.0,2.8785,2.8784,2.9031,2.9192,2.9145,2.9131,2.9091,2.9092,2.9515,3.0051,3.0581,3.0714,3.0716,3.0721,3.0739,3.0888,3.124,3.0486,2.9863,2.9863,3.0254,3.0898,3.1738,3.2305,3.2832,2.2348,2.2247,2.0807,2.0224,2.0255,2.0987,2.1292,2.1292,2.1305,2.1667,2.224,2.1842,2.1211,2.0431,1.9768,0.0,1.9493,2.0722,2.1288,2.1309,2.1989,2.2313,2.2313,2.2296,2.2313,2.2296,2.2313,2.2044,2.1583,2.1548,2.0761,1.9163,1.7453,1.7051,1.7837,1.7369,1.7906,1.9462,1.9426,1.9525,1.9809,2.0107,1.9881,1.913,1.8249,1.7453,1.6702,1.5869,1.5019,1.4238,1.4068,1.2955,1.0766,0.0,0.0,0.0,0.0,0.0,0.0,0.0,0.0,0.0,0.0,0.0,0.0,0.0,0.0,0.0,1.314,0.0,1.539,1.3606,0.0,0.0,0.0,2.4529,2.1104,2.3026,2.451,2.4276,0.0,0.0,2.6268,2.8182,2.9589,2.9335,2.8847,2.8769,2.9472,2.9556,2.9577,2.9595,3.0139,3.0583,3.0422,3.0435,3.0425,3.0443,3.0641,3.0668,3.0716,3.0808,3.0879,3.0898,3.0918,3.1172,3.2051,3.2051,3.2246,3.2305,3.2305,3.25,3.3262,3.3476,3.3574,2.2878,2.2863,2.2473,2.2078,2.1758,2.1958,2.2026,2.204,2.2057,2.2141,2.2279,2.2173,2.2017,2.182,2.1634,2.1566,2.1583,2.1898,2.204,2.2057,2.2212,2.2313,2.2313,2.2313,2.2313,2.2313,2.2313,2.2237,2.2119,2.2102,2.1901,2.1456,2.0494,1.9668,1.9011,2.0046,2.0778,2.1206,2.0556,2.0078,1.9822,1.9968,2.0056,1.9981,1.8575,1.7721,1.7511,1.614,1.5312,1.5078,1.4339,1.4014,1.4118,1.1294,0.0,0.0,0.0,0.0,0.0,0.0,0.0,0.0,0.0,0.8387,0.814,0.0,0.9978,0.0,1.4578,1.929,1.8008,1.705,0.0,0.0,2.5132,2.6968,2.5546,2.5976,2.6601,2.7206,2.841,2.9237,2.9269,2.99,3.0342,3.0278,3.018,2.9935,2.9507,2.9959,3.0336,3.0336,3.0475,3.0581,3.0533,3.0521,3.0544,3.0583,3.0658,3.0732,3.0846,3.0872,3.0918,3.0918,3.0918,3.125,3.2051,3.2187,3.2734,3.3711,3.3574,3.3379,3.4199,3.4394,3.457,2.3028,2.3065,2.3243,2.3162,2.2926,2.2926,2.2927,2.291,2.2834,2.2786,2.2753,2.2431,2.2313,2.2313,2.2313,2.2313,2.2313,2.2313,2.2313,2.2313,2.2313,2.2313,2.2313,2.2313,2.2313,2.2313,2.2313,2.2313,2.2313,2.2313,2.2443,2.2699,2.2293,2.1887,2.1494,2.1425,2.1689,2.2318,2.1285,2.0602,2.0325,2.0203,2.0018,1.9743,1.8884,1.8018,1.7299,1.6434,1.5605,1.4824,1.4259,1.4367,1.5111,1.2565,1.1007,0.0,0.0,0.0,0.0,0.0,0.0,0.0,0.0,0.0,0.0,0.0,1.5437,1.3764,1.906,2.2064,2.0795,2.1066,2.2206,2.4359,2.6501,2.7714,2.7535,2.7886,2.8161,2.8281,2.9296,3.0092,3.0354,3.0517,3.056,3.0524,3.0574,3.0442,3.0016,3.0322,3.0586,3.0547,3.0525,3.0513,3.0462,3.0472,3.0492,3.058,3.063,3.0708,3.0888,3.0913,3.0918,3.0918,3.1211,3.1738,3.2559,3.3066,3.3769,3.4766,3.4902,3.4785,3.5195,3.5273,3.5449,2.3154,2.3301,2.3642,2.3848,2.3916,2.3966,2.3918,2.3786,2.3632,2.3545,2.3494,2.2868,2.2598,2.2581,2.2496,2.2431,2.2431,2.2344,2.2313,2.2313,2.2313,2.2313,2.2313,2.2313,2.2313,2.2313,2.2313,2.2313,2.2313,2.2313,2.2571,2.3063,2.3135,2.3448,2.3961,2.2191,2.1844,2.296,2.1876,2.1262,2.1174,2.068,2.0096,1.9439,1.911,1.8248,1.6829,1.6702,1.5974,1.4449,1.4453,1.46,1.469,1.3711,1.3135,0.0,1.2825,0.0,0.0,0.0,0.0,0.0,0.0,0.0,0.0,1.8129,2.0351,2.1971,2.4054,2.4746,2.3409,2.4782,2.6045,2.6714,2.7406,2.7959,2.8328,2.9127,2.9369,2.8667,2.9771,3.0528,3.0431,3.0516,3.0531,3.0423,3.0461,3.0477,3.0544,3.0552,3.0534,3.0495,3.0436,3.0414,3.0402,3.039,3.0447,3.0558,3.0595,3.0656,3.0833,3.0868,3.0898,3.1094,3.1641,3.2461,3.3398,3.418,3.4922,3.5742,3.5879,3.5879,3.5918,3.5918,3.6016,2.3997,2.4742,2.4402,2.4534,2.4936,2.5371,2.5095,2.435,2.4325,2.4288,2.4288,2.4152,2.4085,2.4034,2.3444,2.319,2.3156,2.2581,2.2313,2.2313,2.2313,2.2313,2.2313,2.2313,2.2313,2.2313,2.2313,2.2313,2.2313,2.2313,2.2363,2.2484,2.2691,2.2996,2.3362,0.0,0.0,0.0,2.2914,2.2611,2.2066,2.1456,2.1086,2.1001,1.9091,0.0,1.7563,1.6969,1.6452,1.6158,1.6646,0.0,0.0,0.0,0.0,0.0,0.0,0.0,0.0,0.0,0.0,0.0,1.8309,1.8463,1.8218,2.068,2.2395,2.2756,2.4281,2.5188,2.4921,2.5998,2.6726,2.6787,2.8676,2.9747,2.9238,2.9844,3.0325,3.0212,3.0382,3.0501,3.04,3.0419,3.0422,3.0398,3.0411,3.0422,3.043,3.0439,3.0436,3.0425,3.0421,3.0404,3.0404,3.0404,3.0417,3.051,3.0531,3.0556,3.0659,3.0735,3.1036,3.1604,3.2012,3.2715,3.4121,3.4609,3.5019,3.582,3.6016,3.6016,3.6016,3.6016,3.6016,2.4401,2.4885,2.4833,2.4953,0.0,2.6033,2.6067,2.5557,2.5202,2.4829,2.4508,2.4508,2.4508,2.4474,2.4101,2.3731,2.3376,2.3004,2.2634,2.2313,2.2313,2.2313,2.2313,2.2313,2.2313,2.2313,2.2313,2.2313,2.2313,2.2313,2.2377,2.2487,2.2802,2.3105,2.3466,2.3785,2.3825,2.3584,2.3383,2.3146,2.2864,2.181,2.1139,2.0877,1.9696,0.0,0.0,0.0,0.0,0.0,0.0,0.0,0.0,0.0,0.0,1.8098,1.7877,1.7484,1.7154,1.862,1.978,2.0218,2.1443,2.1953,2.1457,2.2339,2.3222,2.4032,2.4831,2.5303,2.5331,2.6238,2.7083,2.7671,2.9055,2.9919,2.9974,3.0312,3.0571,3.0587,3.0525,3.043,3.0396,3.0404,3.0404,3.0404,3.0404,3.0404,3.0404,3.0404,3.0404,3.0404,3.0404,3.0404,3.0404,3.0404,3.0417,3.0486,3.0479,3.0525,3.0591,3.0984,3.1434,3.1945,3.2688,3.3675,3.4362,3.4962,3.5421,3.5832,3.5975,3.6016,3.6016,3.6016,3.6016,2.4837,2.4957,2.5268,2.5392,2.5452,2.6358,2.6725,2.6657,2.6048,0.0,0.0,2.4897,2.488,2.488,2.4745,2.4372,2.3799,2.3646,2.3207,2.2499,2.2499,2.2415,2.2313,2.2313,2.2313,2.2313,2.2313,2.2313,2.231,2.2363,2.249,2.2738,2.3076,2.3466,2.3785,2.4046,2.4199,2.4163,2.3699,2.35,2.3643,2.2368,2.1436,2.0927,2.0521,1.9664,1.8321,1.8785,1.8431,1.7043,1.7081,1.7363,1.7762,1.7534,1.8024,1.938,2.0275,2.0429,1.9773,2.1773,2.2778,2.2192,2.349,2.4317,2.4298,2.3663,2.3793,2.5173,2.5577,2.5702,2.5571,2.6501,2.7557,2.8668,2.9202,2.979,3.0434,3.0528,3.0515,3.0533,3.0465,3.0404,3.0404,3.0404,3.0404,3.0404,3.0404,3.0404,3.0404,3.0404,3.0404,3.0404,3.0404,3.0404,3.0404,3.0404,3.048,3.0723,3.0748,3.0774,3.1057,3.1614,3.2087,3.2421,3.3579,3.438,3.4714,3.5332,3.583,3.5871,3.5923,3.5975,3.5975,3.5996,3.6016,2.5727,2.6134,2.6218,2.6172,2.609,2.664,2.6794,2.6691,2.6573,2.6488,2.6403,2.637,2.6387,2.6352,2.5744,2.5389,2.5253,2.4626,2.3949,2.3257,2.3241,2.2919,2.2313,2.2313,2.2313,2.2313,2.2313,2.2313,2.2338,2.2541,2.2656,2.2772,2.3323,2.3795,2.4103,2.417,2.4199,2.4199,2.4263,2.4325,2.434,2.3757,2.3402,2.3231,2.1351,2.0212,1.9961,1.9375,1.8897,1.8685,1.936,2.023,2.1182,2.0924,2.1432,2.2731,2.2609,2.2382,2.2278,2.3321,2.4163,2.4712,2.5,2.5135,2.5115,2.5019,2.5058,2.5346,2.6601,2.7217,2.6635,2.7796,2.8755,2.9082,2.9767,3.0312,3.0425,3.0428,3.0431,3.0436,3.0427,3.0404,3.0404,3.0404,3.0404,3.0404,3.0404,3.0404,3.0404,3.0404,3.0404,3.0404,3.0404,3.0404,3.0404,3.0423,3.0748,3.1415,3.1509,3.1738,3.2287,3.2638,3.3059,3.3775,3.4244,3.4742,3.532,3.5613,3.5743,3.5746,3.5838,3.591,3.5893,3.5949,3.5996,2.629,2.6488,2.6419,2.6383,2.6388,2.7178,2.7454,2.7299,2.7317,2.708,2.6708,2.6708,2.6708,2.6674,2.6353,2.5981,2.5592,2.5253,2.4695,2.4017,2.3983,2.3596,2.2953,2.2871,2.2682,2.233,2.2313,2.2313,2.231,2.2426,2.255,2.2733,2.3369,2.3876,2.417,2.4199,2.4199,2.4199,2.4275,2.4393,2.4476,2.384,2.3573,2.3767,2.2286,2.1545,2.1658,2.1269,2.1062,2.1066,2.1431,2.1908,2.2389,2.2019,2.2197,2.3081,2.3216,2.3312,2.349,2.4293,2.4909,2.5269,2.5308,2.5308,2.5308,2.5308,2.55,2.6,2.7178,2.7871,2.7775,2.8563,2.9294,2.9775,3.0173,3.0385,3.0404,3.0404,3.0404,3.0404,3.0404,3.0404,3.0404,3.0404,3.0404,3.0404,3.0404,3.0404,3.0404,3.0404,3.0404,3.0404,3.0404,3.0404,3.0442,3.0962,3.1385,3.1718,3.2064,3.2468,3.291,3.3247,3.3778,3.4181,3.4643,3.5134,3.5556,3.5616,3.5629,3.565,3.5723,3.5791,3.5785,3.5862,3.5949,2.6821,2.6801,2.6702,2.6725,2.6889,2.7725,2.8087,2.8043,2.7874,2.7486,2.6979,2.6776,2.6708,2.6708,2.6708,2.6387,2.5896,2.5845,2.5439,2.4795,2.4745,2.4357,2.3712,2.3661,2.3257,2.2632,2.255,2.2479,2.2327,2.2446,2.2682,2.3045,2.3573,2.3937,2.419,2.4199,2.4199,2.4199,2.4199,2.4266,2.4399,2.3785,2.3641,2.3866,2.3192,2.2868,2.3012,2.2876,2.2797,2.2797,2.2797,2.2893,2.3067,2.2639,2.2654,2.3312,2.375,2.4077,2.4375,2.4942,2.5308,2.5308,2.5308,2.5308,2.5308,2.5308,2.5654,2.6558,2.7755,2.8602,2.8775,2.9159,2.9679,3.0308,3.0404,3.0404,3.0404,3.0404,3.0404,3.0404,3.0404,3.0404,3.0404,3.0404,3.0404,3.0404,3.0404,3.0404,3.0404,3.0404,3.0404,3.0404,3.0404,3.0404,3.0462,3.1346,3.1942,3.1948,3.266,3.3237,3.3603,3.4141,3.4456,3.4616,3.5033,3.5399,3.5482,3.5527,3.5566,3.5568,3.563,3.5698,3.5713,3.5809,3.591,2.751,2.7495,2.748,2.7741,2.8098,2.8131,2.8439,2.877,2.8146,2.7773,2.7604,2.6996,2.6708,2.6708,2.6708,2.664,2.6556,2.659,2.6184,2.5558,2.5507,2.5118,2.444,2.4406,2.4,2.3342,2.3257,2.2902,2.2338,2.2819,2.3421,2.3996,2.4141,2.4161,2.4208,2.4199,2.4199,2.4199,2.4199,2.4199,2.4237,2.4327,2.4408,2.4431,2.396,2.3683,2.3711,2.3117,2.2816,2.2797,2.2855,2.3182,2.3821,2.3639,2.3923,2.4942,2.5096,2.5173,2.5173,2.5269,2.5308,2.5308,2.5308,2.5308,2.5308,2.5308,2.5673,2.675,2.875,2.9698,2.9217,2.9756,3.0231,3.0346,3.0404,3.0404,3.0404,3.0404,3.0404,3.0404,3.0404,3.0404,3.0404,3.0404,3.0404,3.0404,3.0404,3.0404,3.0404,3.0404,3.0404,3.0404,3.0404,3.0404,3.0519,3.1346,3.2058,3.2622,3.3474,3.4064,3.4564,3.4942,3.5327,3.493,3.5231,3.5346,3.5481,3.5501,3.5457,3.5522,3.5566,3.5621,3.5705,3.5791,3.5871,2.8173,2.8143,2.7779,2.8126,2.892,2.9286,2.9506,2.9599,2.9294,2.8669,2.7807,2.7469,2.7131,2.6708,2.6708,2.6708,2.6708,2.6708,2.6539,2.6251,2.6251,2.5879,2.5203,2.5169,2.4543,2.3477,2.3408,2.3038,2.2538,2.292,2.3437,2.3886,2.4112,2.4199,2.4199,2.4199,2.4199,2.4199,2.4199,2.4199,2.4209,2.4275,2.4384,2.4483,2.4428,2.443,2.449,2.4335,2.4293,2.4269,2.4269,2.4447,2.4774,2.4673,2.4808,2.5269,2.5308,2.5308,2.5308,2.5308,2.5308,2.5308,2.5308,2.5308,2.5308,2.5308,2.5731,2.6918,2.8994,3.0231,2.9942,3.0198,3.0404,3.0404,3.0404,3.0404,3.0404,3.0404,3.0404,3.0404,3.0404,3.0404,3.0404,3.0404,3.0404,3.0404,3.0404,3.0404,3.0404,3.0404,3.0404,3.0404,3.0404,3.0404,3.0481,3.1212,3.1865,3.2352,3.334,3.4321,3.4064,3.4981,3.5327,3.4853,3.4757,3.4968,3.5442,3.5026,3.4814,3.5161,3.5508,3.5538,3.5582,3.5659,3.5702,2.8847,2.8757,2.8307,2.8693,2.9651,3.0102,3.0338,3.0374,3.019,2.9465,2.8449,2.801,2.7503,2.7012,2.6793,2.6708,2.6708,2.6708,2.6708,2.6708,2.6708,2.6404,2.593,2.5913,2.5118,2.3883,2.3712,2.3282,2.26,2.3044,2.3477,2.3714,2.4026,2.4199,2.4199,2.4199,2.4199,2.4199,2.4199,2.4199,2.4199,2.4199,2.4266,2.4418,2.4662,2.4849,2.4937,2.5157,2.5308,2.5288,2.5308,2.5308,2.5308,2.5308,2.5308,2.5308,2.5308,2.5308,2.5308,2.5308,2.5308,2.5308,2.5308,2.5308,2.5308,2.5308,2.5899,2.7225,2.9167,3.0385,3.0404,3.0404,3.0404,3.0404,3.0404,3.0404,3.0404,3.0404,3.0404,3.0404,3.0404,3.0404,3.0404,3.0404,3.0404,3.0404,3.0404,3.0404,3.0404,3.0404,3.0404,3.0404,3.0404,3.0404,3.0462,3.1154,3.1602,3.1968,3.2929,3.3526,3.3006,3.416,3.4692,3.3891,3.3859,3.3917,3.4257,3.4083,3.4122,3.4814,3.5148,3.5251,3.547,3.5546,3.5591,2.9527,2.9447,2.9327,2.9645,3.0251,3.0314,3.0625,3.1021,3.0429,3.0038,2.97,2.85,2.7807,2.7655,2.7046,2.6708,2.6708,2.6708,2.6708,2.6708,2.6708,2.6674,2.6674,2.664,2.5879,2.4541,2.444,2.3903,2.2929,2.337,2.3682,2.3724,2.4036,2.4199,2.4199,2.4199,2.4199,2.4199,2.4199,2.4199,2.4199,2.4199,2.4199,2.4257,2.4602,2.4797,2.4847,2.5126,2.5279,2.5284,2.5269,2.5279,2.5303,2.5303,2.5308,2.5308,2.5308,2.5308,2.5308,2.5308,2.5308,2.5308,2.5308,2.5327,2.5423,2.5346,2.6058,2.7698,2.9365,3.0404,3.0404,3.0404,3.0404,3.0404,3.0404,3.0404,3.0373,3.0373,3.0404,3.0373,3.0398,3.0404,3.0404,3.0404,3.0404,3.0404,3.0404,3.0404,3.0404,3.0404,3.0404,3.0404,3.0404,3.0404,3.0462,3.0923,3.1468,3.1737,3.2141,3.2872,3.2929,3.2968,3.3006,3.3006,3.2987,3.2987,3.3006,3.3179,3.3487,3.3955,3.4366,3.4623,3.5104,3.5514,3.5648,2.9879,2.9543,2.9887,3.0154,3.033,3.0699,3.1015,3.1157,3.092,3.0531,3.0055,2.9516,2.872,2.779,2.7519,2.7148,2.6725,2.6708,2.6708,2.6708,2.6708,2.6708,2.6708,2.6691,2.6217,2.5338,2.5186,2.4707,2.3801,2.3531,2.3599,2.3968,2.4141,2.4199,2.4199,2.4199,2.4199,2.4199,2.4199,2.4199,2.4199,2.4199,2.4199,2.4209,2.4479,2.4626,2.4599,2.4849,2.4987,2.4987,2.4968,2.5018,2.5099,2.5224,2.5308,2.5308,2.5308,2.5308,2.5308,2.5308,2.5308,2.5308,2.5308,2.5534,2.5885,2.5692,2.6033,2.7758,2.9417,3.0327,3.0404,3.0404,3.0404,3.0404,3.0398,3.0317,3.0215,3.0292,3.0349,3.0215,3.0292,3.0404,3.0404,3.0404,3.0404,3.0404,3.0404,3.0404,3.0404,3.0404,3.0404,3.0404,3.0404,3.0404,3.0404,3.0577,3.0885,3.1096,3.141,3.1564,3.166,3.241,3.266,3.2199,3.2122,3.2295,3.2391,3.2622,3.291,3.3173,3.3564,3.4004,3.4665,3.5135,3.5441,3.0665,3.0494,3.0654,3.08,3.095,3.1099,3.119,3.119,3.119,3.092,3.048,3.0226,2.9497,2.8551,2.8043,2.7553,2.7063,2.6826,2.6708,2.6708,2.6708,2.6708,2.6708,2.6708,2.6302,2.5659,2.5448,2.4935,2.4094,2.3709,2.3682,2.3855,2.3968,2.4112,2.418,2.4199,2.4199,2.4199,2.4199,2.4199,2.4199,2.4199,2.4199,2.4218,2.4321,2.4469,2.4583,2.4731,2.4821,2.4836,2.484,2.4889,2.5082,2.5219,2.5308,2.5308,2.5308,2.5308,2.5308,2.5308,2.5269,2.5214,2.5228,2.5573,2.6346,2.6263,2.686,2.8104,2.9456,3.0404,3.0392,3.0317,3.0311,3.0361,3.0317,3.0202,3.0035,3.0157,3.0209,3.0202,3.0305,3.0379,3.0404,3.0404,3.0404,3.0404,3.0404,3.0404,3.0404,3.0404,3.0404,3.0404,3.0404,3.0404,3.0404,3.05,3.0577,3.0731,3.0827,3.0769,3.0904,3.1737,3.1987,3.15,3.1423,3.1635,3.1852,3.2064,3.2275,3.2493,3.278,3.3155,3.3944,3.4792,3.5049,3.1805,3.2212,3.1629,3.1641,3.2002,3.1562,3.1224,3.1207,3.119,3.114,3.097,3.0463,3.0108,2.97,2.8618,2.7891,2.7604,2.7097,2.6776,2.6708,2.6708,2.6708,2.6708,2.6708,2.6387,2.5693,2.5234,2.4545,2.3787,2.4099,2.4033,2.3478,2.3768,2.4057,2.4218,2.4199,2.4199,2.4199,2.4199,2.4199,2.4199,2.4199,2.4199,2.4199,2.4218,2.4393,2.4746,2.476,2.4799,2.4898,2.4809,2.4961,2.519,2.5248,2.5269,2.5253,2.5269,2.5274,2.5279,2.5264,2.5152,2.5071,2.5016,2.5405,2.6371,2.7173,2.7951,2.8744,2.9589,3.033,3.0336,3.0169,3.0089,3.0311,3.0182,3.0028,2.9991,2.9999,3.0096,3.0305,3.0379,3.0404,3.0404,3.0404,3.0404,3.0404,3.0404,3.0404,3.0404,3.0404,3.0404,3.0404,3.0404,3.0404,3.0404,3.0404,3.0404,3.0442,3.0481,3.05,3.0519,3.1038,3.1115,3.0788,3.0808,3.1,3.1019,3.1212,3.1314,3.1531,3.19,3.24,3.3171,3.3958,3.455,3.1875,3.2442,3.2232,3.218,3.2283,3.2039,3.1701,3.1207,3.119,3.119,3.114,3.0954,3.0598,3.0108,2.9531,2.8804,2.7841,2.7519,2.7215,2.6793,2.6708,2.6708,2.6708,2.6708,2.6573,2.6285,2.5704,2.5367,2.522,2.5141,2.4839,2.4478,2.4664,2.4606,2.4253,2.4199,2.4199,2.4199,2.4199,2.4199,2.4199,2.4199,2.4199,2.4199,2.4199,2.4321,2.4578,2.4461,2.4409,2.4476,2.4428,2.4559,2.4869,2.4968,2.4961,2.4949,2.4949,2.5006,2.5084,2.5018,2.4974,2.4962,2.4923,2.5577,2.6735,2.7478,2.8319,2.9129,2.9464,2.9643,3.0162,3.003,2.9916,3.0089,3.0061,2.9939,2.9869,2.9912,3.0103,3.0329,3.0404,3.0404,3.0404,3.0404,3.0404,3.0404,3.0404,3.0404,3.0404,3.0404,3.0404,3.0404,3.0404,3.0404,3.0404,3.0404,3.0404,3.0404,3.0404,3.0404,3.0404,3.0404,3.0404,3.0404,3.0404,3.0404,3.0404,3.0481,3.0673,3.0887,3.1381,3.1912,3.2463,3.3058,3.3645,3.2296,3.2876,3.2893,3.2981,3.3013,3.2581,3.2039,3.1599,3.1309,3.119,3.119,3.119,3.0954,3.0514,3.0243,2.9565,2.8669,2.8399,2.7824,2.7131,2.6776,2.6708,2.6708,2.6708,2.6708,2.6623,2.6218,2.5959,2.5905,2.5657,2.5376,2.5159,2.531,2.5186,2.4684,2.4622,2.4548,2.4273,2.4199,2.4199,2.4199,2.4199,2.4199,2.4199,2.4199,2.4275,2.4384,2.4257,2.4247,2.4312,2.4312,2.4419,2.4586,2.4708,2.4738,2.4623,2.4723,2.4842,2.4904,2.4862,2.4785,2.4809,2.4741,2.5399,2.6709,2.7339,2.8037,2.9339,2.9485,2.9495,2.995,2.9973,2.9877,2.9984,2.9931,2.9896,2.9821,2.9924,3.0103,3.0317,3.0404,3.0404,3.0404,3.0404,3.0404,3.0404,3.0404,3.0404,3.0404,3.0404,3.0404,3.0404,3.0404,3.0404,3.0404,3.0404,3.0404,3.0404,3.0404,3.0404,3.0404,3.0404,3.0404,3.0404,3.0404,3.0404,3.0404,3.0404,3.0525,3.0761,3.0972,3.138,3.1884,3.2232,3.2788,3.3039,3.3629,3.3582,3.3894,3.4197,3.3089,3.2446,3.2158,3.1616,3.1275,3.1224,3.119,3.1173,3.1021,3.0531,3.0106,2.9939,2.9347,2.8619,2.7892,2.7317,2.6996,2.6742,2.6708,2.6708,2.6691,2.664,2.6336,2.5859,2.5852,2.5655,2.5623,2.5702,2.5566,2.5455,2.5429,2.4989,2.4475,2.4273,2.4199,2.4199,2.4199,2.4199,2.4199,2.4199,2.4209,2.4218,2.4209,2.4284,2.4435,2.4426,2.4366,2.4321,2.4559,2.4559,2.4303,2.4559,2.4716,2.4768,2.4723,2.4678,2.4559,2.4584,2.5157,2.6553,2.7028,2.7774,2.946,2.9677,2.9722,2.9821,2.9861,2.9954,2.9977,2.9885,2.9872,2.9991,3.0035,3.0163,3.0329,3.0404,3.0404,3.0404,3.0404,3.0404,3.0404,3.0404,3.0404,3.0404,3.0404,3.0404,3.0404,3.0404,3.0404,3.0404,3.0404,3.0404,3.0404,3.0404,3.0404,3.0408,3.0419,3.0436,3.043,3.0411,3.0414,3.0402,3.0414,3.0396,3.0523,3.0736,3.0953,3.1214,3.1543,3.1997,3.3751,3.4317,3.433,3.4389,3.4445,3.4053,3.3275,3.2361,3.2124,3.1684,3.1309,3.119,3.119,3.1157,3.0987,3.0632,3.0192,2.9922,2.9397,2.8755,2.8519,2.769,2.6894,2.6708,2.6708,2.6708,2.6691,2.659,2.6437,2.6628,2.6633,2.6392,2.6624,2.6573,2.6295,2.576,2.5319,2.5026,2.4465,2.4263,2.4273,2.4254,2.4199,2.4199,2.419,2.4199,2.4199,2.4199,2.4218,2.4257,2.4275,2.4257,2.4218,2.4321,2.4339,2.4257,2.4294,2.4426,2.4528,2.4452,2.441,2.4478,2.444,2.4976,2.6534,2.7231,2.8211,2.9401,2.9796,2.9958,3.0087,2.9958,2.9893,2.9977,2.9962,3.0018,3.0209,3.0305,3.0343,3.0398,3.0404,3.0404,3.0404,3.0404,3.0404,3.0404,3.0404,3.0404,3.0404,3.0404,3.0404,3.0404,3.0404,3.0404,3.0404,3.0404,3.0404,3.0404,3.0404,3.0385,3.0417,3.0446,3.0505,3.0556,3.05,3.0472,3.0467,3.0441,3.0428,3.0402,3.0498,3.0692,3.0617,3.081,3.1297,3.426,3.4624,3.4894,3.5002,3.4923,3.4624,3.3998,3.319,3.2547,3.209,3.1667,3.1326,3.119,3.119,3.1173,3.097,3.0598,3.0565,3.0142,2.9482,2.9094,2.8281,2.7351,2.6928,2.6708,2.6708,2.6708,2.6808,2.6954,2.721,2.7297,2.7446,2.7602,2.7483,2.7105,2.6696,2.6219,2.5897,2.5419,2.5199,2.5199,2.486,2.4713,2.4622,2.441,2.4199,2.4199,2.4199,2.4199,2.4199,2.4199,2.4199,2.4199,2.4199,2.4199,2.4199,2.4199,2.4257,2.433,2.4266,2.4247,2.4413,2.4477,2.5329,2.6456,2.74,2.842,2.9596,2.9934,3.0189,3.0299,3.0142,3.0066,3.0169,3.0163,3.0241,3.0398,3.0379,3.0404,3.0404,3.0404,3.0404,3.0404,3.0404,3.0404,3.0404,3.0404,3.0404,3.0404,3.0404,3.0404,3.0404,3.0404,3.0404,3.0404,3.0404,3.0404,3.0404,3.0404,3.0385,3.0463,3.0477,3.0521,3.0581,3.0559,3.0548,3.0518,3.0477,3.0446,3.0422,3.0408,3.0404,3.0404,3.0404,3.0846,3.4671,3.4776,3.5362,3.5616,3.5464,3.4912,3.4539,3.4201,3.319,3.2496,3.2158,3.1579,3.1326,3.119,3.119,3.1173,3.114,3.1072,3.0768,3.0142,2.9533,2.8772,2.8213,2.752,2.7131,2.6962,2.6826,2.6925,2.7119,2.7208,2.7643,2.8,2.8234,2.8221,2.7885,2.7761,2.7383,2.6814,2.6465,2.6319,2.6227,2.5815,2.5558,2.5448,2.5016,2.4722,2.4667,2.4593,2.4593,2.4483,2.43,2.4218,2.4199,2.4199,2.4199,2.4199,2.4218,2.4236,2.4374,2.4494,2.4511,2.4714,2.5247,2.587,2.6751,2.7549,2.8441,2.9696,3.0194,3.035,3.0388,3.0381,3.0355,3.0355,3.0367,3.0398,3.0404,3.0404,3.0404,3.0404,3.0404,3.0404,3.0404,3.0404,3.0404,3.0404,3.0404,3.0404,3.0404,3.0404,3.0404,3.0404,3.0404,3.0404,3.0404,3.0404,3.0404,3.0404,3.0404,3.0421,3.0514,3.0558,3.0571,3.0578,3.0609,3.0581,3.0533,3.0518,3.0482,3.0433,3.039,3.0404,3.0404,3.0404,3.0654,3.5385,3.5407,3.5538,3.5616,3.5583,3.5414,3.5047,3.4472,3.4167,3.3326,3.2496,3.2141,3.1749,3.1258,3.1292,3.119,3.1241,3.1224,3.1072,3.092,3.0209,2.9837,2.9465,2.884,2.818,2.7739,2.757,2.7335,2.7095,2.7327,2.7545,2.7992,2.835,2.853,2.864,2.8117,2.775,2.7457,2.6998,2.6749,2.6749,2.6521,2.6319,2.6264,2.608,2.6062,2.607,2.6098,2.6098,2.5805,2.4997,2.4373,2.4236,2.4291,2.4365,2.4373,2.4318,2.4502,2.5026,2.5358,2.5643,2.5915,2.6172,2.6686,2.7434,2.7772,2.8484,2.9429,3.007,3.0326,3.0347,3.0375,3.0392,3.0404,3.0404,3.0404,3.0404,3.0404,3.0404,3.0404,3.0404,3.0404,3.0404,3.0404,3.0404,3.0404,3.0404,3.0404,3.0404,3.0404,3.0404,3.0404,3.0404,3.0404,3.0404,3.0404,3.0404,3.0404,3.0404,3.041,3.0499,3.058,3.0586,3.0625,3.0679,3.0643,3.0587,3.0545,3.052,3.0447,3.0408,3.0414,3.0425,3.0408,3.0654,3.5616,3.5616,3.5616,3.5616,3.5616,3.56,3.5363,3.4996,3.4624,3.4066,3.3393,3.3021,3.2577,3.2222,3.1884,3.1715,3.1596,3.1326,3.119,3.1106,3.0751,3.0632,3.0581,3.0142,2.9499,2.8552,2.8366,2.8013,2.774,2.7834,2.815,2.8147,2.8489,2.8773,2.8964,2.8576,2.8411,2.8319,2.7978,2.7721,2.7703,2.7328,2.6906,2.6686,2.6602,2.6602,2.6565,2.6583,2.6583,2.6382,2.5795,2.4942,2.452,2.4905,2.5273,2.5309,2.5059,2.5271,2.586,2.6305,2.6554,2.6631,2.6924,2.7328,2.7885,2.8264,2.8849,2.941,2.9813,3.008,3.0163,3.035,3.0386,3.0404,3.0404,3.0404,3.0404,3.0404,3.0404,3.0404,3.0404,3.0404,3.0404,3.0368,3.0386,3.038,3.0373,3.0373,3.0404,3.0404,3.0404,3.0404,3.0404,3.0404,3.0404,3.0404,3.0404,3.0404,3.0404,3.0404,3.0458,3.0515,3.0581,3.063,3.0673,3.0665,3.0611,3.0581,3.0577,3.0544,3.0528,3.0487,3.0455,3.0433,3.0824,3.5718,3.5616,3.5616,3.5616,3.5616,3.5616,3.5583,3.5464,3.4962,3.459,3.4409,3.3812,3.3457,3.3237,3.2713,3.2446,3.209,3.1529,3.119,3.1157,3.1123,3.1055,3.1038,3.0886,3.048,2.9399,2.9194,2.8901,2.8611,2.8732,2.8567,2.8546,2.87,2.887,2.8952,2.8987,2.8895,2.884,2.8785,2.8748,2.8748,2.8246,2.7714,2.7328,2.7207,2.7207,2.7226,2.717,2.709,2.6969,2.6969,2.6227,2.564,2.5731,2.6822,2.6822,2.6313,2.6185,2.6722,2.7253,2.7477,2.7008,2.7567,2.7934,2.8242,2.8735,2.9148,2.9339,2.9539,2.9664,2.9831,3.0194,3.035,3.0362,3.0355,3.0404,3.0379,3.0373,3.0317,3.0398,3.033,3.0273,3.0299,3.0291,3.0343,3.0362,3.0349,3.0367,3.0379,3.0404,3.0404,3.0404,3.0404,3.0404,3.0404,3.05,3.0481,3.0481,3.0462,3.0481,3.0481,3.0465,3.0524,3.0603,3.0643,3.0723,3.0776,3.0772,3.0755,3.0689,3.06,3.0528,3.0486,3.0462,3.0877,3.6214,3.5616,3.5616,3.5616,3.5616,3.5616,3.5616,3.5583,3.543,3.5047,3.4539,3.437,3.3981,3.3558,3.3339,3.2899,3.2361,3.1681,3.1292,3.1258,3.1224,3.119,3.119,3.1173,3.0987,3.0751,3.0226,2.9573,2.8987,2.8678,2.9006,2.8881,2.8814,2.8846,2.9123,2.9005,2.9115,2.9115,2.9042,2.8987,2.8932,2.8803,2.862,2.8363,2.8308,2.8363,2.8455,2.8528,2.8601,2.862,2.8601,2.8363,2.7794,2.7134,2.7372,2.7886,2.7288,2.6958,2.7559,2.8231,2.8588,2.8643,2.8638,2.873,2.8808,2.8927,2.9119,2.9127,2.9167,2.9265,2.9549,3.0021,3.0233,3.0206,3.0382,3.0438,3.0362,3.0381,3.0252,3.0331,3.0227,3.0138,3.0166,3.0159,3.0142,3.0154,3.0195,3.0292,3.0398,3.0404,3.0404,3.0404,3.0404,3.0404,3.0404,3.0538,3.0615,3.0641,3.0641,3.0654,3.0596,3.0448,3.0472,3.1002,3.112,3.1135,3.1127,3.1155,3.1203,3.1347,3.1017,3.0616,3.0516,3.0462,3.0449,3.6592,3.6197,3.5769,3.5616,3.5616,3.5616,3.5616,3.5616,3.56,3.5397,3.5165,3.5064,3.4912,3.4523,3.4083,3.3541,3.2831,3.2107,3.1802,3.1735,3.141,3.119,3.119,3.119,3.119,3.1089,3.0784,3.0279,2.9713,3.0166,2.9894,2.9719,2.9764,3.0063,3.007,2.9849,2.9666,2.9555,2.9262,2.9023,2.9005,2.9005,2.8987,2.8987,2.8987,2.8987,2.8987,2.8987,2.8987,2.8968,2.8968,2.8987,2.8767,2.8473,2.8143,2.8675,2.8235,2.7923,2.8338,2.8842,2.8929,2.8962,2.8987,2.8987,2.8987,2.8998,2.9005,2.9023,2.9017,2.913,2.9431,2.9887,2.9981,3.0192,3.0684,3.0833,3.0576,3.0784,3.0655,3.0355,3.0118,3.0043,3.0018,3.0,2.994,2.9958,3.0079,3.029,3.0559,3.0635,3.075,3.0788,3.0923,3.1212,3.1231,3.1288,3.1102,3.0993,3.1025,3.1038,3.1038,3.1044,3.1444,3.1988,3.1945,3.1822,3.2141,3.2397,3.2218,3.1954,3.1585,3.1197,3.0722,3.0467,3.0471,3.7151,3.6948,3.6163,3.5836,3.5802,3.565,3.5616,3.5616,3.5616,3.5583,3.5616,3.5583,3.5566,3.538,3.4827,3.4134,3.3558,3.2848,3.2462,3.2141,3.1732,3.1393,3.1207,3.119,3.119,3.1193,3.1283,3.0983,3.0553,3.0936,3.1005,3.0713,3.1071,3.1347,3.1133,3.0668,3.0485,3.0246,2.9886,2.9464,2.9262,2.9078,2.8987,2.8987,2.8987,2.8987,2.8987,2.8987,2.8987,2.8987,2.8987,2.8987,2.8987,2.8987,2.8987,2.8987,2.8987,2.8987,2.8987,2.8968,2.8998,2.8987,2.8987,2.8987,2.8987,2.9023,2.9097,2.9255,2.9549,2.9609,2.9847,3.0019,3.0197,3.0448,3.1236,3.1795,3.1225,3.1085,3.11,3.0741,3.0216,3.0337,3.0722,3.0687,3.0828,3.1208,3.1355,3.1266,3.1482,3.1404,3.1448,3.1423,3.1621,3.2141,3.2314,3.2391,3.2051,3.1595,3.1724,3.1833,3.1827,3.1827,3.2375,3.2884,3.2915,3.2866,3.3268,3.3397,3.3073,3.2688,3.2244,3.1887,3.1629,3.0994,3.0616,3.8362,3.7719,3.6981,3.6677,3.6558,3.5938,3.5633,3.565,3.5633,3.5616,3.5616,3.5616,3.5616,3.543,3.4895,3.4489,3.4184,3.3626,3.3017,3.2615,3.2293,3.1836,3.1309,3.119,3.1224,3.1266,3.149,3.1471,3.1124,3.1028,3.1124,3.1137,3.1105,3.1134,3.1511,3.1219,3.1268,3.1207,3.1084,3.0668,3.0045,2.941,2.9172,2.9133,2.9152,2.9225,2.9299,2.9317,2.9262,2.9189,2.9097,2.9042,2.8987,2.8987,2.8987,2.8987,2.8987,2.8987,2.9023,2.8987,2.9097,2.9115,2.9097,2.9023,2.9133,2.9115,2.9365,3.0405,3.0827,3.08,3.0665,3.1102,3.1219,3.1374,3.176,3.2071,3.1827,3.1894,3.1856,3.1553,3.1187,3.1617,3.2052,3.1907,3.1846,3.2279,3.2564,3.2419,3.2288,3.2135,3.2352,3.241,3.2506,3.2968,3.3449,3.3506,3.291,3.2326,3.2417,3.2571,3.2417,3.2487,3.3224,3.3625,3.3697,3.3852,3.4124,3.4104,3.38,3.3352,3.284,3.2749,3.2754,3.1922,3.0735,3.9174,3.8447,3.7736,3.7415,3.733,3.6603,3.6282,3.618,3.5808,3.5616,3.5616,3.5616,3.5616,3.5498,3.5211,3.5148,3.4962,3.4353,3.3897,3.3444,3.3068,3.2547,3.2005,3.1785,3.1684,3.1385,3.1332,3.1334,3.1255,3.1546,3.1738,3.1549,3.1733,3.1911,3.1949,3.1578,3.1391,3.1196,3.0905,3.0626,3.045,3.022,3.011,3.0326,3.0308,3.0301,3.0283,3.0356,3.0375,3.0356,3.0356,2.9849,2.9537,2.9787,3.0375,3.0375,3.0375,2.9971,2.9189,2.906,2.928,2.9592,2.9684,2.9776,2.9732,2.9445,2.9672,3.0931,3.2124,3.2176,3.1522,3.189,3.1967,3.2106,3.2449,3.2275,3.2425,3.285,3.2841,3.2499,3.2307,3.2866,3.3167,3.2779,3.2742,3.3104,3.3141,3.2855,3.2749,3.2628,3.3006,3.3526,3.366,3.3872,3.4353,3.4641,3.3724,3.3192,3.3156,3.3197,3.2871,3.3083,3.3838,3.4454,3.4731,3.4892,3.5009,3.4878,3.4614,3.4035,3.3401,3.3083,3.2656,3.1584,3.0694,3.9791,3.9208,3.8481,3.8176,3.8091,3.7381,3.6965,3.6711,3.618,3.5808,3.5633,3.5616,3.5616,3.56,3.5583,3.5515,3.5515,3.503,3.4692,3.4353,3.3914,3.3254,3.2763,3.251,3.2307,3.1749,3.1992,3.1822,3.1784,3.1972,3.2106,3.1843,3.2321,3.257,3.2531,3.2345,3.2175,3.2107,3.1397,3.1156,3.1197,3.1025,3.1076,3.1236,3.1384,3.1403,3.1403,3.1342,3.1323,3.1305,3.125,3.0687,3.0136,3.0632,3.1513,3.1604,3.1586,3.0779,3.0118,2.9849,2.9941,3.0265,3.0503,3.0577,3.0613,3.0008,3.014,3.1759,3.2834,3.2884,3.2508,3.2724,3.2788,3.297,3.322,3.2887,3.2671,3.3123,3.3434,3.3235,3.334,3.4216,3.4267,3.3693,3.3639,3.3936,3.3777,3.3396,3.3382,3.3423,3.3814,3.443,3.4507,3.4622,3.4911,3.5058,3.432,3.3932,3.3915,3.3638,3.3225,3.3638,3.4435,3.5016,3.5448,3.5425,3.5237,3.5349,3.5372,3.442,3.3522,3.288,3.2201,3.1268,3.0827,4.0079,3.996,3.9249,3.892,3.887,3.8142,3.7432,3.7015,3.6761,3.6231,3.5633,3.5616,3.5616,3.5616,3.5616,3.5616,3.56,3.5532,3.5109,3.4709,3.437,3.3964,3.3541,3.3305,3.3254,3.3085,3.2899,3.2594,3.2364,3.2179,3.2151,3.1947,3.2403,3.289,3.296,3.269,3.2862,3.2784,3.2271,3.2155,3.2092,3.1848,3.1547,3.1524,3.1476,3.1403,3.1421,3.1623,3.1715,3.1715,3.1751,3.1733,3.1439,3.1586,3.2302,3.2779,3.2315,3.1672,3.1292,3.0999,3.1146,3.1268,3.1397,3.1513,3.1586,3.1421,3.182,3.2725,3.3678,3.3766,3.3609,3.3685,3.3559,3.3525,3.3587,3.3487,3.332,3.3447,3.3708,3.3786,3.4202,3.4804,3.5176,3.4558,3.4381,3.4649,3.4779,3.4426,3.4613,3.4718,3.4885,3.5218,3.525,3.5308,3.5327,3.5109,3.4677,3.4381,3.4268,3.3865,3.3405,3.4108,3.4893,3.5177,3.55,3.55,3.5488,3.5482,3.5195,3.4365,3.3641,3.3153,3.2793,3.223,3.1756,4.0113,4.0079,3.9791,3.969,3.9597,3.8886,3.8413,3.8007,3.7202,3.6349,3.5616,3.5616,3.5616,3.5616,3.5616,3.5616,3.5616,3.56,3.5363,3.5301,3.5098,3.4726,3.432,3.3998,3.3863,3.3558,3.3423,3.3318,3.3,3.2662,3.2303,3.2216,3.2227,3.1912,3.2039,3.2349,3.25,3.2608,3.2442,3.2342,3.2867,3.2778,3.2639,3.2871,3.2871,3.2871,3.2921,3.2889,3.2871,3.2834,3.2792,3.2742,3.2706,3.2742,3.3091,3.3697,3.3012,3.2829,3.2517,3.2076,3.1635,3.2228,3.254,3.2797,3.2706,3.2816,3.3173,3.3829,3.4398,3.4529,3.3865,3.3914,3.3942,3.3876,3.3814,3.3821,3.3807,3.3807,3.3881,3.3924,3.433,3.4879,3.5187,3.5383,3.5309,3.5326,3.5434,3.55,3.55,3.55,3.55,3.55,3.55,3.55,3.55,3.5299,3.5045,3.4845,3.4609,3.4257,3.3944,3.4391,3.5087,3.535,3.55,3.55,3.55,3.55,3.5161,3.4584,3.409,3.359,3.3301,3.2974,3.2665,4.0113,4.0113,4.0113,4.0113,4.0028,3.9529,3.9191,3.8836,3.7946,3.6857,3.596,3.5752,3.5616,3.5616,3.5616,3.5616,3.5616,3.5616,3.5616,3.5566,3.5464,3.5261,3.4979,3.4759,3.4624,3.4117,3.4032,3.4044,3.3711,3.3207,3.2923,3.2551,3.1938,3.1686,3.1507,3.1562,3.1787,3.2127,3.2298,3.2548,3.3299,3.3364,3.3403,3.3665,3.3642,3.3642,3.3605,3.3568,3.3623,3.3642,3.366,3.3733,3.377,3.3807,3.3807,3.3807,3.3807,3.3807,3.3458,3.2999,3.2375,3.2944,3.333,3.3642,3.3807,3.382,3.3819,3.4383,3.5006,3.5105,3.4153,3.4194,3.4055,3.3888,3.3833,3.3807,3.3807,3.382,3.3947,3.4049,3.4486,3.4851,3.5094,3.5364,3.5467,3.5439,3.546,3.55,3.55,3.55,3.55,3.55,3.55,3.55,3.5481,3.5345,3.5232,3.5146,3.4941,3.4838,3.4742,3.5056,3.5207,3.5398,3.55,3.55,3.55,3.55,3.5308,3.5026,3.4385,3.3657,3.336,3.3077,3.3235,4.0113,4.0113,4.0113,4.0113,4.0113,4.0079,3.9648,3.9123,3.8836,3.8007,3.6761,3.6079,3.5701,3.5701,3.5701,3.5616,3.5616,3.5616,3.5616,3.5616,3.56,3.5532,3.5498,3.5397,3.5261,3.5515,3.5261,3.4839,3.4489,3.415,3.3846,3.3363,3.2751,3.2108,3.1893,3.2213,3.2665,3.3063,3.2983,3.3225,3.3522,3.3634,3.3766,3.3793,3.3807,3.3807,3.3807,3.3807,3.3807,3.3807,3.3807,3.3807,3.3807,3.3807,3.3807,3.3807,3.3807,3.3807,3.377,3.3697,3.3605,3.355,3.3752,3.3788,3.3807,3.3842,3.4024,3.4586,3.5166,3.5253,3.486,3.4505,3.4228,3.3907,3.3841,3.3847,3.3847,3.382,3.3934,3.4123,3.4453,3.4784,3.4997,3.5227,3.542,3.5474,3.55,3.55,3.55,3.55,3.55,3.55,3.55,3.55,3.55,3.55,3.5424,3.5337,3.5225,3.5098,3.504,3.5163,3.5297,3.546,3.55,3.55,3.55,3.55,3.5315,3.5091,3.424,3.3606,3.3319,3.3361,3.3707,4.0113,4.0113,4.0113,4.0113,4.0113,4.0113,3.9943,3.969,3.9191,3.843,3.7516,3.6721,3.6383,3.6265,3.5876,3.565,3.5633,3.5616,3.5616,3.5616,3.5616,3.56,3.5616,3.5616,3.5616,3.5616,3.5566,3.5515,3.5211,3.4861,3.4489,3.4024,3.3536,3.2743,3.181,3.162,3.1841,3.2247,3.2533,3.2919,3.3375,3.3666,3.3807,3.3807,3.3807,3.3807,3.3807,3.3807,3.3807,3.3807,3.3807,3.3807,3.3807,3.3807,3.3807,3.3807,3.3807,3.3807,3.3807,3.377,3.3788,3.3807,3.3807,3.3807,3.3807,3.3807,3.4136,3.4624,3.5182,3.5207,3.4912,3.4879,3.461,3.4025,3.3858,3.3899,3.3902,3.3842,3.3895,3.4165,3.4478,3.4907,3.5215,3.5285,3.5427,3.55,3.55,3.55,3.55,3.55,3.55,3.55,3.55,3.55,3.55,3.55,3.5402,3.5255,3.5254,3.5258,3.5251,3.5289,3.5354,3.5481,3.55,3.5481,3.5515,3.5502,3.5444,3.5073,3.4565,3.4413,3.4503,3.4563,3.4703,4.0113,4.0113,4.0113,4.0113,4.0113,4.0113,4.0113,3.9977,3.9334,3.87,3.8193,3.7516,3.7161,3.6941,3.6417,3.6011,3.5994,3.5701,3.5616,3.5616,3.5616,3.5616,3.5616,3.5616,3.5616,3.5616,3.5616,3.5583,3.5515,3.5131,3.4759,3.4495,3.4381,3.3582,3.2672,3.2419,3.2474,3.2856,3.3112,3.306,3.3419,3.3666,3.3807,3.3807,3.3807,3.3807,3.3807,3.3807,3.3807,3.3807,3.3807,3.3807,3.3807,3.3807,3.3807,3.3807,3.3807,3.3807,3.3807,3.3807,3.3807,3.3807,3.3807,3.3807,3.3807,3.3807,3.4049,3.451,3.5111,3.5047,3.484,3.4897,3.4669,3.4083,3.3877,3.3904,3.3876,3.3834,3.3842,3.4129,3.4489,3.4944,3.5369,3.5424,3.5481,3.55,3.55,3.55,3.55,3.55,3.55,3.55,3.55,3.55,3.55,3.55,3.5376,3.5192,3.5259,3.5371,3.5397,3.5411,3.5456,3.5488,3.5501,3.5521,3.5534,3.5532,3.5505,3.5548,3.5465,3.5477,3.5714,3.5596,3.544,4.0113,4.0113,4.0113,4.0113,4.0113,4.0113,4.0113,4.0028,3.9385,3.9056,3.8971,3.8261,3.7939,3.7787,3.7144,3.6823,3.6654,3.6079,3.5876,3.5684,3.5684,3.565,3.5616,3.5616,3.5616,3.5616,3.5616,3.56,3.5583,3.5447,3.5115,3.4808,3.4937,3.4619,3.4332,3.4182,3.4052,3.395,3.3806,3.384,3.4109,3.4142,3.4211,3.4156,3.4064,3.3954,3.388,3.3807,3.3807,3.3807,3.3807,3.3807,3.3807,3.3807,3.3807,3.3807,3.3807,3.3807,3.3807,3.3807,3.3807,3.3807,3.3807,3.3807,3.3807,3.3834,3.4037,3.4412,3.4916,3.4707,3.4536,3.4555,3.4563,3.4174,3.3893,3.3845,3.3829,3.3834,3.3847,3.4062,3.445,3.4889,3.5335,3.55,3.55,3.55,3.55,3.55,3.55,3.55,3.55,3.55,3.55,3.55,3.5488,3.5502,3.5489,3.5354,3.5424,3.5506,3.5525,3.5523,3.556,3.5562,3.5541,3.554,3.5574,3.5616,3.5639,3.5714,3.5777,3.5789,3.5803,3.5864,3.5782,4.0113,4.0113,4.0113,4.0113,4.0113,4.0113,4.0113,4.0062,3.9842,3.9791,3.974,3.9005,3.8684,3.8616,3.7905,3.7652,3.7297,3.6891,3.6592,3.6315,3.596,3.5718,3.5616,3.5633,3.5616,3.5622,3.5622,3.5689,3.5622,3.5622,3.5611,3.5379,3.578,3.6055,3.6198,3.635,3.5704,3.5128,3.488,3.4836,3.5053,3.5231,3.5068,3.4816,3.4674,3.4486,3.4137,3.4009,3.3972,3.3862,3.3844,3.3825,3.3807,3.3807,3.3807,3.3807,3.3807,3.3807,3.3807,3.3807,3.3807,3.3807,3.3807,3.3807,3.3807,3.3855,3.4012,3.4375,3.4794,3.4756,3.4658,3.4636,3.4441,3.4073,3.3874,3.391,3.3915,3.3967,3.3992,3.4172,3.4548,3.4917,3.5354,3.55,3.55,3.55,3.55,3.55,3.55,3.55,3.55,3.55,3.55,3.55,3.5522,3.554,3.5571,3.5562,3.5601,3.5636,3.5672,3.5681,3.5653,3.5626,3.5621,3.5616,3.5647,3.5682,3.5735,3.5808,3.5869,3.5877,3.591,3.5951,3.5932,4.0113,4.0113,4.0113,4.0113,4.0113,4.0113,4.0113,4.0113,4.0113,4.0113,4.0045,3.9639,3.9436,3.9334,3.87,3.8311,3.8261,3.7601,3.7229,3.7043,3.6417,3.6248,3.6062,3.5769,3.5616,3.5644,3.5805,3.5985,3.592,3.592,3.5924,3.5955,3.6721,3.696,3.7109,3.7197,3.7174,3.656,3.6139,3.5945,3.6049,3.6223,3.5874,3.5679,3.5518,3.5165,3.4816,3.4706,3.4614,3.4468,3.4454,3.4376,3.4119,3.3807,3.3807,3.3807,3.3807,3.3807,3.3807,3.3807,3.3807,3.3807,3.3807,3.3807,3.3807,3.3847,3.3988,3.4218,3.4679,3.4962,3.4898,3.4756,3.4341,3.3913,3.3951,3.3987,3.4068,3.4123,3.4249,3.4386,3.4674,3.5019,3.5269,3.541,3.55,3.55,3.55,3.55,3.55,3.55,3.55,3.55,3.55,3.5488,3.5534,3.556,3.5606,3.562,3.5659,3.5694,3.5785,3.5762,3.5705,3.5702,3.5686,3.5717,3.5764,3.5775,3.5809,3.5898,3.5937,3.5957,3.5937,3.5954,3.5905,4.0113,4.0113,4.0113,4.0113,4.0113,4.0113,4.0113,4.0113,4.0113,4.0113,4.0096,4.0096,4.0028,3.9825,3.9309,3.9089,3.887,3.8328,3.7973,3.7915,3.7212,3.6891,3.6637,3.6163,3.5994,3.597,3.6067,3.6291,3.6437,3.6457,3.6478,3.6474,3.6664,3.6981,3.7397,3.7821,3.7921,3.7914,3.7217,3.6765,3.6685,3.6564,3.645,3.6413,3.6376,3.6266,3.6211,3.6101,3.5954,3.5665,3.5463,3.5312,3.4339,3.4211,3.4192,3.4229,3.4394,3.4211,3.4174,3.4119,3.3917,3.388,3.3807,3.3807,3.3807,3.3807,3.3925,3.4169,3.46,3.4851,3.4831,3.4624,3.4259,3.3969,3.3881,3.3924,3.3981,3.4159,3.4445,3.4584,3.4813,3.5122,3.5358,3.55,3.55,3.55,3.55,3.55,3.55,3.55,3.55,3.55,3.55,3.5494,3.5534,3.5579,3.5639,3.5683,3.571,3.5783,3.5861,3.5821,3.5735,3.578,3.5825,3.5828,3.5859,3.5879,3.5898,3.5957,3.5996,3.5996,3.5996,3.5996,3.5882,4.0113,4.0113,4.0113,4.0113,4.0113,4.0113,4.0113,4.0113,4.0113,4.0113,4.0113,4.0113,4.0113,4.0028,3.9893,3.974,3.9605,3.9073,3.8785,3.8497,3.7973,3.7652,3.7483,3.6891,3.6535,3.6486,3.6547,3.6643,3.6923,3.7001,3.702,3.7058,3.7211,3.7542,3.7667,3.8167,3.8494,3.8634,3.8285,3.7845,3.7863,3.7936,3.7936,3.7477,3.7199,3.6905,3.6707,3.6376,3.6248,3.6101,3.6156,3.5367,3.3972,3.5055,3.5605,3.5697,3.5587,3.5183,3.4871,3.4674,3.4486,3.4027,3.3862,3.3825,3.3807,3.3807,3.3935,3.4197,3.4419,3.4618,3.4687,3.4442,3.4246,3.4012,3.3823,3.3873,3.3923,3.4288,3.4626,3.4823,3.4985,3.5176,3.5405,3.55,3.55,3.55,3.55,3.55,3.55,3.55,3.55,3.55,3.55,3.5501,3.5547,3.5599,3.5682,3.5761,3.5806,3.5878,3.5957,3.5918,3.5859,3.5918,3.5953,3.5937,3.5937,3.5976,3.5996,3.6016,3.6016,3.6016,3.6016,3.5996,3.5879,4.0113,4.0113,4.0113,4.0113,4.0113,4.0113,4.0113,4.0113,4.0113,4.0113,4.0113,4.0113,4.0113,4.0113,4.0113,4.0113,4.0045,3.9706,3.9537,3.9259,3.8802,3.8481,3.8075,3.7635,3.7083,3.6871,3.6877,3.7001,3.7396,3.7506,3.7524,3.756,3.7825,3.7946,3.7997,3.8399,3.8707,3.8707,3.8707,3.8707,3.8707,3.8615,3.856,3.8083,3.7918,3.7661,3.7624,3.7331,3.7129,3.678,3.6538,3.6762,3.6009,3.6193,3.667,3.6872,3.6707,3.6101,3.5752,3.5463,3.5169,3.4637,3.4325,3.4454,3.3825,3.3802,3.3817,3.4041,3.4049,3.4221,3.4278,3.4146,3.4055,3.3893,3.3891,3.3923,3.4225,3.4634,3.4944,3.5195,3.5243,3.5176,3.5383,3.55,3.55,3.55,3.55,3.55,3.55,3.55,3.55,3.55,3.55,3.5522,3.5574,3.564,3.5719,3.5799,3.5879,3.5937,3.5976,3.5996,3.5996,3.5996,3.5996,3.5996,3.5996,3.6016,3.6016,3.6016,3.6016,3.6016,3.6016,3.6016,3.5918,4.0113,4.0113,4.0113,4.0113,4.0113,4.0113,4.0113,4.0113,4.0113,4.0113,4.0113,4.0113,4.0113,4.0113,4.0113,4.0113,4.0062,3.996,3.9994,3.9859,3.9394,3.9191,3.887,3.8396,3.7712,3.7238,3.7137,3.7443,3.779,3.7807,3.7825,3.7946,3.7997,3.8032,3.8132,3.8382,3.8707,3.8707,3.8707,3.8707,3.8707,3.8707,3.8652,3.867,3.8707,3.8707,3.8689,3.856,3.8212,3.7808,3.7202,3.7459,3.7569,3.7386,3.7624,3.7845,3.7496,3.689,3.6486,3.6413,3.5917,3.5426,3.5243,3.4876,3.4321,3.3947,3.3948,3.4065,3.4084,3.4068,3.4142,3.4173,3.4122,3.4057,3.4107,3.4111,3.4513,3.4917,3.5201,3.5472,3.5405,3.5285,3.535,3.5467,3.55,3.55,3.55,3.55,3.55,3.55,3.55,3.55,3.55,3.5521,3.5571,3.5642,3.5726,3.5795,3.5859,3.5957,3.6016,3.6016,3.6016,3.6016,3.6016,3.6016,3.6016,3.6016,3.6016,3.6016,3.6016,3.6016,3.6016,3.5996,3.5976,4.0113,4.0113,4.0113,4.0113,4.0113,4.0113,4.0113,4.0113,4.0113,4.0113,4.0113,4.0113,4.0113,4.0113,4.0113,4.0113,4.0113,4.0113,4.0113,3.9994,3.9842,3.9842,3.9588,3.8911,3.8212,3.7799,3.7544,3.7637,3.7971,3.8006,3.8152,3.849,3.8465,3.8481,3.8546,3.8707,3.8707,3.8707,3.8707,3.8707,3.8707,3.8707,3.8707,3.8707,3.8707,3.8707,3.8707,3.8707,3.8615,3.845,3.8248,3.8358,3.834,3.8285,3.8395,3.8395,3.8046,3.7753,3.7422,3.7276,3.6798,3.6174,3.6009,3.5936,3.5238,3.4449,3.4604,3.4954,3.4954,3.4789,3.4818,3.4874,3.4839,3.4713,3.4692,3.4647,3.481,3.5078,3.5332,3.5453,3.5467,3.5412,3.542,3.55,3.55,3.55,3.55,3.55,3.55,3.55,3.55,3.55,3.55,3.5488,3.5522,3.5629,3.5723,3.5792,3.5859,3.5957,3.6016,3.6016,3.6016,3.6016,3.6016,3.6016,3.6016,3.6016,3.6016,3.6016,3.6016,3.6016,3.6016,3.6016,3.5976]}]]